<?xml version="1.0" encoding="UTF-8" standalone="no" ?>
<gpx xmlns="http://www.topografix.com/GPX/1/1" xmlns:xsi="http://www.w3.org/2001/XMLSchema-instance" xsi:schemaLocation="http://www.topografix.com/GPX/1/1 http://www.topografix.com/GPX/1/1/gpx.xsd" version="1.1" creator="VisuGPX - https://www.visugpx.com">
  <metadata>
    <name>Col du Wettstein - Labaroche - Orbey - Lapoutroie</name>
    <desc><![CDATA[Col du Wettstein - Labaroche - Orbey - Lapoutroie]]></desc>
  </metadata>
  <trk>
    <name><![CDATA[Col du Wettstein - Labaroche - Orbey - Lapoutroie]]></name>
    <trkseg>
      <trkpt lat="48.08796" lon="7.11591">
        <ele>827</ele>
        <time>2015-07-08T13:51:40.1Z</time>
      </trkpt>
      <trkpt lat="48.08794" lon="7.11594">
        <ele>827</ele>
        <time>2015-07-08T13:51:42.1Z</time>
      </trkpt>
      <trkpt lat="48.08789" lon="7.11602">
        <ele>827</ele>
        <time>2015-07-08T13:51:45.1Z</time>
      </trkpt>
      <trkpt lat="48.08785" lon="7.11609">
        <ele>827</ele>
        <time>2015-07-08T13:51:47.1Z</time>
      </trkpt>
      <trkpt lat="48.08783" lon="7.11616">
        <ele>827</ele>
        <time>2015-07-08T13:51:49.1Z</time>
      </trkpt>
      <trkpt lat="48.08783" lon="7.11623">
        <ele>827</ele>
        <time>2015-07-08T13:51:51.1Z</time>
      </trkpt>
      <trkpt lat="48.08786" lon="7.11633">
        <ele>826</ele>
        <time>2015-07-08T13:51:53.1Z</time>
      </trkpt>
      <trkpt lat="48.08789" lon="7.11644">
        <ele>826</ele>
        <time>2015-07-08T13:51:56.1Z</time>
      </trkpt>
      <trkpt lat="48.08794" lon="7.1166">
        <ele>826</ele>
        <time>2015-07-08T13:51:58.1Z</time>
      </trkpt>
      <trkpt lat="48.08798" lon="7.11672">
        <ele>826</ele>
        <time>2015-07-08T13:52:00.1Z</time>
      </trkpt>
      <trkpt lat="48.08802" lon="7.11684">
        <ele>826</ele>
        <time>2015-07-08T13:52:02.1Z</time>
      </trkpt>
      <trkpt lat="48.08807" lon="7.11695">
        <ele>826</ele>
        <time>2015-07-08T13:52:04.1Z</time>
      </trkpt>
      <trkpt lat="48.08818" lon="7.11711">
        <ele>825</ele>
        <time>2015-07-08T13:52:07.1Z</time>
      </trkpt>
      <trkpt lat="48.08831" lon="7.11723">
        <ele>825</ele>
        <time>2015-07-08T13:52:10.1Z</time>
      </trkpt>
      <trkpt lat="48.08845" lon="7.11731">
        <ele>825</ele>
        <time>2015-07-08T13:52:13.1Z</time>
      </trkpt>
      <trkpt lat="48.0886" lon="7.1174">
        <ele>825</ele>
        <time>2015-07-08T13:52:16.1Z</time>
      </trkpt>
      <trkpt lat="48.08875" lon="7.11748">
        <ele>825</ele>
        <time>2015-07-08T13:52:19.1Z</time>
      </trkpt>
      <trkpt lat="48.0889" lon="7.11756">
        <ele>825</ele>
        <time>2015-07-08T13:52:22.1Z</time>
      </trkpt>
      <trkpt lat="48.08904" lon="7.11764">
        <ele>825</ele>
        <time>2015-07-08T13:52:25.1Z</time>
      </trkpt>
      <trkpt lat="48.08917" lon="7.11772">
        <ele>824</ele>
        <time>2015-07-08T13:52:28.1Z</time>
      </trkpt>
      <trkpt lat="48.08922" lon="7.11785">
        <ele>824</ele>
        <time>2015-07-08T13:52:31.1Z</time>
      </trkpt>
      <trkpt lat="48.08915" lon="7.11801">
        <ele>823</ele>
        <time>2015-07-08T13:52:34.1Z</time>
      </trkpt>
      <trkpt lat="48.08907" lon="7.11814">
        <ele>823</ele>
        <time>2015-07-08T13:52:36.1Z</time>
      </trkpt>
      <trkpt lat="48.089" lon="7.11826">
        <ele>823</ele>
        <time>2015-07-08T13:52:38.1Z</time>
      </trkpt>
      <trkpt lat="48.08892" lon="7.11834">
        <ele>823</ele>
        <time>2015-07-08T13:52:41.1Z</time>
      </trkpt>
      <trkpt lat="48.08878" lon="7.11842">
        <ele>821</ele>
        <time>2015-07-08T13:52:43.1Z</time>
      </trkpt>
      <trkpt lat="48.08868" lon="7.1185">
        <ele>821</ele>
        <time>2015-07-08T13:52:45.1Z</time>
      </trkpt>
      <trkpt lat="48.08857" lon="7.11859">
        <ele>820</ele>
        <time>2015-07-08T13:52:47.1Z</time>
      </trkpt>
      <trkpt lat="48.08844" lon="7.11872">
        <ele>821</ele>
        <time>2015-07-08T13:52:50.1Z</time>
      </trkpt>
      <trkpt lat="48.08837" lon="7.11884">
        <ele>821</ele>
        <time>2015-07-08T13:52:52.1Z</time>
      </trkpt>
      <trkpt lat="48.08829" lon="7.11897">
        <ele>821</ele>
        <time>2015-07-08T13:52:54.1Z</time>
      </trkpt>
      <trkpt lat="48.08816" lon="7.11917">
        <ele>821</ele>
        <time>2015-07-08T13:52:57.1Z</time>
      </trkpt>
      <trkpt lat="48.08805" lon="7.11935">
        <ele>821</ele>
        <time>2015-07-08T13:53:00.1Z</time>
      </trkpt>
      <trkpt lat="48.08794" lon="7.11953">
        <ele>822</ele>
        <time>2015-07-08T13:53:03.1Z</time>
      </trkpt>
      <trkpt lat="48.08783" lon="7.11972">
        <ele>822</ele>
        <time>2015-07-08T13:53:06.1Z</time>
      </trkpt>
      <trkpt lat="48.08772" lon="7.1199">
        <ele>822</ele>
        <time>2015-07-08T13:53:09.1Z</time>
      </trkpt>
      <trkpt lat="48.08764" lon="7.1201">
        <ele>821</ele>
        <time>2015-07-08T13:53:12.1Z</time>
      </trkpt>
      <trkpt lat="48.08759" lon="7.12024">
        <ele>822</ele>
        <time>2015-07-08T13:53:14.1Z</time>
      </trkpt>
      <trkpt lat="48.08754" lon="7.12038">
        <ele>822</ele>
        <time>2015-07-08T13:53:16.1Z</time>
      </trkpt>
      <trkpt lat="48.08752" lon="7.12057">
        <ele>823</ele>
        <time>2015-07-08T13:53:19.1Z</time>
      </trkpt>
      <trkpt lat="48.08751" lon="7.12078">
        <ele>824</ele>
        <time>2015-07-08T13:53:22.1Z</time>
      </trkpt>
      <trkpt lat="48.08754" lon="7.12094">
        <ele>824</ele>
        <time>2015-07-08T13:53:25.1Z</time>
      </trkpt>
      <trkpt lat="48.08756" lon="7.12121">
        <ele>824</ele>
        <time>2015-07-08T13:53:27.1Z</time>
      </trkpt>
      <trkpt lat="48.08759" lon="7.12148">
        <ele>824</ele>
        <time>2015-07-08T13:53:30.1Z</time>
      </trkpt>
      <trkpt lat="48.08762" lon="7.12175">
        <ele>823</ele>
        <time>2015-07-08T13:53:33.1Z</time>
      </trkpt>
      <trkpt lat="48.08762" lon="7.12206">
        <ele>822</ele>
        <time>2015-07-08T13:53:36.1Z</time>
      </trkpt>
      <trkpt lat="48.08761" lon="7.12225">
        <ele>822</ele>
        <time>2015-07-08T13:53:39.1Z</time>
      </trkpt>
      <trkpt lat="48.08759" lon="7.12252">
        <ele>821</ele>
        <time>2015-07-08T13:53:41.1Z</time>
      </trkpt>
      <trkpt lat="48.08756" lon="7.1228">
        <ele>822</ele>
        <time>2015-07-08T13:53:44.1Z</time>
      </trkpt>
      <trkpt lat="48.08755" lon="7.12306">
        <ele>822</ele>
        <time>2015-07-08T13:53:47.1Z</time>
      </trkpt>
      <trkpt lat="48.08755" lon="7.12337">
        <ele>821</ele>
        <time>2015-07-08T13:53:50.1Z</time>
      </trkpt>
      <trkpt lat="48.08754" lon="7.12359">
        <ele>822</ele>
        <time>2015-07-08T13:53:53.1Z</time>
      </trkpt>
      <trkpt lat="48.0875" lon="7.1239">
        <ele>821</ele>
        <time>2015-07-08T13:53:55.1Z</time>
      </trkpt>
      <trkpt lat="48.08748" lon="7.12408">
        <ele>821</ele>
        <time>2015-07-08T13:53:57.1Z</time>
      </trkpt>
      <trkpt lat="48.08741" lon="7.12437">
        <ele>821</ele>
        <time>2015-07-08T13:54:00.1Z</time>
      </trkpt>
      <trkpt lat="48.08734" lon="7.12466">
        <ele>822</ele>
        <time>2015-07-08T13:54:03.1Z</time>
      </trkpt>
      <trkpt lat="48.08725" lon="7.12493">
        <ele>824</ele>
        <time>2015-07-08T13:54:07.1Z</time>
      </trkpt>
      <trkpt lat="48.08717" lon="7.12518">
        <ele>825</ele>
        <time>2015-07-08T13:54:09.1Z</time>
      </trkpt>
      <trkpt lat="48.08709" lon="7.1254">
        <ele>825</ele>
        <time>2015-07-08T13:54:12.1Z</time>
      </trkpt>
      <trkpt lat="48.08703" lon="7.12559">
        <ele>826</ele>
        <time>2015-07-08T13:54:15.1Z</time>
      </trkpt>
      <trkpt lat="48.08699" lon="7.12575">
        <ele>826</ele>
        <time>2015-07-08T13:54:18.1Z</time>
      </trkpt>
      <trkpt lat="48.08694" lon="7.12588">
        <ele>826</ele>
        <time>2015-07-08T13:54:21.1Z</time>
      </trkpt>
      <trkpt lat="48.08688" lon="7.12607">
        <ele>826</ele>
        <time>2015-07-08T13:54:23.1Z</time>
      </trkpt>
      <trkpt lat="48.0868" lon="7.12628">
        <ele>826</ele>
        <time>2015-07-08T13:54:26.1Z</time>
      </trkpt>
      <trkpt lat="48.0867" lon="7.12647">
        <ele>826</ele>
        <time>2015-07-08T13:54:29.1Z</time>
      </trkpt>
      <trkpt lat="48.08663" lon="7.12661">
        <ele>826</ele>
        <time>2015-07-08T13:54:31.1Z</time>
      </trkpt>
      <trkpt lat="48.08655" lon="7.12675">
        <ele>826</ele>
        <time>2015-07-08T13:54:33.1Z</time>
      </trkpt>
      <trkpt lat="48.08643" lon="7.12694">
        <ele>826</ele>
        <time>2015-07-08T13:54:36.1Z</time>
      </trkpt>
      <trkpt lat="48.08635" lon="7.12709">
        <ele>826</ele>
        <time>2015-07-08T13:54:38.1Z</time>
      </trkpt>
      <trkpt lat="48.08624" lon="7.12733">
        <ele>826</ele>
        <time>2015-07-08T13:54:41.1Z</time>
      </trkpt>
      <trkpt lat="48.08616" lon="7.12747">
        <ele>826</ele>
        <time>2015-07-08T13:54:43.1Z</time>
      </trkpt>
      <trkpt lat="48.08603" lon="7.12768">
        <ele>826</ele>
        <time>2015-07-08T13:54:46.1Z</time>
      </trkpt>
      <trkpt lat="48.08594" lon="7.12781">
        <ele>826</ele>
        <time>2015-07-08T13:54:49.1Z</time>
      </trkpt>
      <trkpt lat="48.08579" lon="7.12796">
        <ele>827</ele>
        <time>2015-07-08T13:54:51.1Z</time>
      </trkpt>
      <trkpt lat="48.08569" lon="7.12804">
        <ele>827</ele>
        <time>2015-07-08T13:54:53.1Z</time>
      </trkpt>
      <trkpt lat="48.08557" lon="7.12812">
        <ele>827</ele>
        <time>2015-07-08T13:54:55.1Z</time>
      </trkpt>
      <trkpt lat="48.0854" lon="7.12822">
        <ele>826</ele>
        <time>2015-07-08T13:54:58.1Z</time>
      </trkpt>
      <trkpt lat="48.08521" lon="7.12827">
        <ele>825</ele>
        <time>2015-07-08T13:55:02.1Z</time>
      </trkpt>
      <trkpt lat="48.08502" lon="7.12829">
        <ele>825</ele>
        <time>2015-07-08T13:55:04.1Z</time>
      </trkpt>
      <trkpt lat="48.08483" lon="7.12831">
        <ele>826</ele>
        <time>2015-07-08T13:55:07.1Z</time>
      </trkpt>
      <trkpt lat="48.08464" lon="7.12831">
        <ele>827</ele>
        <time>2015-07-08T13:55:10.1Z</time>
      </trkpt>
      <trkpt lat="48.08452" lon="7.12834">
        <ele>828</ele>
        <time>2015-07-08T13:55:12.1Z</time>
      </trkpt>
      <trkpt lat="48.0844" lon="7.12836">
        <ele>828</ele>
        <time>2015-07-08T13:55:14.1Z</time>
      </trkpt>
      <trkpt lat="48.08422" lon="7.12833">
        <ele>828</ele>
        <time>2015-07-08T13:55:17.1Z</time>
      </trkpt>
      <trkpt lat="48.08412" lon="7.12832">
        <ele>828</ele>
        <time>2015-07-08T13:55:19.1Z</time>
      </trkpt>
      <trkpt lat="48.08402" lon="7.1283">
        <ele>828</ele>
        <time>2015-07-08T13:55:21.1Z</time>
      </trkpt>
      <trkpt lat="48.08391" lon="7.12827">
        <ele>827</ele>
        <time>2015-07-08T13:55:24.1Z</time>
      </trkpt>
      <trkpt lat="48.08383" lon="7.12826">
        <ele>828</ele>
        <time>2015-07-08T13:55:26.1Z</time>
      </trkpt>
      <trkpt lat="48.08374" lon="7.12825">
        <ele>828</ele>
        <time>2015-07-08T13:55:28.1Z</time>
      </trkpt>
      <trkpt lat="48.08365" lon="7.12824">
        <ele>829</ele>
        <time>2015-07-08T13:55:30.1Z</time>
      </trkpt>
      <trkpt lat="48.08352" lon="7.12825">
        <ele>830</ele>
        <time>2015-07-08T13:55:33.1Z</time>
      </trkpt>
      <trkpt lat="48.08339" lon="7.12829">
        <ele>831</ele>
        <time>2015-07-08T13:55:36.1Z</time>
      </trkpt>
      <trkpt lat="48.08325" lon="7.12836">
        <ele>832</ele>
        <time>2015-07-08T13:55:39.1Z</time>
      </trkpt>
      <trkpt lat="48.0831" lon="7.12848">
        <ele>833</ele>
        <time>2015-07-08T13:55:42.1Z</time>
      </trkpt>
      <trkpt lat="48.08296" lon="7.1287">
        <ele>833</ele>
        <time>2015-07-08T13:55:45.1Z</time>
      </trkpt>
      <trkpt lat="48.08291" lon="7.12888">
        <ele>833</ele>
        <time>2015-07-08T13:55:48.1Z</time>
      </trkpt>
      <trkpt lat="48.08287" lon="7.12918">
        <ele>833</ele>
        <time>2015-07-08T13:55:50.1Z</time>
      </trkpt>
      <trkpt lat="48.08287" lon="7.12945">
        <ele>832</ele>
        <time>2015-07-08T13:55:53.1Z</time>
      </trkpt>
      <trkpt lat="48.08287" lon="7.12963">
        <ele>831</ele>
        <time>2015-07-08T13:55:55.1Z</time>
      </trkpt>
      <trkpt lat="48.08288" lon="7.12981">
        <ele>830</ele>
        <time>2015-07-08T13:55:57.1Z</time>
      </trkpt>
      <trkpt lat="48.08289" lon="7.13011">
        <ele>829</ele>
        <time>2015-07-08T13:56:00.1Z</time>
      </trkpt>
      <trkpt lat="48.08288" lon="7.13033">
        <ele>829</ele>
        <time>2015-07-08T13:56:02.1Z</time>
      </trkpt>
      <trkpt lat="48.08293" lon="7.13067">
        <ele>828</ele>
        <time>2015-07-08T13:56:05.1Z</time>
      </trkpt>
      <trkpt lat="48.08305" lon="7.13085">
        <ele>828</ele>
        <time>2015-07-08T13:56:07.1Z</time>
      </trkpt>
      <trkpt lat="48.08318" lon="7.13099">
        <ele>827</ele>
        <time>2015-07-08T13:56:10.1Z</time>
      </trkpt>
      <trkpt lat="48.08339" lon="7.13122">
        <ele>826</ele>
        <time>2015-07-08T13:56:12.1Z</time>
      </trkpt>
      <trkpt lat="48.0835" lon="7.13142">
        <ele>825</ele>
        <time>2015-07-08T13:56:14.1Z</time>
      </trkpt>
      <trkpt lat="48.08364" lon="7.1318">
        <ele>823</ele>
        <time>2015-07-08T13:56:17.1Z</time>
      </trkpt>
      <trkpt lat="48.08375" lon="7.13206">
        <ele>823</ele>
        <time>2015-07-08T13:56:19.1Z</time>
      </trkpt>
      <trkpt lat="48.08389" lon="7.13232">
        <ele>823</ele>
        <time>2015-07-08T13:56:21.1Z</time>
      </trkpt>
      <trkpt lat="48.08403" lon="7.13259">
        <ele>822</ele>
        <time>2015-07-08T13:56:23.1Z</time>
      </trkpt>
      <trkpt lat="48.08415" lon="7.13286">
        <ele>823</ele>
        <time>2015-07-08T13:56:25.1Z</time>
      </trkpt>
      <trkpt lat="48.08427" lon="7.1331">
        <ele>822</ele>
        <time>2015-07-08T13:56:27.1Z</time>
      </trkpt>
      <trkpt lat="48.08439" lon="7.13335">
        <ele>821</ele>
        <time>2015-07-08T13:56:30.1Z</time>
      </trkpt>
      <trkpt lat="48.08454" lon="7.13373">
        <ele>820</ele>
        <time>2015-07-08T13:56:32.1Z</time>
      </trkpt>
      <trkpt lat="48.08462" lon="7.13398">
        <ele>818</ele>
        <time>2015-07-08T13:56:34.1Z</time>
      </trkpt>
      <trkpt lat="48.08469" lon="7.13421">
        <ele>817</ele>
        <time>2015-07-08T13:56:36.1Z</time>
      </trkpt>
      <trkpt lat="48.08477" lon="7.13443">
        <ele>816</ele>
        <time>2015-07-08T13:56:38.1Z</time>
      </trkpt>
      <trkpt lat="48.08484" lon="7.13464">
        <ele>816</ele>
        <time>2015-07-08T13:56:40.1Z</time>
      </trkpt>
      <trkpt lat="48.08492" lon="7.13483">
        <ele>816</ele>
        <time>2015-07-08T13:56:42.1Z</time>
      </trkpt>
      <trkpt lat="48.08501" lon="7.13499">
        <ele>816</ele>
        <time>2015-07-08T13:56:44.1Z</time>
      </trkpt>
      <trkpt lat="48.08514" lon="7.13521">
        <ele>816</ele>
        <time>2015-07-08T13:56:47.1Z</time>
      </trkpt>
      <trkpt lat="48.08522" lon="7.13538">
        <ele>816</ele>
        <time>2015-07-08T13:56:49.1Z</time>
      </trkpt>
      <trkpt lat="48.08535" lon="7.1356">
        <ele>815</ele>
        <time>2015-07-08T13:56:52.1Z</time>
      </trkpt>
      <trkpt lat="48.08545" lon="7.13574">
        <ele>815</ele>
        <time>2015-07-08T13:56:54.1Z</time>
      </trkpt>
      <trkpt lat="48.08559" lon="7.13593">
        <ele>815</ele>
        <time>2015-07-08T13:56:57.1Z</time>
      </trkpt>
      <trkpt lat="48.08567" lon="7.13606">
        <ele>815</ele>
        <time>2015-07-08T13:56:59.1Z</time>
      </trkpt>
      <trkpt lat="48.08574" lon="7.13622">
        <ele>814</ele>
        <time>2015-07-08T13:57:02.1Z</time>
      </trkpt>
      <trkpt lat="48.08583" lon="7.13643">
        <ele>814</ele>
        <time>2015-07-08T13:57:04.1Z</time>
      </trkpt>
      <trkpt lat="48.08593" lon="7.1366">
        <ele>813</ele>
        <time>2015-07-08T13:57:07.1Z</time>
      </trkpt>
      <trkpt lat="48.086" lon="7.13669">
        <ele>812</ele>
        <time>2015-07-08T13:57:09.1Z</time>
      </trkpt>
      <trkpt lat="48.08611" lon="7.13682">
        <ele>812</ele>
        <time>2015-07-08T13:57:12.1Z</time>
      </trkpt>
      <trkpt lat="48.08617" lon="7.13688">
        <ele>812</ele>
        <time>2015-07-08T13:57:14.1Z</time>
      </trkpt>
      <trkpt lat="48.08626" lon="7.13698">
        <ele>812</ele>
        <time>2015-07-08T13:57:16.1Z</time>
      </trkpt>
      <trkpt lat="48.08635" lon="7.13713">
        <ele>812</ele>
        <time>2015-07-08T13:57:18.1Z</time>
      </trkpt>
      <trkpt lat="48.08646" lon="7.13735">
        <ele>812</ele>
        <time>2015-07-08T13:57:21.1Z</time>
      </trkpt>
      <trkpt lat="48.08656" lon="7.13747">
        <ele>813</ele>
        <time>2015-07-08T13:57:23.1Z</time>
      </trkpt>
      <trkpt lat="48.08666" lon="7.13758">
        <ele>813</ele>
        <time>2015-07-08T13:57:25.1Z</time>
      </trkpt>
      <trkpt lat="48.08681" lon="7.13774">
        <ele>813</ele>
        <time>2015-07-08T13:57:28.1Z</time>
      </trkpt>
      <trkpt lat="48.08697" lon="7.13791">
        <ele>813</ele>
        <time>2015-07-08T13:57:31.1Z</time>
      </trkpt>
      <trkpt lat="48.08707" lon="7.13803">
        <ele>814</ele>
        <time>2015-07-08T13:57:33.1Z</time>
      </trkpt>
      <trkpt lat="48.08723" lon="7.13822">
        <ele>814</ele>
        <time>2015-07-08T13:57:36.1Z</time>
      </trkpt>
      <trkpt lat="48.08736" lon="7.13845">
        <ele>813</ele>
        <time>2015-07-08T13:57:39.1Z</time>
      </trkpt>
      <trkpt lat="48.08745" lon="7.1386">
        <ele>813</ele>
        <time>2015-07-08T13:57:41.1Z</time>
      </trkpt>
      <trkpt lat="48.08761" lon="7.13881">
        <ele>813</ele>
        <time>2015-07-08T13:57:44.1Z</time>
      </trkpt>
      <trkpt lat="48.08771" lon="7.13896">
        <ele>813</ele>
        <time>2015-07-08T13:57:46.1Z</time>
      </trkpt>
      <trkpt lat="48.08782" lon="7.13911">
        <ele>813</ele>
        <time>2015-07-08T13:57:48.1Z</time>
      </trkpt>
      <trkpt lat="48.08796" lon="7.13938">
        <ele>813</ele>
        <time>2015-07-08T13:57:51.1Z</time>
      </trkpt>
      <trkpt lat="48.08804" lon="7.13956">
        <ele>813</ele>
        <time>2015-07-08T13:57:53.1Z</time>
      </trkpt>
      <trkpt lat="48.0881" lon="7.13974">
        <ele>813</ele>
        <time>2015-07-08T13:57:55.1Z</time>
      </trkpt>
      <trkpt lat="48.08814" lon="7.13993">
        <ele>813</ele>
        <time>2015-07-08T13:57:57.1Z</time>
      </trkpt>
      <trkpt lat="48.08823" lon="7.14025">
        <ele>814</ele>
        <time>2015-07-08T13:58:00.1Z</time>
      </trkpt>
      <trkpt lat="48.08827" lon="7.1405">
        <ele>814</ele>
        <time>2015-07-08T13:58:02.1Z</time>
      </trkpt>
      <trkpt lat="48.08826" lon="7.14092">
        <ele>814</ele>
        <time>2015-07-08T13:58:05.1Z</time>
      </trkpt>
      <trkpt lat="48.08822" lon="7.14137">
        <ele>814</ele>
        <time>2015-07-08T13:58:08.1Z</time>
      </trkpt>
      <trkpt lat="48.08818" lon="7.14167">
        <ele>814</ele>
        <time>2015-07-08T13:58:10.1Z</time>
      </trkpt>
      <trkpt lat="48.08806" lon="7.14213">
        <ele>814</ele>
        <time>2015-07-08T13:58:13.1Z</time>
      </trkpt>
      <trkpt lat="48.08794" lon="7.14259">
        <ele>812</ele>
        <time>2015-07-08T13:58:16.1Z</time>
      </trkpt>
      <trkpt lat="48.08781" lon="7.14305">
        <ele>811</ele>
        <time>2015-07-08T13:58:19.1Z</time>
      </trkpt>
      <trkpt lat="48.08764" lon="7.14351">
        <ele>808</ele>
        <time>2015-07-08T13:58:22.1Z</time>
      </trkpt>
      <trkpt lat="48.08742" lon="7.14398">
        <ele>807</ele>
        <time>2015-07-08T13:58:25.1Z</time>
      </trkpt>
      <trkpt lat="48.08717" lon="7.14439">
        <ele>803</ele>
        <time>2015-07-08T13:58:28.1Z</time>
      </trkpt>
      <trkpt lat="48.08702" lon="7.14467">
        <ele>801</ele>
        <time>2015-07-08T13:58:30.1Z</time>
      </trkpt>
      <trkpt lat="48.08681" lon="7.14509">
        <ele>799</ele>
        <time>2015-07-08T13:58:33.1Z</time>
      </trkpt>
      <trkpt lat="48.08669" lon="7.14537">
        <ele>796</ele>
        <time>2015-07-08T13:58:35.1Z</time>
      </trkpt>
      <trkpt lat="48.08655" lon="7.14577">
        <ele>793</ele>
        <time>2015-07-08T13:58:38.1Z</time>
      </trkpt>
      <trkpt lat="48.08665" lon="7.1461">
        <ele>789</ele>
        <time>2015-07-08T13:58:41.1Z</time>
      </trkpt>
      <trkpt lat="48.08677" lon="7.14625">
        <ele>788</ele>
        <time>2015-07-08T13:58:43.1Z</time>
      </trkpt>
      <trkpt lat="48.08692" lon="7.14635">
        <ele>787</ele>
        <time>2015-07-08T13:58:45.1Z</time>
      </trkpt>
      <trkpt lat="48.08717" lon="7.14647">
        <ele>786</ele>
        <time>2015-07-08T13:58:48.1Z</time>
      </trkpt>
      <trkpt lat="48.08733" lon="7.14655">
        <ele>785</ele>
        <time>2015-07-08T13:58:50.1Z</time>
      </trkpt>
      <trkpt lat="48.0876" lon="7.14673">
        <ele>784</ele>
        <time>2015-07-08T13:58:53.1Z</time>
      </trkpt>
      <trkpt lat="48.08786" lon="7.14684">
        <ele>780</ele>
        <time>2015-07-08T13:58:56.1Z</time>
      </trkpt>
      <trkpt lat="48.08808" lon="7.14674">
        <ele>775</ele>
        <time>2015-07-08T13:58:59.1Z</time>
      </trkpt>
      <trkpt lat="48.08838" lon="7.14658">
        <ele>773</ele>
        <time>2015-07-08T13:59:02.1Z</time>
      </trkpt>
      <trkpt lat="48.08868" lon="7.14641">
        <ele>772</ele>
        <time>2015-07-08T13:59:05.1Z</time>
      </trkpt>
      <trkpt lat="48.08896" lon="7.14622">
        <ele>771</ele>
        <time>2015-07-08T13:59:08.1Z</time>
      </trkpt>
      <trkpt lat="48.08927" lon="7.1461">
        <ele>768</ele>
        <time>2015-07-08T13:59:11.1Z</time>
      </trkpt>
      <trkpt lat="48.08956" lon="7.14594">
        <ele>766</ele>
        <time>2015-07-08T13:59:14.1Z</time>
      </trkpt>
      <trkpt lat="48.08974" lon="7.14582">
        <ele>764</ele>
        <time>2015-07-08T13:59:16.1Z</time>
      </trkpt>
      <trkpt lat="48.09001" lon="7.14563">
        <ele>762</ele>
        <time>2015-07-08T13:59:19.1Z</time>
      </trkpt>
      <trkpt lat="48.09031" lon="7.14547">
        <ele>761</ele>
        <time>2015-07-08T13:59:22.1Z</time>
      </trkpt>
      <trkpt lat="48.0905" lon="7.14539">
        <ele>759</ele>
        <time>2015-07-08T13:59:24.1Z</time>
      </trkpt>
      <trkpt lat="48.09078" lon="7.14522">
        <ele>758</ele>
        <time>2015-07-08T13:59:27.1Z</time>
      </trkpt>
      <trkpt lat="48.09095" lon="7.1451">
        <ele>757</ele>
        <time>2015-07-08T13:59:29.1Z</time>
      </trkpt>
      <trkpt lat="48.09122" lon="7.14486">
        <ele>755</ele>
        <time>2015-07-08T13:59:32.1Z</time>
      </trkpt>
      <trkpt lat="48.09148" lon="7.14462">
        <ele>753</ele>
        <time>2015-07-08T13:59:35.1Z</time>
      </trkpt>
      <trkpt lat="48.09159" lon="7.14452">
        <ele>751</ele>
        <time>2015-07-08T13:59:37.1Z</time>
      </trkpt>
      <trkpt lat="48.09171" lon="7.14439">
        <ele>749</ele>
        <time>2015-07-08T13:59:40.1Z</time>
      </trkpt>
      <trkpt lat="48.09184" lon="7.1442">
        <ele>746</ele>
        <time>2015-07-08T13:59:43.1Z</time>
      </trkpt>
      <trkpt lat="48.09193" lon="7.14405">
        <ele>746</ele>
        <time>2015-07-08T13:59:45.1Z</time>
      </trkpt>
      <trkpt lat="48.09211" lon="7.14379">
        <ele>745</ele>
        <time>2015-07-08T13:59:48.1Z</time>
      </trkpt>
      <trkpt lat="48.09226" lon="7.14359">
        <ele>745</ele>
        <time>2015-07-08T13:59:50.1Z</time>
      </trkpt>
      <trkpt lat="48.09251" lon="7.14329">
        <ele>744</ele>
        <time>2015-07-08T13:59:53.1Z</time>
      </trkpt>
      <trkpt lat="48.09267" lon="7.14306">
        <ele>742</ele>
        <time>2015-07-08T13:59:55.1Z</time>
      </trkpt>
      <trkpt lat="48.09286" lon="7.14289">
        <ele>740</ele>
        <time>2015-07-08T13:59:57.1Z</time>
      </trkpt>
      <trkpt lat="48.09314" lon="7.14275">
        <ele>736</ele>
        <time>2015-07-08T14:00:00.1Z</time>
      </trkpt>
      <trkpt lat="48.09333" lon="7.14269">
        <ele>736</ele>
        <time>2015-07-08T14:00:02.1Z</time>
      </trkpt>
      <trkpt lat="48.09352" lon="7.14264">
        <ele>735</ele>
        <time>2015-07-08T14:00:04.1Z</time>
      </trkpt>
      <trkpt lat="48.0938" lon="7.14265">
        <ele>734</ele>
        <time>2015-07-08T14:00:07.1Z</time>
      </trkpt>
      <trkpt lat="48.09405" lon="7.14267">
        <ele>732</ele>
        <time>2015-07-08T14:00:10.1Z</time>
      </trkpt>
      <trkpt lat="48.09421" lon="7.14268">
        <ele>732</ele>
        <time>2015-07-08T14:00:12.1Z</time>
      </trkpt>
      <trkpt lat="48.09441" lon="7.1428">
        <ele>731</ele>
        <time>2015-07-08T14:00:15.1Z</time>
      </trkpt>
      <trkpt lat="48.0946" lon="7.14278">
        <ele>730</ele>
        <time>2015-07-08T14:00:18.1Z</time>
      </trkpt>
      <trkpt lat="48.09473" lon="7.14273">
        <ele>730</ele>
        <time>2015-07-08T14:00:20.1Z</time>
      </trkpt>
      <trkpt lat="48.09485" lon="7.1427">
        <ele>730</ele>
        <time>2015-07-08T14:00:22.1Z</time>
      </trkpt>
      <trkpt lat="48.09503" lon="7.1427">
        <ele>730</ele>
        <time>2015-07-08T14:00:25.1Z</time>
      </trkpt>
      <trkpt lat="48.09513" lon="7.14274">
        <ele>730</ele>
        <time>2015-07-08T14:00:27.1Z</time>
      </trkpt>
      <trkpt lat="48.09523" lon="7.14278">
        <ele>730</ele>
        <time>2015-07-08T14:00:29.1Z</time>
      </trkpt>
      <trkpt lat="48.09534" lon="7.14283">
        <ele>731</ele>
        <time>2015-07-08T14:00:31.1Z</time>
      </trkpt>
      <trkpt lat="48.09551" lon="7.14289">
        <ele>732</ele>
        <time>2015-07-08T14:00:34.1Z</time>
      </trkpt>
      <trkpt lat="48.09563" lon="7.14293">
        <ele>733</ele>
        <time>2015-07-08T14:00:36.1Z</time>
      </trkpt>
      <trkpt lat="48.09575" lon="7.14299">
        <ele>733</ele>
        <time>2015-07-08T14:00:38.1Z</time>
      </trkpt>
      <trkpt lat="48.09593" lon="7.14305">
        <ele>733</ele>
        <time>2015-07-08T14:00:41.1Z</time>
      </trkpt>
      <trkpt lat="48.09605" lon="7.14308">
        <ele>733</ele>
        <time>2015-07-08T14:00:43.1Z</time>
      </trkpt>
      <trkpt lat="48.09623" lon="7.14311">
        <ele>733</ele>
        <time>2015-07-08T14:00:46.1Z</time>
      </trkpt>
      <trkpt lat="48.09641" lon="7.14315">
        <ele>734</ele>
        <time>2015-07-08T14:00:49.1Z</time>
      </trkpt>
      <trkpt lat="48.09658" lon="7.14319">
        <ele>735</ele>
        <time>2015-07-08T14:00:52.1Z</time>
      </trkpt>
      <trkpt lat="48.09668" lon="7.1432">
        <ele>735</ele>
        <time>2015-07-08T14:00:54.1Z</time>
      </trkpt>
      <trkpt lat="48.09676" lon="7.14322">
        <ele>735</ele>
        <time>2015-07-08T14:00:56.1Z</time>
      </trkpt>
      <trkpt lat="48.0969" lon="7.14327">
        <ele>735</ele>
        <time>2015-07-08T14:00:59.1Z</time>
      </trkpt>
      <trkpt lat="48.09705" lon="7.14331">
        <ele>735</ele>
        <time>2015-07-08T14:01:02.1Z</time>
      </trkpt>
      <trkpt lat="48.09715" lon="7.14335">
        <ele>735</ele>
        <time>2015-07-08T14:01:04.1Z</time>
      </trkpt>
      <trkpt lat="48.09729" lon="7.14341">
        <ele>736</ele>
        <time>2015-07-08T14:01:07.1Z</time>
      </trkpt>
      <trkpt lat="48.09739" lon="7.14346">
        <ele>736</ele>
        <time>2015-07-08T14:01:09.1Z</time>
      </trkpt>
      <trkpt lat="48.09753" lon="7.14352">
        <ele>737</ele>
        <time>2015-07-08T14:01:12.1Z</time>
      </trkpt>
      <trkpt lat="48.09763" lon="7.14356">
        <ele>737</ele>
        <time>2015-07-08T14:01:14.1Z</time>
      </trkpt>
      <trkpt lat="48.09778" lon="7.1436">
        <ele>738</ele>
        <time>2015-07-08T14:01:17.1Z</time>
      </trkpt>
      <trkpt lat="48.09793" lon="7.14362">
        <ele>738</ele>
        <time>2015-07-08T14:01:20.1Z</time>
      </trkpt>
      <trkpt lat="48.09803" lon="7.14363">
        <ele>738</ele>
        <time>2015-07-08T14:01:22.1Z</time>
      </trkpt>
      <trkpt lat="48.09817" lon="7.14366">
        <ele>739</ele>
        <time>2015-07-08T14:01:25.1Z</time>
      </trkpt>
      <trkpt lat="48.09832" lon="7.14372">
        <ele>740</ele>
        <time>2015-07-08T14:01:28.1Z</time>
      </trkpt>
      <trkpt lat="48.09842" lon="7.14377">
        <ele>740</ele>
        <time>2015-07-08T14:01:30.1Z</time>
      </trkpt>
      <trkpt lat="48.09855" lon="7.14387">
        <ele>741</ele>
        <time>2015-07-08T14:01:33.1Z</time>
      </trkpt>
      <trkpt lat="48.09863" lon="7.14393">
        <ele>741</ele>
        <time>2015-07-08T14:01:35.1Z</time>
      </trkpt>
      <trkpt lat="48.09871" lon="7.14398">
        <ele>742</ele>
        <time>2015-07-08T14:01:37.1Z</time>
      </trkpt>
      <trkpt lat="48.09884" lon="7.14408">
        <ele>742</ele>
        <time>2015-07-08T14:01:40.1Z</time>
      </trkpt>
      <trkpt lat="48.09892" lon="7.14416">
        <ele>742</ele>
        <time>2015-07-08T14:01:42.1Z</time>
      </trkpt>
      <trkpt lat="48.09902" lon="7.14428">
        <ele>742</ele>
        <time>2015-07-08T14:01:45.1Z</time>
      </trkpt>
      <trkpt lat="48.09909" lon="7.14437">
        <ele>742</ele>
        <time>2015-07-08T14:01:47.1Z</time>
      </trkpt>
      <trkpt lat="48.0992" lon="7.14454">
        <ele>743</ele>
        <time>2015-07-08T14:01:50.1Z</time>
      </trkpt>
      <trkpt lat="48.09925" lon="7.14467">
        <ele>744</ele>
        <time>2015-07-08T14:01:53.1Z</time>
      </trkpt>
      <trkpt lat="48.09934" lon="7.14486">
        <ele>744</ele>
        <time>2015-07-08T14:01:55.1Z</time>
      </trkpt>
      <trkpt lat="48.09945" lon="7.14504">
        <ele>744</ele>
        <time>2015-07-08T14:01:58.1Z</time>
      </trkpt>
      <trkpt lat="48.09952" lon="7.14515">
        <ele>744</ele>
        <time>2015-07-08T14:02:00.1Z</time>
      </trkpt>
      <trkpt lat="48.09963" lon="7.14533">
        <ele>745</ele>
        <time>2015-07-08T14:02:03.1Z</time>
      </trkpt>
      <trkpt lat="48.09971" lon="7.14543">
        <ele>745</ele>
        <time>2015-07-08T14:02:05.1Z</time>
      </trkpt>
      <trkpt lat="48.09982" lon="7.14558">
        <ele>746</ele>
        <time>2015-07-08T14:02:08.1Z</time>
      </trkpt>
      <trkpt lat="48.09994" lon="7.14573">
        <ele>746</ele>
        <time>2015-07-08T14:02:11.1Z</time>
      </trkpt>
      <trkpt lat="48.10003" lon="7.14583">
        <ele>747</ele>
        <time>2015-07-08T14:02:13.1Z</time>
      </trkpt>
      <trkpt lat="48.10014" lon="7.14597">
        <ele>747</ele>
        <time>2015-07-08T14:02:16.1Z</time>
      </trkpt>
      <trkpt lat="48.1002" lon="7.14608">
        <ele>747</ele>
        <time>2015-07-08T14:02:18.1Z</time>
      </trkpt>
      <trkpt lat="48.10029" lon="7.14624">
        <ele>747</ele>
        <time>2015-07-08T14:02:21.1Z</time>
      </trkpt>
      <trkpt lat="48.10038" lon="7.14641">
        <ele>747</ele>
        <time>2015-07-08T14:02:24.1Z</time>
      </trkpt>
      <trkpt lat="48.10047" lon="7.14657">
        <ele>748</ele>
        <time>2015-07-08T14:02:27.1Z</time>
      </trkpt>
      <trkpt lat="48.10057" lon="7.14673">
        <ele>748</ele>
        <time>2015-07-08T14:02:30.1Z</time>
      </trkpt>
      <trkpt lat="48.10066" lon="7.14687">
        <ele>748</ele>
        <time>2015-07-08T14:02:33.1Z</time>
      </trkpt>
      <trkpt lat="48.10072" lon="7.14697">
        <ele>748</ele>
        <time>2015-07-08T14:02:35.1Z</time>
      </trkpt>
      <trkpt lat="48.10077" lon="7.14706">
        <ele>749</ele>
        <time>2015-07-08T14:02:37.1Z</time>
      </trkpt>
      <trkpt lat="48.10084" lon="7.14718">
        <ele>749</ele>
        <time>2015-07-08T14:02:40.1Z</time>
      </trkpt>
      <trkpt lat="48.10089" lon="7.14727">
        <ele>749</ele>
        <time>2015-07-08T14:02:42.1Z</time>
      </trkpt>
      <trkpt lat="48.10096" lon="7.14737">
        <ele>749</ele>
        <time>2015-07-08T14:02:44.1Z</time>
      </trkpt>
      <trkpt lat="48.10105" lon="7.14753">
        <ele>750</ele>
        <time>2015-07-08T14:02:47.1Z</time>
      </trkpt>
      <trkpt lat="48.10112" lon="7.14764">
        <ele>750</ele>
        <time>2015-07-08T14:02:49.1Z</time>
      </trkpt>
      <trkpt lat="48.1012" lon="7.1478">
        <ele>751</ele>
        <time>2015-07-08T14:02:52.1Z</time>
      </trkpt>
      <trkpt lat="48.10128" lon="7.14798">
        <ele>751</ele>
        <time>2015-07-08T14:02:55.1Z</time>
      </trkpt>
      <trkpt lat="48.10132" lon="7.14811">
        <ele>751</ele>
        <time>2015-07-08T14:02:57.1Z</time>
      </trkpt>
      <trkpt lat="48.10138" lon="7.14831">
        <ele>751</ele>
        <time>2015-07-08T14:03:00.1Z</time>
      </trkpt>
      <trkpt lat="48.10143" lon="7.14843">
        <ele>751</ele>
        <time>2015-07-08T14:03:02.1Z</time>
      </trkpt>
      <trkpt lat="48.10153" lon="7.1486">
        <ele>752</ele>
        <time>2015-07-08T14:03:05.1Z</time>
      </trkpt>
      <trkpt lat="48.10159" lon="7.1487">
        <ele>753</ele>
        <time>2015-07-08T14:03:07.1Z</time>
      </trkpt>
      <trkpt lat="48.1017" lon="7.14884">
        <ele>753</ele>
        <time>2015-07-08T14:03:10.1Z</time>
      </trkpt>
      <trkpt lat="48.1018" lon="7.14897">
        <ele>753</ele>
        <time>2015-07-08T14:03:13.1Z</time>
      </trkpt>
      <trkpt lat="48.10187" lon="7.14907">
        <ele>753</ele>
        <time>2015-07-08T14:03:15.1Z</time>
      </trkpt>
      <trkpt lat="48.10199" lon="7.14923">
        <ele>753</ele>
        <time>2015-07-08T14:03:18.1Z</time>
      </trkpt>
      <trkpt lat="48.10213" lon="7.1494">
        <ele>753</ele>
        <time>2015-07-08T14:03:21.1Z</time>
      </trkpt>
      <trkpt lat="48.10228" lon="7.1496">
        <ele>753</ele>
        <time>2015-07-08T14:03:24.1Z</time>
      </trkpt>
      <trkpt lat="48.10243" lon="7.14983">
        <ele>752</ele>
        <time>2015-07-08T14:03:27.1Z</time>
      </trkpt>
      <trkpt lat="48.10255" lon="7.14998">
        <ele>752</ele>
        <time>2015-07-08T14:03:29.1Z</time>
      </trkpt>
      <trkpt lat="48.10272" lon="7.15019">
        <ele>753</ele>
        <time>2015-07-08T14:03:32.1Z</time>
      </trkpt>
      <trkpt lat="48.10289" lon="7.15039">
        <ele>752</ele>
        <time>2015-07-08T14:03:35.1Z</time>
      </trkpt>
      <trkpt lat="48.10301" lon="7.15051">
        <ele>751</ele>
        <time>2015-07-08T14:03:37.1Z</time>
      </trkpt>
      <trkpt lat="48.10319" lon="7.15069">
        <ele>751</ele>
        <time>2015-07-08T14:03:40.1Z</time>
      </trkpt>
      <trkpt lat="48.10332" lon="7.1508">
        <ele>750</ele>
        <time>2015-07-08T14:03:42.1Z</time>
      </trkpt>
      <trkpt lat="48.10351" lon="7.15098">
        <ele>750</ele>
        <time>2015-07-08T14:03:45.1Z</time>
      </trkpt>
      <trkpt lat="48.10373" lon="7.15115">
        <ele>749</ele>
        <time>2015-07-08T14:03:48.1Z</time>
      </trkpt>
      <trkpt lat="48.10388" lon="7.15127">
        <ele>750</ele>
        <time>2015-07-08T14:03:50.1Z</time>
      </trkpt>
      <trkpt lat="48.1041" lon="7.15143">
        <ele>749</ele>
        <time>2015-07-08T14:03:53.1Z</time>
      </trkpt>
      <trkpt lat="48.10425" lon="7.15154">
        <ele>749</ele>
        <time>2015-07-08T14:03:55.1Z</time>
      </trkpt>
      <trkpt lat="48.10439" lon="7.15163">
        <ele>749</ele>
        <time>2015-07-08T14:03:57.1Z</time>
      </trkpt>
      <trkpt lat="48.1046" lon="7.15176">
        <ele>748</ele>
        <time>2015-07-08T14:04:00.1Z</time>
      </trkpt>
      <trkpt lat="48.10475" lon="7.15184">
        <ele>748</ele>
        <time>2015-07-08T14:04:02.1Z</time>
      </trkpt>
      <trkpt lat="48.10495" lon="7.15195">
        <ele>747</ele>
        <time>2015-07-08T14:04:05.1Z</time>
      </trkpt>
      <trkpt lat="48.10517" lon="7.15206">
        <ele>745</ele>
        <time>2015-07-08T14:04:08.1Z</time>
      </trkpt>
      <trkpt lat="48.10532" lon="7.15211">
        <ele>744</ele>
        <time>2015-07-08T14:04:10.1Z</time>
      </trkpt>
      <trkpt lat="48.10549" lon="7.15214">
        <ele>743</ele>
        <time>2015-07-08T14:04:12.1Z</time>
      </trkpt>
      <trkpt lat="48.10573" lon="7.15217">
        <ele>742</ele>
        <time>2015-07-08T14:04:15.1Z</time>
      </trkpt>
      <trkpt lat="48.10594" lon="7.15221">
        <ele>740</ele>
        <time>2015-07-08T14:04:18.1Z</time>
      </trkpt>
      <trkpt lat="48.1062" lon="7.15225">
        <ele>739</ele>
        <time>2015-07-08T14:04:21.1Z</time>
      </trkpt>
      <trkpt lat="48.10648" lon="7.15228">
        <ele>737</ele>
        <time>2015-07-08T14:04:24.1Z</time>
      </trkpt>
      <trkpt lat="48.10678" lon="7.15237">
        <ele>736</ele>
        <time>2015-07-08T14:04:27.1Z</time>
      </trkpt>
      <trkpt lat="48.10699" lon="7.15246">
        <ele>734</ele>
        <time>2015-07-08T14:04:29.1Z</time>
      </trkpt>
      <trkpt lat="48.1073" lon="7.15263">
        <ele>734</ele>
        <time>2015-07-08T14:04:32.1Z</time>
      </trkpt>
      <trkpt lat="48.10749" lon="7.15277">
        <ele>732</ele>
        <time>2015-07-08T14:04:34.1Z</time>
      </trkpt>
      <trkpt lat="48.1078" lon="7.15298">
        <ele>731</ele>
        <time>2015-07-08T14:04:37.1Z</time>
      </trkpt>
      <trkpt lat="48.10809" lon="7.15324">
        <ele>729</ele>
        <time>2015-07-08T14:04:40.1Z</time>
      </trkpt>
      <trkpt lat="48.10836" lon="7.15351">
        <ele>727</ele>
        <time>2015-07-08T14:04:43.1Z</time>
      </trkpt>
      <trkpt lat="48.10861" lon="7.15381">
        <ele>724</ele>
        <time>2015-07-08T14:04:46.1Z</time>
      </trkpt>
      <trkpt lat="48.10878" lon="7.15408">
        <ele>721</ele>
        <time>2015-07-08T14:04:49.1Z</time>
      </trkpt>
      <trkpt lat="48.10889" lon="7.15426">
        <ele>718</ele>
        <time>2015-07-08T14:04:51.1Z</time>
      </trkpt>
      <trkpt lat="48.10908" lon="7.15451">
        <ele>717</ele>
        <time>2015-07-08T14:04:54.1Z</time>
      </trkpt>
      <trkpt lat="48.10918" lon="7.15471">
        <ele>716</ele>
        <time>2015-07-08T14:04:56.1Z</time>
      </trkpt>
      <trkpt lat="48.10931" lon="7.15499">
        <ele>714</ele>
        <time>2015-07-08T14:04:59.1Z</time>
      </trkpt>
      <trkpt lat="48.10939" lon="7.15517">
        <ele>712</ele>
        <time>2015-07-08T14:05:01.1Z</time>
      </trkpt>
      <trkpt lat="48.1095" lon="7.15544">
        <ele>710</ele>
        <time>2015-07-08T14:05:04.1Z</time>
      </trkpt>
      <trkpt lat="48.1096" lon="7.15572">
        <ele>710</ele>
        <time>2015-07-08T14:05:07.1Z</time>
      </trkpt>
      <trkpt lat="48.10969" lon="7.15602">
        <ele>710</ele>
        <time>2015-07-08T14:05:10.1Z</time>
      </trkpt>
      <trkpt lat="48.10972" lon="7.15632">
        <ele>711</ele>
        <time>2015-07-08T14:05:13.1Z</time>
      </trkpt>
      <trkpt lat="48.10966" lon="7.15661">
        <ele>713</ele>
        <time>2015-07-08T14:05:16.1Z</time>
      </trkpt>
      <trkpt lat="48.10959" lon="7.15677">
        <ele>714</ele>
        <time>2015-07-08T14:05:18.1Z</time>
      </trkpt>
      <trkpt lat="48.10948" lon="7.15697">
        <ele>714</ele>
        <time>2015-07-08T14:05:21.1Z</time>
      </trkpt>
      <trkpt lat="48.10939" lon="7.1571">
        <ele>715</ele>
        <time>2015-07-08T14:05:23.1Z</time>
      </trkpt>
      <trkpt lat="48.10928" lon="7.1573">
        <ele>715</ele>
        <time>2015-07-08T14:05:26.1Z</time>
      </trkpt>
      <trkpt lat="48.10917" lon="7.15748">
        <ele>714</ele>
        <time>2015-07-08T14:05:29.1Z</time>
      </trkpt>
      <trkpt lat="48.10911" lon="7.15758">
        <ele>714</ele>
        <time>2015-07-08T14:05:31.1Z</time>
      </trkpt>
      <trkpt lat="48.109" lon="7.15775">
        <ele>714</ele>
        <time>2015-07-08T14:05:34.1Z</time>
      </trkpt>
      <trkpt lat="48.10889" lon="7.15795">
        <ele>715</ele>
        <time>2015-07-08T14:05:37.1Z</time>
      </trkpt>
      <trkpt lat="48.10878" lon="7.15815">
        <ele>716</ele>
        <time>2015-07-08T14:05:40.1Z</time>
      </trkpt>
      <trkpt lat="48.1087" lon="7.15829">
        <ele>716</ele>
        <time>2015-07-08T14:05:42.1Z</time>
      </trkpt>
      <trkpt lat="48.10863" lon="7.15841">
        <ele>716</ele>
        <time>2015-07-08T14:05:44.1Z</time>
      </trkpt>
      <trkpt lat="48.10854" lon="7.1586">
        <ele>717</ele>
        <time>2015-07-08T14:05:47.1Z</time>
      </trkpt>
      <trkpt lat="48.10847" lon="7.15872">
        <ele>717</ele>
        <time>2015-07-08T14:05:49.1Z</time>
      </trkpt>
      <trkpt lat="48.10838" lon="7.15891">
        <ele>718</ele>
        <time>2015-07-08T14:05:52.1Z</time>
      </trkpt>
      <trkpt lat="48.10831" lon="7.15904">
        <ele>718</ele>
        <time>2015-07-08T14:05:54.1Z</time>
      </trkpt>
      <trkpt lat="48.10822" lon="7.15924">
        <ele>718</ele>
        <time>2015-07-08T14:05:57.1Z</time>
      </trkpt>
      <trkpt lat="48.10815" lon="7.15942">
        <ele>717</ele>
        <time>2015-07-08T14:06:00.1Z</time>
      </trkpt>
      <trkpt lat="48.10809" lon="7.15955">
        <ele>717</ele>
        <time>2015-07-08T14:06:02.1Z</time>
      </trkpt>
      <trkpt lat="48.10799" lon="7.15975">
        <ele>717</ele>
        <time>2015-07-08T14:06:05.1Z</time>
      </trkpt>
      <trkpt lat="48.10789" lon="7.15989">
        <ele>717</ele>
        <time>2015-07-08T14:06:07.1Z</time>
      </trkpt>
      <trkpt lat="48.1078" lon="7.16001">
        <ele>717</ele>
        <time>2015-07-08T14:06:09.1Z</time>
      </trkpt>
      <trkpt lat="48.10765" lon="7.16015">
        <ele>718</ele>
        <time>2015-07-08T14:06:12.1Z</time>
      </trkpt>
      <trkpt lat="48.10749" lon="7.16026">
        <ele>718</ele>
        <time>2015-07-08T14:06:15.1Z</time>
      </trkpt>
      <trkpt lat="48.1073" lon="7.16031">
        <ele>718</ele>
        <time>2015-07-08T14:06:18.1Z</time>
      </trkpt>
      <trkpt lat="48.10718" lon="7.16033">
        <ele>718</ele>
        <time>2015-07-08T14:06:20.1Z</time>
      </trkpt>
      <trkpt lat="48.10699" lon="7.16034">
        <ele>717</ele>
        <time>2015-07-08T14:06:23.1Z</time>
      </trkpt>
      <trkpt lat="48.10685" lon="7.16034">
        <ele>718</ele>
        <time>2015-07-08T14:06:25.1Z</time>
      </trkpt>
      <trkpt lat="48.10666" lon="7.16033">
        <ele>718</ele>
        <time>2015-07-08T14:06:28.1Z</time>
      </trkpt>
      <trkpt lat="48.10646" lon="7.16025">
        <ele>718</ele>
        <time>2015-07-08T14:06:31.1Z</time>
      </trkpt>
      <trkpt lat="48.10632" lon="7.16019">
        <ele>718</ele>
        <time>2015-07-08T14:06:33.1Z</time>
      </trkpt>
      <trkpt lat="48.10613" lon="7.16008">
        <ele>717</ele>
        <time>2015-07-08T14:06:36.1Z</time>
      </trkpt>
      <trkpt lat="48.10597" lon="7.15998">
        <ele>717</ele>
        <time>2015-07-08T14:06:38.1Z</time>
      </trkpt>
      <trkpt lat="48.10573" lon="7.15979">
        <ele>715</ele>
        <time>2015-07-08T14:06:41.1Z</time>
      </trkpt>
      <trkpt lat="48.10554" lon="7.15966">
        <ele>714</ele>
        <time>2015-07-08T14:06:43.1Z</time>
      </trkpt>
      <trkpt lat="48.1053" lon="7.15948">
        <ele>712</ele>
        <time>2015-07-08T14:06:46.1Z</time>
      </trkpt>
      <trkpt lat="48.10514" lon="7.1594">
        <ele>710</ele>
        <time>2015-07-08T14:06:48.1Z</time>
      </trkpt>
      <trkpt lat="48.10492" lon="7.15917">
        <ele>709</ele>
        <time>2015-07-08T14:06:51.1Z</time>
      </trkpt>
      <trkpt lat="48.10476" lon="7.159">
        <ele>708</ele>
        <time>2015-07-08T14:06:53.1Z</time>
      </trkpt>
      <trkpt lat="48.10452" lon="7.15875">
        <ele>707</ele>
        <time>2015-07-08T14:06:56.1Z</time>
      </trkpt>
      <trkpt lat="48.10427" lon="7.15854">
        <ele>707</ele>
        <time>2015-07-08T14:06:59.1Z</time>
      </trkpt>
      <trkpt lat="48.10412" lon="7.15842">
        <ele>707</ele>
        <time>2015-07-08T14:07:01.1Z</time>
      </trkpt>
      <trkpt lat="48.10391" lon="7.15826">
        <ele>707</ele>
        <time>2015-07-08T14:07:04.1Z</time>
      </trkpt>
      <trkpt lat="48.10375" lon="7.15814">
        <ele>706</ele>
        <time>2015-07-08T14:07:07.1Z</time>
      </trkpt>
      <trkpt lat="48.10365" lon="7.15807">
        <ele>705</ele>
        <time>2015-07-08T14:07:09.1Z</time>
      </trkpt>
      <trkpt lat="48.10351" lon="7.15796">
        <ele>705</ele>
        <time>2015-07-08T14:07:12.1Z</time>
      </trkpt>
      <trkpt lat="48.10342" lon="7.15789">
        <ele>705</ele>
        <time>2015-07-08T14:07:14.1Z</time>
      </trkpt>
      <trkpt lat="48.10331" lon="7.1578">
        <ele>706</ele>
        <time>2015-07-08T14:07:17.1Z</time>
      </trkpt>
      <trkpt lat="48.1032" lon="7.15772">
        <ele>706</ele>
        <time>2015-07-08T14:07:20.1Z</time>
      </trkpt>
      <trkpt lat="48.10312" lon="7.15767">
        <ele>706</ele>
        <time>2015-07-08T14:07:22.1Z</time>
      </trkpt>
      <trkpt lat="48.10299" lon="7.15759">
        <ele>708</ele>
        <time>2015-07-08T14:07:25.1Z</time>
      </trkpt>
      <trkpt lat="48.10291" lon="7.15755">
        <ele>708</ele>
        <time>2015-07-08T14:07:27.1Z</time>
      </trkpt>
      <trkpt lat="48.10278" lon="7.15749">
        <ele>708</ele>
        <time>2015-07-08T14:07:30.1Z</time>
      </trkpt>
      <trkpt lat="48.1027" lon="7.15743">
        <ele>709</ele>
        <time>2015-07-08T14:07:32.1Z</time>
      </trkpt>
      <trkpt lat="48.10258" lon="7.15735">
        <ele>709</ele>
        <time>2015-07-08T14:07:35.1Z</time>
      </trkpt>
      <trkpt lat="48.1025" lon="7.15729">
        <ele>709</ele>
        <time>2015-07-08T14:07:37.1Z</time>
      </trkpt>
      <trkpt lat="48.10242" lon="7.15724">
        <ele>710</ele>
        <time>2015-07-08T14:07:39.1Z</time>
      </trkpt>
      <trkpt lat="48.10237" lon="7.15721">
        <ele>710</ele>
        <time>2015-07-08T14:07:41.1Z</time>
      </trkpt>
      <trkpt lat="48.10229" lon="7.15716">
        <ele>711</ele>
        <time>2015-07-08T14:07:44.1Z</time>
      </trkpt>
      <trkpt lat="48.1022" lon="7.15712">
        <ele>712</ele>
        <time>2015-07-08T14:07:47.1Z</time>
      </trkpt>
      <trkpt lat="48.1021" lon="7.15709">
        <ele>713</ele>
        <time>2015-07-08T14:07:50.1Z</time>
      </trkpt>
      <trkpt lat="48.10204" lon="7.15708">
        <ele>713</ele>
        <time>2015-07-08T14:07:52.1Z</time>
      </trkpt>
      <trkpt lat="48.10196" lon="7.15708">
        <ele>713</ele>
        <time>2015-07-08T14:07:54.1Z</time>
      </trkpt>
      <trkpt lat="48.10182" lon="7.15709">
        <ele>714</ele>
        <time>2015-07-08T14:07:57.1Z</time>
      </trkpt>
      <trkpt lat="48.10172" lon="7.15709">
        <ele>714</ele>
        <time>2015-07-08T14:07:59.1Z</time>
      </trkpt>
      <trkpt lat="48.10163" lon="7.15707">
        <ele>714</ele>
        <time>2015-07-08T14:08:01.1Z</time>
      </trkpt>
      <trkpt lat="48.1015" lon="7.15704">
        <ele>714</ele>
        <time>2015-07-08T14:08:04.1Z</time>
      </trkpt>
      <trkpt lat="48.10142" lon="7.15701">
        <ele>714</ele>
        <time>2015-07-08T14:08:06.1Z</time>
      </trkpt>
      <trkpt lat="48.10133" lon="7.15696">
        <ele>715</ele>
        <time>2015-07-08T14:08:09.1Z</time>
      </trkpt>
      <trkpt lat="48.10124" lon="7.1569">
        <ele>716</ele>
        <time>2015-07-08T14:08:12.1Z</time>
      </trkpt>
      <trkpt lat="48.10115" lon="7.15684">
        <ele>718</ele>
        <time>2015-07-08T14:08:15.1Z</time>
      </trkpt>
      <trkpt lat="48.1011" lon="7.1568">
        <ele>719</ele>
        <time>2015-07-08T14:08:17.1Z</time>
      </trkpt>
      <trkpt lat="48.10102" lon="7.15674">
        <ele>720</ele>
        <time>2015-07-08T14:08:20.1Z</time>
      </trkpt>
      <trkpt lat="48.10096" lon="7.15671">
        <ele>721</ele>
        <time>2015-07-08T14:08:23.1Z</time>
      </trkpt>
      <trkpt lat="48.10089" lon="7.15668">
        <ele>722</ele>
        <time>2015-07-08T14:08:26.1Z</time>
      </trkpt>
      <trkpt lat="48.10084" lon="7.15666">
        <ele>722</ele>
        <time>2015-07-08T14:08:28.1Z</time>
      </trkpt>
      <trkpt lat="48.10075" lon="7.15663">
        <ele>723</ele>
        <time>2015-07-08T14:08:31.1Z</time>
      </trkpt>
      <trkpt lat="48.10066" lon="7.1566">
        <ele>724</ele>
        <time>2015-07-08T14:08:34.1Z</time>
      </trkpt>
      <trkpt lat="48.10059" lon="7.15658">
        <ele>724</ele>
        <time>2015-07-08T14:08:36.1Z</time>
      </trkpt>
      <trkpt lat="48.1005" lon="7.15654">
        <ele>725</ele>
        <time>2015-07-08T14:08:39.1Z</time>
      </trkpt>
      <trkpt lat="48.10041" lon="7.1565">
        <ele>726</ele>
        <time>2015-07-08T14:08:42.1Z</time>
      </trkpt>
      <trkpt lat="48.10035" lon="7.15647">
        <ele>727</ele>
        <time>2015-07-08T14:08:44.1Z</time>
      </trkpt>
      <trkpt lat="48.10026" lon="7.15644">
        <ele>727</ele>
        <time>2015-07-08T14:08:47.1Z</time>
      </trkpt>
      <trkpt lat="48.10018" lon="7.1564">
        <ele>728</ele>
        <time>2015-07-08T14:08:50.1Z</time>
      </trkpt>
      <trkpt lat="48.10013" lon="7.15638">
        <ele>729</ele>
        <time>2015-07-08T14:08:52.1Z</time>
      </trkpt>
      <trkpt lat="48.10007" lon="7.15637">
        <ele>730</ele>
        <time>2015-07-08T14:08:54.1Z</time>
      </trkpt>
      <trkpt lat="48.09999" lon="7.15636">
        <ele>731</ele>
        <time>2015-07-08T14:08:57.1Z</time>
      </trkpt>
      <trkpt lat="48.09993" lon="7.15634">
        <ele>731</ele>
        <time>2015-07-08T14:08:59.1Z</time>
      </trkpt>
      <trkpt lat="48.09987" lon="7.15631">
        <ele>732</ele>
        <time>2015-07-08T14:09:01.1Z</time>
      </trkpt>
      <trkpt lat="48.09981" lon="7.15627">
        <ele>732</ele>
        <time>2015-07-08T14:09:04.1Z</time>
      </trkpt>
      <trkpt lat="48.09977" lon="7.15623">
        <ele>733</ele>
        <time>2015-07-08T14:09:06.1Z</time>
      </trkpt>
      <trkpt lat="48.0997" lon="7.15619">
        <ele>733</ele>
        <time>2015-07-08T14:09:09.1Z</time>
      </trkpt>
      <trkpt lat="48.09963" lon="7.15616">
        <ele>735</ele>
        <time>2015-07-08T14:09:12.1Z</time>
      </trkpt>
      <trkpt lat="48.09959" lon="7.15614">
        <ele>735</ele>
        <time>2015-07-08T14:09:14.1Z</time>
      </trkpt>
      <trkpt lat="48.09955" lon="7.15614">
        <ele>736</ele>
        <time>2015-07-08T14:09:16.1Z</time>
      </trkpt>
      <trkpt lat="48.09949" lon="7.15611">
        <ele>736</ele>
        <time>2015-07-08T14:09:18.1Z</time>
      </trkpt>
      <trkpt lat="48.09937" lon="7.15606">
        <ele>736</ele>
        <time>2015-07-08T14:09:21.1Z</time>
      </trkpt>
      <trkpt lat="48.09928" lon="7.15602">
        <ele>736</ele>
        <time>2015-07-08T14:09:23.1Z</time>
      </trkpt>
      <trkpt lat="48.09918" lon="7.15601">
        <ele>736</ele>
        <time>2015-07-08T14:09:25.1Z</time>
      </trkpt>
      <trkpt lat="48.09904" lon="7.15598">
        <ele>736</ele>
        <time>2015-07-08T14:09:28.1Z</time>
      </trkpt>
      <trkpt lat="48.09895" lon="7.15595">
        <ele>736</ele>
        <time>2015-07-08T14:09:30.1Z</time>
      </trkpt>
      <trkpt lat="48.09879" lon="7.15589">
        <ele>737</ele>
        <time>2015-07-08T14:09:33.1Z</time>
      </trkpt>
      <trkpt lat="48.09867" lon="7.15586">
        <ele>737</ele>
        <time>2015-07-08T14:09:35.1Z</time>
      </trkpt>
      <trkpt lat="48.09854" lon="7.15584">
        <ele>737</ele>
        <time>2015-07-08T14:09:38.1Z</time>
      </trkpt>
      <trkpt lat="48.09846" lon="7.15585">
        <ele>738</ele>
        <time>2015-07-08T14:09:40.1Z</time>
      </trkpt>
      <trkpt lat="48.09838" lon="7.15583">
        <ele>738</ele>
        <time>2015-07-08T14:09:42.1Z</time>
      </trkpt>
      <trkpt lat="48.09826" lon="7.1558">
        <ele>738</ele>
        <time>2015-07-08T14:09:45.1Z</time>
      </trkpt>
      <trkpt lat="48.09818" lon="7.15577">
        <ele>739</ele>
        <time>2015-07-08T14:09:47.1Z</time>
      </trkpt>
      <trkpt lat="48.09809" lon="7.15574">
        <ele>739</ele>
        <time>2015-07-08T14:09:49.1Z</time>
      </trkpt>
      <trkpt lat="48.09801" lon="7.15569">
        <ele>739</ele>
        <time>2015-07-08T14:09:51.1Z</time>
      </trkpt>
      <trkpt lat="48.09794" lon="7.15565">
        <ele>739</ele>
        <time>2015-07-08T14:09:53.1Z</time>
      </trkpt>
      <trkpt lat="48.09781" lon="7.15557">
        <ele>740</ele>
        <time>2015-07-08T14:09:56.1Z</time>
      </trkpt>
      <trkpt lat="48.09766" lon="7.15547">
        <ele>741</ele>
        <time>2015-07-08T14:09:59.1Z</time>
      </trkpt>
      <trkpt lat="48.09756" lon="7.15542">
        <ele>741</ele>
        <time>2015-07-08T14:10:01.1Z</time>
      </trkpt>
      <trkpt lat="48.09743" lon="7.15534">
        <ele>742</ele>
        <time>2015-07-08T14:10:04.1Z</time>
      </trkpt>
      <trkpt lat="48.09731" lon="7.15525">
        <ele>743</ele>
        <time>2015-07-08T14:10:07.1Z</time>
      </trkpt>
      <trkpt lat="48.09725" lon="7.1552">
        <ele>744</ele>
        <time>2015-07-08T14:10:09.1Z</time>
      </trkpt>
      <trkpt lat="48.09718" lon="7.15517">
        <ele>745</ele>
        <time>2015-07-08T14:10:11.1Z</time>
      </trkpt>
      <trkpt lat="48.09711" lon="7.15513">
        <ele>745</ele>
        <time>2015-07-08T14:10:13.1Z</time>
      </trkpt>
      <trkpt lat="48.09703" lon="7.1551">
        <ele>746</ele>
        <time>2015-07-08T14:10:15.1Z</time>
      </trkpt>
      <trkpt lat="48.09691" lon="7.15504">
        <ele>746</ele>
        <time>2015-07-08T14:10:18.1Z</time>
      </trkpt>
      <trkpt lat="48.09684" lon="7.15501">
        <ele>747</ele>
        <time>2015-07-08T14:10:20.1Z</time>
      </trkpt>
      <trkpt lat="48.09672" lon="7.15495">
        <ele>747</ele>
        <time>2015-07-08T14:10:23.1Z</time>
      </trkpt>
      <trkpt lat="48.09664" lon="7.15489">
        <ele>747</ele>
        <time>2015-07-08T14:10:25.1Z</time>
      </trkpt>
      <trkpt lat="48.09651" lon="7.15484">
        <ele>747</ele>
        <time>2015-07-08T14:10:28.1Z</time>
      </trkpt>
      <trkpt lat="48.09637" lon="7.15476">
        <ele>748</ele>
        <time>2015-07-08T14:10:31.1Z</time>
      </trkpt>
      <trkpt lat="48.09629" lon="7.15472">
        <ele>747</ele>
        <time>2015-07-08T14:10:33.1Z</time>
      </trkpt>
      <trkpt lat="48.09615" lon="7.15465">
        <ele>747</ele>
        <time>2015-07-08T14:10:36.1Z</time>
      </trkpt>
      <trkpt lat="48.09604" lon="7.1546">
        <ele>747</ele>
        <time>2015-07-08T14:10:38.1Z</time>
      </trkpt>
      <trkpt lat="48.09586" lon="7.15455">
        <ele>747</ele>
        <time>2015-07-08T14:10:41.1Z</time>
      </trkpt>
      <trkpt lat="48.09574" lon="7.15452">
        <ele>747</ele>
        <time>2015-07-08T14:10:43.1Z</time>
      </trkpt>
      <trkpt lat="48.09555" lon="7.15447">
        <ele>747</ele>
        <time>2015-07-08T14:10:46.1Z</time>
      </trkpt>
      <trkpt lat="48.0954" lon="7.15442">
        <ele>746</ele>
        <time>2015-07-08T14:10:48.1Z</time>
      </trkpt>
      <trkpt lat="48.0952" lon="7.15436">
        <ele>746</ele>
        <time>2015-07-08T14:10:51.1Z</time>
      </trkpt>
      <trkpt lat="48.095" lon="7.1543">
        <ele>746</ele>
        <time>2015-07-08T14:10:54.1Z</time>
      </trkpt>
      <trkpt lat="48.09488" lon="7.15433">
        <ele>745</ele>
        <time>2015-07-08T14:10:56.1Z</time>
      </trkpt>
      <trkpt lat="48.09475" lon="7.15437">
        <ele>745</ele>
        <time>2015-07-08T14:10:58.1Z</time>
      </trkpt>
      <trkpt lat="48.09463" lon="7.15441">
        <ele>745</ele>
        <time>2015-07-08T14:11:00.1Z</time>
      </trkpt>
      <trkpt lat="48.09447" lon="7.15443">
        <ele>744</ele>
        <time>2015-07-08T14:11:03.1Z</time>
      </trkpt>
      <trkpt lat="48.09429" lon="7.15442">
        <ele>744</ele>
        <time>2015-07-08T14:11:06.1Z</time>
      </trkpt>
      <trkpt lat="48.09416" lon="7.15446">
        <ele>745</ele>
        <time>2015-07-08T14:11:08.1Z</time>
      </trkpt>
      <trkpt lat="48.09404" lon="7.15453">
        <ele>745</ele>
        <time>2015-07-08T14:11:10.1Z</time>
      </trkpt>
      <trkpt lat="48.09389" lon="7.15458">
        <ele>745</ele>
        <time>2015-07-08T14:11:13.1Z</time>
      </trkpt>
      <trkpt lat="48.09377" lon="7.15465">
        <ele>744</ele>
        <time>2015-07-08T14:11:16.1Z</time>
      </trkpt>
      <trkpt lat="48.09364" lon="7.15469">
        <ele>744</ele>
        <time>2015-07-08T14:11:19.1Z</time>
      </trkpt>
      <trkpt lat="48.09357" lon="7.15472">
        <ele>744</ele>
        <time>2015-07-08T14:11:21.1Z</time>
      </trkpt>
      <trkpt lat="48.09351" lon="7.15473">
        <ele>745</ele>
        <time>2015-07-08T14:11:23.1Z</time>
      </trkpt>
      <trkpt lat="48.09341" lon="7.15477">
        <ele>744</ele>
        <time>2015-07-08T14:11:26.1Z</time>
      </trkpt>
      <trkpt lat="48.0933" lon="7.15479">
        <ele>745</ele>
        <time>2015-07-08T14:11:29.1Z</time>
      </trkpt>
      <trkpt lat="48.09324" lon="7.15481">
        <ele>746</ele>
        <time>2015-07-08T14:11:31.1Z</time>
      </trkpt>
      <trkpt lat="48.09316" lon="7.15483">
        <ele>748</ele>
        <time>2015-07-08T14:11:34.1Z</time>
      </trkpt>
      <trkpt lat="48.0931" lon="7.15484">
        <ele>748</ele>
        <time>2015-07-08T14:11:36.1Z</time>
      </trkpt>
      <trkpt lat="48.09302" lon="7.15486">
        <ele>748</ele>
        <time>2015-07-08T14:11:38.1Z</time>
      </trkpt>
      <trkpt lat="48.09294" lon="7.15486">
        <ele>749</ele>
        <time>2015-07-08T14:11:40.1Z</time>
      </trkpt>
      <trkpt lat="48.09285" lon="7.15486">
        <ele>750</ele>
        <time>2015-07-08T14:11:43.1Z</time>
      </trkpt>
      <trkpt lat="48.09278" lon="7.15487">
        <ele>751</ele>
        <time>2015-07-08T14:11:45.1Z</time>
      </trkpt>
      <trkpt lat="48.09267" lon="7.15489">
        <ele>752</ele>
        <time>2015-07-08T14:11:48.1Z</time>
      </trkpt>
      <trkpt lat="48.09261" lon="7.15489">
        <ele>753</ele>
        <time>2015-07-08T14:11:50.1Z</time>
      </trkpt>
      <trkpt lat="48.09252" lon="7.15492">
        <ele>754</ele>
        <time>2015-07-08T14:11:53.1Z</time>
      </trkpt>
      <trkpt lat="48.09243" lon="7.15494">
        <ele>754</ele>
        <time>2015-07-08T14:11:56.1Z</time>
      </trkpt>
      <trkpt lat="48.09237" lon="7.15495">
        <ele>755</ele>
        <time>2015-07-08T14:11:58.1Z</time>
      </trkpt>
      <trkpt lat="48.09222" lon="7.15498">
        <ele>755</ele>
        <time>2015-07-08T14:12:00.1Z</time>
      </trkpt>
      <trkpt lat="48.09218" lon="7.15499">
        <ele>755</ele>
        <time>2015-07-08T14:12:02.1Z</time>
      </trkpt>
      <trkpt lat="48.09214" lon="7.15501">
        <ele>755</ele>
        <time>2015-07-08T14:12:04.1Z</time>
      </trkpt>
      <trkpt lat="48.09209" lon="7.15503">
        <ele>755</ele>
        <time>2015-07-08T14:12:06.1Z</time>
      </trkpt>
      <trkpt lat="48.09204" lon="7.15503">
        <ele>755</ele>
        <time>2015-07-08T14:12:09.1Z</time>
      </trkpt>
      <trkpt lat="48.09197" lon="7.15505">
        <ele>756</ele>
        <time>2015-07-08T14:12:11.1Z</time>
      </trkpt>
      <trkpt lat="48.0919" lon="7.15507">
        <ele>756</ele>
        <time>2015-07-08T14:12:14.1Z</time>
      </trkpt>
      <trkpt lat="48.09185" lon="7.15508">
        <ele>756</ele>
        <time>2015-07-08T14:12:16.1Z</time>
      </trkpt>
      <trkpt lat="48.09176" lon="7.15509">
        <ele>756</ele>
        <time>2015-07-08T14:12:19.1Z</time>
      </trkpt>
      <trkpt lat="48.09169" lon="7.15514">
        <ele>756</ele>
        <time>2015-07-08T14:12:21.1Z</time>
      </trkpt>
      <trkpt lat="48.0916" lon="7.15522">
        <ele>756</ele>
        <time>2015-07-08T14:12:23.1Z</time>
      </trkpt>
      <trkpt lat="48.09151" lon="7.1553">
        <ele>757</ele>
        <time>2015-07-08T14:12:25.1Z</time>
      </trkpt>
      <trkpt lat="48.09136" lon="7.15542">
        <ele>757</ele>
        <time>2015-07-08T14:12:28.1Z</time>
      </trkpt>
      <trkpt lat="48.09127" lon="7.15548">
        <ele>757</ele>
        <time>2015-07-08T14:12:30.1Z</time>
      </trkpt>
      <trkpt lat="48.09116" lon="7.15556">
        <ele>757</ele>
        <time>2015-07-08T14:12:32.1Z</time>
      </trkpt>
      <trkpt lat="48.09106" lon="7.15565">
        <ele>757</ele>
        <time>2015-07-08T14:12:34.1Z</time>
      </trkpt>
      <trkpt lat="48.09096" lon="7.15575">
        <ele>757</ele>
        <time>2015-07-08T14:12:36.1Z</time>
      </trkpt>
      <trkpt lat="48.09086" lon="7.15587">
        <ele>757</ele>
        <time>2015-07-08T14:12:39.1Z</time>
      </trkpt>
      <trkpt lat="48.0907" lon="7.15607">
        <ele>757</ele>
        <time>2015-07-08T14:12:41.1Z</time>
      </trkpt>
      <trkpt lat="48.09059" lon="7.15621">
        <ele>757</ele>
        <time>2015-07-08T14:12:43.1Z</time>
      </trkpt>
      <trkpt lat="48.09048" lon="7.15634">
        <ele>757</ele>
        <time>2015-07-08T14:12:45.1Z</time>
      </trkpt>
      <trkpt lat="48.09037" lon="7.15647">
        <ele>758</ele>
        <time>2015-07-08T14:12:47.1Z</time>
      </trkpt>
      <trkpt lat="48.09025" lon="7.15658">
        <ele>758</ele>
        <time>2015-07-08T14:12:49.1Z</time>
      </trkpt>
      <trkpt lat="48.09013" lon="7.15667">
        <ele>758</ele>
        <time>2015-07-08T14:12:51.1Z</time>
      </trkpt>
      <trkpt lat="48.08997" lon="7.15681">
        <ele>758</ele>
        <time>2015-07-08T14:12:54.1Z</time>
      </trkpt>
      <trkpt lat="48.08987" lon="7.1569">
        <ele>757</ele>
        <time>2015-07-08T14:12:56.1Z</time>
      </trkpt>
      <trkpt lat="48.08977" lon="7.15699">
        <ele>757</ele>
        <time>2015-07-08T14:12:59.1Z</time>
      </trkpt>
      <trkpt lat="48.08968" lon="7.15709">
        <ele>757</ele>
        <time>2015-07-08T14:13:01.1Z</time>
      </trkpt>
      <trkpt lat="48.08953" lon="7.15722">
        <ele>757</ele>
        <time>2015-07-08T14:13:03.1Z</time>
      </trkpt>
      <trkpt lat="48.08944" lon="7.1573">
        <ele>757</ele>
        <time>2015-07-08T14:13:05.1Z</time>
      </trkpt>
      <trkpt lat="48.08934" lon="7.15736">
        <ele>756</ele>
        <time>2015-07-08T14:13:07.1Z</time>
      </trkpt>
      <trkpt lat="48.08928" lon="7.15743">
        <ele>756</ele>
        <time>2015-07-08T14:13:09.1Z</time>
      </trkpt>
      <trkpt lat="48.08929" lon="7.15759">
        <ele>755</ele>
        <time>2015-07-08T14:13:12.1Z</time>
      </trkpt>
      <trkpt lat="48.08937" lon="7.15766">
        <ele>755</ele>
        <time>2015-07-08T14:13:14.1Z</time>
      </trkpt>
      <trkpt lat="48.08955" lon="7.15756">
        <ele>754</ele>
        <time>2015-07-08T14:13:17.1Z</time>
      </trkpt>
      <trkpt lat="48.08967" lon="7.1575">
        <ele>754</ele>
        <time>2015-07-08T14:13:19.1Z</time>
      </trkpt>
      <trkpt lat="48.08981" lon="7.15756">
        <ele>753</ele>
        <time>2015-07-08T14:13:21.1Z</time>
      </trkpt>
      <trkpt lat="48.08997" lon="7.15765">
        <ele>752</ele>
        <time>2015-07-08T14:13:23.1Z</time>
      </trkpt>
      <trkpt lat="48.09015" lon="7.15773">
        <ele>752</ele>
        <time>2015-07-08T14:13:26.1Z</time>
      </trkpt>
      <trkpt lat="48.09032" lon="7.15784">
        <ele>750</ele>
        <time>2015-07-08T14:13:28.1Z</time>
      </trkpt>
      <trkpt lat="48.09051" lon="7.158">
        <ele>748</ele>
        <time>2015-07-08T14:13:30.1Z</time>
      </trkpt>
      <trkpt lat="48.09064" lon="7.1581">
        <ele>743</ele>
        <time>2015-07-08T14:13:33.1Z</time>
      </trkpt>
      <trkpt lat="48.0907" lon="7.15817">
        <ele>741</ele>
        <time>2015-07-08T14:13:35.1Z</time>
      </trkpt>
      <trkpt lat="48.09077" lon="7.15824">
        <ele>740</ele>
        <time>2015-07-08T14:13:37.1Z</time>
      </trkpt>
      <trkpt lat="48.09083" lon="7.15831">
        <ele>740</ele>
        <time>2015-07-08T14:13:39.1Z</time>
      </trkpt>
      <trkpt lat="48.09091" lon="7.15837">
        <ele>741</ele>
        <time>2015-07-08T14:13:41.1Z</time>
      </trkpt>
      <trkpt lat="48.09099" lon="7.15844">
        <ele>742</ele>
        <time>2015-07-08T14:13:43.1Z</time>
      </trkpt>
      <trkpt lat="48.09106" lon="7.15851">
        <ele>744</ele>
        <time>2015-07-08T14:13:45.1Z</time>
      </trkpt>
      <trkpt lat="48.09112" lon="7.15856">
        <ele>745</ele>
        <time>2015-07-08T14:13:47.1Z</time>
      </trkpt>
      <trkpt lat="48.0912" lon="7.15861">
        <ele>745</ele>
        <time>2015-07-08T14:13:50.1Z</time>
      </trkpt>
      <trkpt lat="48.09126" lon="7.15866">
        <ele>746</ele>
        <time>2015-07-08T14:13:52.1Z</time>
      </trkpt>
      <trkpt lat="48.09135" lon="7.15874">
        <ele>746</ele>
        <time>2015-07-08T14:13:54.1Z</time>
      </trkpt>
      <trkpt lat="48.09146" lon="7.15882">
        <ele>747</ele>
        <time>2015-07-08T14:13:57.1Z</time>
      </trkpt>
      <trkpt lat="48.09153" lon="7.15886">
        <ele>748</ele>
        <time>2015-07-08T14:13:59.1Z</time>
      </trkpt>
      <trkpt lat="48.09161" lon="7.15891">
        <ele>748</ele>
        <time>2015-07-08T14:14:01.1Z</time>
      </trkpt>
      <trkpt lat="48.09169" lon="7.15895">
        <ele>749</ele>
        <time>2015-07-08T14:14:03.1Z</time>
      </trkpt>
      <trkpt lat="48.09176" lon="7.159">
        <ele>749</ele>
        <time>2015-07-08T14:14:05.1Z</time>
      </trkpt>
      <trkpt lat="48.09184" lon="7.15904">
        <ele>750</ele>
        <time>2015-07-08T14:14:07.1Z</time>
      </trkpt>
      <trkpt lat="48.09192" lon="7.15908">
        <ele>750</ele>
        <time>2015-07-08T14:14:09.1Z</time>
      </trkpt>
      <trkpt lat="48.09203" lon="7.15918">
        <ele>751</ele>
        <time>2015-07-08T14:14:13.1Z</time>
      </trkpt>
      <trkpt lat="48.09211" lon="7.15923">
        <ele>751</ele>
        <time>2015-07-08T14:14:15.1Z</time>
      </trkpt>
      <trkpt lat="48.09223" lon="7.15932">
        <ele>751</ele>
        <time>2015-07-08T14:14:17.1Z</time>
      </trkpt>
      <trkpt lat="48.09231" lon="7.15939">
        <ele>752</ele>
        <time>2015-07-08T14:14:19.1Z</time>
      </trkpt>
      <trkpt lat="48.09238" lon="7.15946">
        <ele>752</ele>
        <time>2015-07-08T14:14:21.1Z</time>
      </trkpt>
      <trkpt lat="48.09246" lon="7.15953">
        <ele>752</ele>
        <time>2015-07-08T14:14:23.1Z</time>
      </trkpt>
      <trkpt lat="48.09255" lon="7.15961">
        <ele>752</ele>
        <time>2015-07-08T14:14:25.1Z</time>
      </trkpt>
      <trkpt lat="48.09263" lon="7.15968">
        <ele>752</ele>
        <time>2015-07-08T14:14:27.1Z</time>
      </trkpt>
      <trkpt lat="48.09273" lon="7.15976">
        <ele>752</ele>
        <time>2015-07-08T14:14:29.1Z</time>
      </trkpt>
      <trkpt lat="48.09282" lon="7.15984">
        <ele>752</ele>
        <time>2015-07-08T14:14:31.1Z</time>
      </trkpt>
      <trkpt lat="48.09292" lon="7.15994">
        <ele>752</ele>
        <time>2015-07-08T14:14:33.1Z</time>
      </trkpt>
      <trkpt lat="48.09306" lon="7.16008">
        <ele>753</ele>
        <time>2015-07-08T14:14:36.1Z</time>
      </trkpt>
      <trkpt lat="48.09316" lon="7.16019">
        <ele>753</ele>
        <time>2015-07-08T14:14:38.1Z</time>
      </trkpt>
      <trkpt lat="48.09326" lon="7.16031">
        <ele>753</ele>
        <time>2015-07-08T14:14:41.1Z</time>
      </trkpt>
      <trkpt lat="48.09336" lon="7.16043">
        <ele>753</ele>
        <time>2015-07-08T14:14:43.1Z</time>
      </trkpt>
      <trkpt lat="48.0935" lon="7.16061">
        <ele>753</ele>
        <time>2015-07-08T14:14:45.1Z</time>
      </trkpt>
      <trkpt lat="48.09361" lon="7.16075">
        <ele>752</ele>
        <time>2015-07-08T14:14:47.1Z</time>
      </trkpt>
      <trkpt lat="48.09371" lon="7.1609">
        <ele>752</ele>
        <time>2015-07-08T14:14:49.1Z</time>
      </trkpt>
      <trkpt lat="48.09381" lon="7.16106">
        <ele>753</ele>
        <time>2015-07-08T14:14:51.1Z</time>
      </trkpt>
      <trkpt lat="48.09391" lon="7.16122">
        <ele>753</ele>
        <time>2015-07-08T14:14:53.1Z</time>
      </trkpt>
      <trkpt lat="48.09401" lon="7.1614">
        <ele>754</ele>
        <time>2015-07-08T14:14:55.1Z</time>
      </trkpt>
      <trkpt lat="48.09416" lon="7.16164">
        <ele>753</ele>
        <time>2015-07-08T14:14:58.1Z</time>
      </trkpt>
      <trkpt lat="48.09426" lon="7.1618">
        <ele>753</ele>
        <time>2015-07-08T14:15:00.1Z</time>
      </trkpt>
      <trkpt lat="48.09435" lon="7.16195">
        <ele>753</ele>
        <time>2015-07-08T14:15:02.1Z</time>
      </trkpt>
      <trkpt lat="48.09447" lon="7.1622">
        <ele>753</ele>
        <time>2015-07-08T14:15:06.1Z</time>
      </trkpt>
      <trkpt lat="48.09456" lon="7.16237">
        <ele>753</ele>
        <time>2015-07-08T14:15:08.1Z</time>
      </trkpt>
      <trkpt lat="48.09471" lon="7.1626">
        <ele>753</ele>
        <time>2015-07-08T14:15:10.1Z</time>
      </trkpt>
      <trkpt lat="48.09479" lon="7.16274">
        <ele>752</ele>
        <time>2015-07-08T14:15:12.1Z</time>
      </trkpt>
      <trkpt lat="48.09488" lon="7.16298">
        <ele>752</ele>
        <time>2015-07-08T14:15:15.1Z</time>
      </trkpt>
      <trkpt lat="48.09496" lon="7.16313">
        <ele>750</ele>
        <time>2015-07-08T14:15:17.1Z</time>
      </trkpt>
      <trkpt lat="48.09504" lon="7.16328">
        <ele>750</ele>
        <time>2015-07-08T14:15:19.1Z</time>
      </trkpt>
      <trkpt lat="48.09519" lon="7.16348">
        <ele>748</ele>
        <time>2015-07-08T14:15:22.1Z</time>
      </trkpt>
      <trkpt lat="48.09529" lon="7.16363">
        <ele>748</ele>
        <time>2015-07-08T14:15:24.1Z</time>
      </trkpt>
      <trkpt lat="48.09538" lon="7.1638">
        <ele>747</ele>
        <time>2015-07-08T14:15:26.1Z</time>
      </trkpt>
      <trkpt lat="48.09546" lon="7.16398">
        <ele>746</ele>
        <time>2015-07-08T14:15:29.1Z</time>
      </trkpt>
      <trkpt lat="48.09557" lon="7.16425">
        <ele>747</ele>
        <time>2015-07-08T14:15:31.1Z</time>
      </trkpt>
      <trkpt lat="48.09562" lon="7.16443">
        <ele>748</ele>
        <time>2015-07-08T14:15:33.1Z</time>
      </trkpt>
      <trkpt lat="48.09568" lon="7.16468">
        <ele>749</ele>
        <time>2015-07-08T14:15:36.1Z</time>
      </trkpt>
      <trkpt lat="48.09573" lon="7.16483">
        <ele>750</ele>
        <time>2015-07-08T14:15:38.1Z</time>
      </trkpt>
      <trkpt lat="48.09576" lon="7.16497">
        <ele>750</ele>
        <time>2015-07-08T14:15:40.1Z</time>
      </trkpt>
      <trkpt lat="48.0958" lon="7.16511">
        <ele>751</ele>
        <time>2015-07-08T14:15:42.1Z</time>
      </trkpt>
      <trkpt lat="48.09581" lon="7.16527">
        <ele>752</ele>
        <time>2015-07-08T14:15:44.1Z</time>
      </trkpt>
      <trkpt lat="48.09573" lon="7.16545">
        <ele>753</ele>
        <time>2015-07-08T14:15:47.1Z</time>
      </trkpt>
      <trkpt lat="48.09567" lon="7.16553">
        <ele>754</ele>
        <time>2015-07-08T14:15:49.1Z</time>
      </trkpt>
      <trkpt lat="48.09562" lon="7.1656">
        <ele>755</ele>
        <time>2015-07-08T14:15:51.1Z</time>
      </trkpt>
      <trkpt lat="48.09556" lon="7.16567">
        <ele>755</ele>
        <time>2015-07-08T14:15:54.1Z</time>
      </trkpt>
      <trkpt lat="48.09545" lon="7.16579">
        <ele>756</ele>
        <time>2015-07-08T14:15:56.1Z</time>
      </trkpt>
      <trkpt lat="48.09539" lon="7.16589">
        <ele>757</ele>
        <time>2015-07-08T14:15:58.1Z</time>
      </trkpt>
      <trkpt lat="48.09533" lon="7.16597">
        <ele>757</ele>
        <time>2015-07-08T14:16:00.1Z</time>
      </trkpt>
      <trkpt lat="48.09522" lon="7.16607">
        <ele>758</ele>
        <time>2015-07-08T14:16:03.1Z</time>
      </trkpt>
      <trkpt lat="48.09515" lon="7.16609">
        <ele>759</ele>
        <time>2015-07-08T14:16:05.1Z</time>
      </trkpt>
      <trkpt lat="48.09503" lon="7.16614">
        <ele>760</ele>
        <time>2015-07-08T14:16:08.1Z</time>
      </trkpt>
      <trkpt lat="48.09495" lon="7.16618">
        <ele>761</ele>
        <time>2015-07-08T14:16:11.1Z</time>
      </trkpt>
      <trkpt lat="48.09486" lon="7.1662">
        <ele>762</ele>
        <time>2015-07-08T14:16:14.1Z</time>
      </trkpt>
      <trkpt lat="48.0948" lon="7.16621">
        <ele>763</ele>
        <time>2015-07-08T14:16:17.1Z</time>
      </trkpt>
      <trkpt lat="48.09469" lon="7.16625">
        <ele>763</ele>
        <time>2015-07-08T14:16:19.1Z</time>
      </trkpt>
      <trkpt lat="48.09463" lon="7.16627">
        <ele>764</ele>
        <time>2015-07-08T14:16:21.1Z</time>
      </trkpt>
      <trkpt lat="48.09456" lon="7.16629">
        <ele>764</ele>
        <time>2015-07-08T14:16:23.1Z</time>
      </trkpt>
      <trkpt lat="48.0945" lon="7.16633">
        <ele>765</ele>
        <time>2015-07-08T14:16:25.1Z</time>
      </trkpt>
      <trkpt lat="48.09443" lon="7.16636">
        <ele>765</ele>
        <time>2015-07-08T14:16:28.1Z</time>
      </trkpt>
      <trkpt lat="48.09438" lon="7.16637">
        <ele>765</ele>
        <time>2015-07-08T14:16:30.1Z</time>
      </trkpt>
      <trkpt lat="48.09433" lon="7.16638">
        <ele>766</ele>
        <time>2015-07-08T14:16:32.1Z</time>
      </trkpt>
      <trkpt lat="48.09428" lon="7.16639">
        <ele>767</ele>
        <time>2015-07-08T14:16:34.1Z</time>
      </trkpt>
      <trkpt lat="48.09416" lon="7.16639">
        <ele>767</ele>
        <time>2015-07-08T14:16:37.1Z</time>
      </trkpt>
      <trkpt lat="48.09406" lon="7.16641">
        <ele>768</ele>
        <time>2015-07-08T14:16:40.1Z</time>
      </trkpt>
      <trkpt lat="48.09399" lon="7.16644">
        <ele>769</ele>
        <time>2015-07-08T14:16:42.1Z</time>
      </trkpt>
      <trkpt lat="48.09394" lon="7.16647">
        <ele>769</ele>
        <time>2015-07-08T14:16:45.1Z</time>
      </trkpt>
      <trkpt lat="48.09389" lon="7.16648">
        <ele>769</ele>
        <time>2015-07-08T14:16:47.1Z</time>
      </trkpt>
      <trkpt lat="48.09381" lon="7.16649">
        <ele>770</ele>
        <time>2015-07-08T14:16:49.1Z</time>
      </trkpt>
      <trkpt lat="48.09374" lon="7.16649">
        <ele>770</ele>
        <time>2015-07-08T14:16:51.1Z</time>
      </trkpt>
      <trkpt lat="48.09364" lon="7.16651">
        <ele>771</ele>
        <time>2015-07-08T14:16:54.1Z</time>
      </trkpt>
      <trkpt lat="48.09359" lon="7.16651">
        <ele>772</ele>
        <time>2015-07-08T14:16:56.1Z</time>
      </trkpt>
      <trkpt lat="48.09354" lon="7.16651">
        <ele>772</ele>
        <time>2015-07-08T14:16:58.1Z</time>
      </trkpt>
      <trkpt lat="48.09348" lon="7.16652">
        <ele>773</ele>
        <time>2015-07-08T14:17:00.1Z</time>
      </trkpt>
      <trkpt lat="48.0934" lon="7.16652">
        <ele>774</ele>
        <time>2015-07-08T14:17:03.1Z</time>
      </trkpt>
      <trkpt lat="48.09333" lon="7.16653">
        <ele>775</ele>
        <time>2015-07-08T14:17:06.1Z</time>
      </trkpt>
      <trkpt lat="48.09328" lon="7.16652">
        <ele>776</ele>
        <time>2015-07-08T14:17:08.1Z</time>
      </trkpt>
      <trkpt lat="48.09322" lon="7.16652">
        <ele>776</ele>
        <time>2015-07-08T14:17:11.1Z</time>
      </trkpt>
      <trkpt lat="48.09311" lon="7.16652">
        <ele>777</ele>
        <time>2015-07-08T14:17:13.1Z</time>
      </trkpt>
      <trkpt lat="48.09301" lon="7.16655">
        <ele>777</ele>
        <time>2015-07-08T14:17:16.1Z</time>
      </trkpt>
      <trkpt lat="48.09295" lon="7.16656">
        <ele>778</ele>
        <time>2015-07-08T14:17:18.1Z</time>
      </trkpt>
      <trkpt lat="48.09285" lon="7.16658">
        <ele>778</ele>
        <time>2015-07-08T14:17:21.1Z</time>
      </trkpt>
      <trkpt lat="48.09277" lon="7.1666">
        <ele>779</ele>
        <time>2015-07-08T14:17:23.1Z</time>
      </trkpt>
      <trkpt lat="48.09269" lon="7.16659">
        <ele>779</ele>
        <time>2015-07-08T14:17:25.1Z</time>
      </trkpt>
      <trkpt lat="48.09259" lon="7.16661">
        <ele>779</ele>
        <time>2015-07-08T14:17:27.1Z</time>
      </trkpt>
      <trkpt lat="48.09245" lon="7.16658">
        <ele>780</ele>
        <time>2015-07-08T14:17:30.1Z</time>
      </trkpt>
      <trkpt lat="48.09236" lon="7.16657">
        <ele>781</ele>
        <time>2015-07-08T14:17:33.1Z</time>
      </trkpt>
      <trkpt lat="48.09222" lon="7.16655">
        <ele>782</ele>
        <time>2015-07-08T14:17:35.1Z</time>
      </trkpt>
      <trkpt lat="48.09213" lon="7.16655">
        <ele>782</ele>
        <time>2015-07-08T14:17:37.1Z</time>
      </trkpt>
      <trkpt lat="48.09204" lon="7.16655">
        <ele>783</ele>
        <time>2015-07-08T14:17:39.1Z</time>
      </trkpt>
      <trkpt lat="48.09194" lon="7.16654">
        <ele>784</ele>
        <time>2015-07-08T14:17:41.1Z</time>
      </trkpt>
      <trkpt lat="48.0918" lon="7.16653">
        <ele>784</ele>
        <time>2015-07-08T14:17:44.1Z</time>
      </trkpt>
      <trkpt lat="48.09172" lon="7.1665">
        <ele>784</ele>
        <time>2015-07-08T14:17:46.1Z</time>
      </trkpt>
      <trkpt lat="48.09159" lon="7.16646">
        <ele>785</ele>
        <time>2015-07-08T14:17:49.1Z</time>
      </trkpt>
      <trkpt lat="48.0915" lon="7.16643">
        <ele>785</ele>
        <time>2015-07-08T14:17:51.1Z</time>
      </trkpt>
      <trkpt lat="48.0914" lon="7.16641">
        <ele>785</ele>
        <time>2015-07-08T14:17:54.1Z</time>
      </trkpt>
      <trkpt lat="48.09127" lon="7.16639">
        <ele>786</ele>
        <time>2015-07-08T14:17:56.1Z</time>
      </trkpt>
      <trkpt lat="48.09119" lon="7.16638">
        <ele>786</ele>
        <time>2015-07-08T14:17:58.1Z</time>
      </trkpt>
      <trkpt lat="48.09111" lon="7.16638">
        <ele>786</ele>
        <time>2015-07-08T14:18:00.1Z</time>
      </trkpt>
      <trkpt lat="48.09102" lon="7.16637">
        <ele>787</ele>
        <time>2015-07-08T14:18:02.1Z</time>
      </trkpt>
      <trkpt lat="48.09089" lon="7.16636">
        <ele>787</ele>
        <time>2015-07-08T14:18:05.1Z</time>
      </trkpt>
      <trkpt lat="48.09081" lon="7.16636">
        <ele>788</ele>
        <time>2015-07-08T14:18:07.1Z</time>
      </trkpt>
      <trkpt lat="48.09073" lon="7.16637">
        <ele>788</ele>
        <time>2015-07-08T14:18:09.1Z</time>
      </trkpt>
      <trkpt lat="48.0906" lon="7.16638">
        <ele>788</ele>
        <time>2015-07-08T14:18:12.1Z</time>
      </trkpt>
      <trkpt lat="48.09047" lon="7.16639">
        <ele>789</ele>
        <time>2015-07-08T14:18:15.1Z</time>
      </trkpt>
      <trkpt lat="48.09039" lon="7.1664">
        <ele>789</ele>
        <time>2015-07-08T14:18:18.1Z</time>
      </trkpt>
      <trkpt lat="48.09026" lon="7.16643">
        <ele>790</ele>
        <time>2015-07-08T14:18:20.1Z</time>
      </trkpt>
      <trkpt lat="48.09016" lon="7.16645">
        <ele>790</ele>
        <time>2015-07-08T14:18:22.1Z</time>
      </trkpt>
      <trkpt lat="48.09007" lon="7.16648">
        <ele>790</ele>
        <time>2015-07-08T14:18:24.1Z</time>
      </trkpt>
      <trkpt lat="48.08998" lon="7.16651">
        <ele>791</ele>
        <time>2015-07-08T14:18:26.1Z</time>
      </trkpt>
      <trkpt lat="48.0899" lon="7.16654">
        <ele>791</ele>
        <time>2015-07-08T14:18:28.1Z</time>
      </trkpt>
      <trkpt lat="48.08977" lon="7.16658">
        <ele>792</ele>
        <time>2015-07-08T14:18:31.1Z</time>
      </trkpt>
      <trkpt lat="48.08964" lon="7.16662">
        <ele>793</ele>
        <time>2015-07-08T14:18:34.1Z</time>
      </trkpt>
      <trkpt lat="48.08956" lon="7.16665">
        <ele>793</ele>
        <time>2015-07-08T14:18:36.1Z</time>
      </trkpt>
      <trkpt lat="48.08948" lon="7.16667">
        <ele>794</ele>
        <time>2015-07-08T14:18:39.1Z</time>
      </trkpt>
      <trkpt lat="48.08934" lon="7.16669">
        <ele>794</ele>
        <time>2015-07-08T14:18:41.1Z</time>
      </trkpt>
      <trkpt lat="48.08926" lon="7.16671">
        <ele>794</ele>
        <time>2015-07-08T14:18:43.1Z</time>
      </trkpt>
      <trkpt lat="48.08916" lon="7.16674">
        <ele>795</ele>
        <time>2015-07-08T14:18:45.1Z</time>
      </trkpt>
      <trkpt lat="48.08904" lon="7.16681">
        <ele>795</ele>
        <time>2015-07-08T14:18:48.1Z</time>
      </trkpt>
      <trkpt lat="48.08896" lon="7.16684">
        <ele>796</ele>
        <time>2015-07-08T14:18:50.1Z</time>
      </trkpt>
      <trkpt lat="48.08884" lon="7.1669">
        <ele>796</ele>
        <time>2015-07-08T14:18:53.1Z</time>
      </trkpt>
      <trkpt lat="48.08876" lon="7.16696">
        <ele>796</ele>
        <time>2015-07-08T14:18:55.1Z</time>
      </trkpt>
      <trkpt lat="48.08865" lon="7.16704">
        <ele>796</ele>
        <time>2015-07-08T14:18:58.1Z</time>
      </trkpt>
      <trkpt lat="48.08859" lon="7.16709">
        <ele>796</ele>
        <time>2015-07-08T14:19:00.1Z</time>
      </trkpt>
      <trkpt lat="48.08849" lon="7.16718">
        <ele>797</ele>
        <time>2015-07-08T14:19:03.1Z</time>
      </trkpt>
      <trkpt lat="48.08842" lon="7.16726">
        <ele>797</ele>
        <time>2015-07-08T14:19:05.1Z</time>
      </trkpt>
      <trkpt lat="48.08834" lon="7.16739">
        <ele>798</ele>
        <time>2015-07-08T14:19:08.1Z</time>
      </trkpt>
      <trkpt lat="48.08828" lon="7.16747">
        <ele>798</ele>
        <time>2015-07-08T14:19:10.1Z</time>
      </trkpt>
      <trkpt lat="48.0882" lon="7.16759">
        <ele>799</ele>
        <time>2015-07-08T14:19:13.1Z</time>
      </trkpt>
      <trkpt lat="48.08813" lon="7.16768">
        <ele>800</ele>
        <time>2015-07-08T14:19:15.1Z</time>
      </trkpt>
      <trkpt lat="48.08803" lon="7.16784">
        <ele>800</ele>
        <time>2015-07-08T14:19:18.1Z</time>
      </trkpt>
      <trkpt lat="48.08794" lon="7.16796">
        <ele>801</ele>
        <time>2015-07-08T14:19:21.1Z</time>
      </trkpt>
      <trkpt lat="48.08788" lon="7.16805">
        <ele>801</ele>
        <time>2015-07-08T14:19:24.1Z</time>
      </trkpt>
      <trkpt lat="48.08778" lon="7.16817">
        <ele>801</ele>
        <time>2015-07-08T14:19:26.1Z</time>
      </trkpt>
      <trkpt lat="48.08771" lon="7.16826">
        <ele>802</ele>
        <time>2015-07-08T14:19:28.1Z</time>
      </trkpt>
      <trkpt lat="48.08765" lon="7.16836">
        <ele>802</ele>
        <time>2015-07-08T14:19:30.1Z</time>
      </trkpt>
      <trkpt lat="48.0876" lon="7.16845">
        <ele>803</ele>
        <time>2015-07-08T14:19:32.1Z</time>
      </trkpt>
      <trkpt lat="48.08754" lon="7.16855">
        <ele>803</ele>
        <time>2015-07-08T14:19:34.1Z</time>
      </trkpt>
      <trkpt lat="48.08747" lon="7.16864">
        <ele>803</ele>
        <time>2015-07-08T14:19:36.1Z</time>
      </trkpt>
      <trkpt lat="48.08741" lon="7.16874">
        <ele>803</ele>
        <time>2015-07-08T14:19:38.1Z</time>
      </trkpt>
      <trkpt lat="48.08734" lon="7.16882">
        <ele>803</ele>
        <time>2015-07-08T14:19:40.1Z</time>
      </trkpt>
      <trkpt lat="48.08727" lon="7.1689">
        <ele>803</ele>
        <time>2015-07-08T14:19:42.1Z</time>
      </trkpt>
      <trkpt lat="48.08715" lon="7.16903">
        <ele>803</ele>
        <time>2015-07-08T14:19:45.1Z</time>
      </trkpt>
      <trkpt lat="48.08708" lon="7.1691">
        <ele>803</ele>
        <time>2015-07-08T14:19:47.1Z</time>
      </trkpt>
      <trkpt lat="48.08701" lon="7.16916">
        <ele>804</ele>
        <time>2015-07-08T14:19:50.1Z</time>
      </trkpt>
      <trkpt lat="48.08689" lon="7.16923">
        <ele>804</ele>
        <time>2015-07-08T14:19:52.1Z</time>
      </trkpt>
      <trkpt lat="48.08681" lon="7.16926">
        <ele>805</ele>
        <time>2015-07-08T14:19:54.1Z</time>
      </trkpt>
      <trkpt lat="48.08672" lon="7.16928">
        <ele>805</ele>
        <time>2015-07-08T14:19:56.1Z</time>
      </trkpt>
      <trkpt lat="48.08663" lon="7.1693">
        <ele>805</ele>
        <time>2015-07-08T14:19:58.1Z</time>
      </trkpt>
      <trkpt lat="48.0865" lon="7.16931">
        <ele>806</ele>
        <time>2015-07-08T14:20:01.1Z</time>
      </trkpt>
      <trkpt lat="48.08642" lon="7.16929">
        <ele>807</ele>
        <time>2015-07-08T14:20:03.1Z</time>
      </trkpt>
      <trkpt lat="48.08632" lon="7.16926">
        <ele>807</ele>
        <time>2015-07-08T14:20:05.1Z</time>
      </trkpt>
      <trkpt lat="48.08619" lon="7.16923">
        <ele>808</ele>
        <time>2015-07-08T14:20:08.1Z</time>
      </trkpt>
      <trkpt lat="48.08609" lon="7.1692">
        <ele>808</ele>
        <time>2015-07-08T14:20:10.1Z</time>
      </trkpt>
      <trkpt lat="48.08596" lon="7.16916">
        <ele>808</ele>
        <time>2015-07-08T14:20:13.1Z</time>
      </trkpt>
      <trkpt lat="48.08586" lon="7.16915">
        <ele>808</ele>
        <time>2015-07-08T14:20:15.1Z</time>
      </trkpt>
      <trkpt lat="48.08576" lon="7.16916">
        <ele>809</ele>
        <time>2015-07-08T14:20:17.1Z</time>
      </trkpt>
      <trkpt lat="48.08565" lon="7.16918">
        <ele>809</ele>
        <time>2015-07-08T14:20:19.1Z</time>
      </trkpt>
      <trkpt lat="48.08555" lon="7.1692">
        <ele>809</ele>
        <time>2015-07-08T14:20:21.1Z</time>
      </trkpt>
      <trkpt lat="48.08545" lon="7.16922">
        <ele>810</ele>
        <time>2015-07-08T14:20:23.1Z</time>
      </trkpt>
      <trkpt lat="48.08534" lon="7.1692">
        <ele>811</ele>
        <time>2015-07-08T14:20:25.1Z</time>
      </trkpt>
      <trkpt lat="48.08524" lon="7.16916">
        <ele>811</ele>
        <time>2015-07-08T14:20:27.1Z</time>
      </trkpt>
      <trkpt lat="48.08516" lon="7.16911">
        <ele>812</ele>
        <time>2015-07-08T14:20:29.1Z</time>
      </trkpt>
      <trkpt lat="48.08503" lon="7.16903">
        <ele>812</ele>
        <time>2015-07-08T14:20:32.1Z</time>
      </trkpt>
      <trkpt lat="48.08492" lon="7.16897">
        <ele>812</ele>
        <time>2015-07-08T14:20:34.1Z</time>
      </trkpt>
      <trkpt lat="48.08477" lon="7.16887">
        <ele>812</ele>
        <time>2015-07-08T14:20:37.1Z</time>
      </trkpt>
      <trkpt lat="48.08468" lon="7.1688">
        <ele>812</ele>
        <time>2015-07-08T14:20:39.1Z</time>
      </trkpt>
      <trkpt lat="48.08459" lon="7.16872">
        <ele>812</ele>
        <time>2015-07-08T14:20:41.1Z</time>
      </trkpt>
      <trkpt lat="48.0845" lon="7.16866">
        <ele>812</ele>
        <time>2015-07-08T14:20:43.1Z</time>
      </trkpt>
      <trkpt lat="48.08436" lon="7.16855">
        <ele>813</ele>
        <time>2015-07-08T14:20:46.1Z</time>
      </trkpt>
      <trkpt lat="48.08428" lon="7.1685">
        <ele>813</ele>
        <time>2015-07-08T14:20:48.1Z</time>
      </trkpt>
      <trkpt lat="48.08419" lon="7.16844">
        <ele>814</ele>
        <time>2015-07-08T14:20:50.1Z</time>
      </trkpt>
      <trkpt lat="48.08409" lon="7.16843">
        <ele>814</ele>
        <time>2015-07-08T14:20:52.1Z</time>
      </trkpt>
      <trkpt lat="48.08396" lon="7.1684">
        <ele>814</ele>
        <time>2015-07-08T14:20:55.1Z</time>
      </trkpt>
      <trkpt lat="48.08388" lon="7.16841">
        <ele>814</ele>
        <time>2015-07-08T14:20:57.1Z</time>
      </trkpt>
      <trkpt lat="48.0838" lon="7.16841">
        <ele>815</ele>
        <time>2015-07-08T14:21:00.1Z</time>
      </trkpt>
      <trkpt lat="48.08368" lon="7.16842">
        <ele>815</ele>
        <time>2015-07-08T14:21:02.1Z</time>
      </trkpt>
      <trkpt lat="48.08353" lon="7.16845">
        <ele>816</ele>
        <time>2015-07-08T14:21:05.1Z</time>
      </trkpt>
      <trkpt lat="48.08344" lon="7.16848">
        <ele>817</ele>
        <time>2015-07-08T14:21:07.1Z</time>
      </trkpt>
      <trkpt lat="48.08335" lon="7.16853">
        <ele>817</ele>
        <time>2015-07-08T14:21:09.1Z</time>
      </trkpt>
      <trkpt lat="48.08327" lon="7.16859">
        <ele>817</ele>
        <time>2015-07-08T14:21:11.1Z</time>
      </trkpt>
      <trkpt lat="48.08318" lon="7.16864">
        <ele>817</ele>
        <time>2015-07-08T14:21:13.1Z</time>
      </trkpt>
      <trkpt lat="48.0831" lon="7.16869">
        <ele>817</ele>
        <time>2015-07-08T14:21:15.1Z</time>
      </trkpt>
      <trkpt lat="48.08302" lon="7.16875">
        <ele>818</ele>
        <time>2015-07-08T14:21:17.1Z</time>
      </trkpt>
      <trkpt lat="48.08289" lon="7.16881">
        <ele>818</ele>
        <time>2015-07-08T14:21:20.1Z</time>
      </trkpt>
      <trkpt lat="48.08279" lon="7.16883">
        <ele>818</ele>
        <time>2015-07-08T14:21:22.1Z</time>
      </trkpt>
      <trkpt lat="48.08265" lon="7.16883">
        <ele>818</ele>
        <time>2015-07-08T14:21:25.1Z</time>
      </trkpt>
      <trkpt lat="48.08252" lon="7.16881">
        <ele>819</ele>
        <time>2015-07-08T14:21:28.1Z</time>
      </trkpt>
      <trkpt lat="48.08243" lon="7.1688">
        <ele>820</ele>
        <time>2015-07-08T14:21:30.1Z</time>
      </trkpt>
      <trkpt lat="48.08229" lon="7.16878">
        <ele>820</ele>
        <time>2015-07-08T14:21:33.1Z</time>
      </trkpt>
      <trkpt lat="48.08215" lon="7.16877">
        <ele>819</ele>
        <time>2015-07-08T14:21:36.1Z</time>
      </trkpt>
      <trkpt lat="48.0821" lon="7.16879">
        <ele>818</ele>
        <time>2015-07-08T14:21:39.1Z</time>
      </trkpt>
      <trkpt lat="48.08188" lon="7.16872">
        <ele>818</ele>
        <time>2015-07-08T14:21:42.1Z</time>
      </trkpt>
      <trkpt lat="48.08187" lon="7.16874">
        <ele>817</ele>
        <time>2015-07-08T14:21:45.1Z</time>
      </trkpt>
      <trkpt lat="48.08186" lon="7.16879">
        <ele>817</ele>
        <time>2015-07-08T14:21:47.1Z</time>
      </trkpt>
      <trkpt lat="48.08185" lon="7.16886">
        <ele>817</ele>
        <time>2015-07-08T14:21:49.1Z</time>
      </trkpt>
      <trkpt lat="48.08185" lon="7.16901">
        <ele>818</ele>
        <time>2015-07-08T14:21:52.1Z</time>
      </trkpt>
      <trkpt lat="48.08189" lon="7.16921">
        <ele>819</ele>
        <time>2015-07-08T14:21:55.1Z</time>
      </trkpt>
      <trkpt lat="48.08193" lon="7.16936">
        <ele>819</ele>
        <time>2015-07-08T14:21:57.1Z</time>
      </trkpt>
      <trkpt lat="48.08198" lon="7.16953">
        <ele>819</ele>
        <time>2015-07-08T14:21:59.1Z</time>
      </trkpt>
      <trkpt lat="48.08204" lon="7.16972">
        <ele>818</ele>
        <time>2015-07-08T14:22:01.1Z</time>
      </trkpt>
      <trkpt lat="48.08218" lon="7.1701">
        <ele>819</ele>
        <time>2015-07-08T14:22:04.1Z</time>
      </trkpt>
      <trkpt lat="48.08235" lon="7.17051">
        <ele>819</ele>
        <time>2015-07-08T14:22:07.1Z</time>
      </trkpt>
      <trkpt lat="48.08254" lon="7.17093">
        <ele>821</ele>
        <time>2015-07-08T14:22:10.1Z</time>
      </trkpt>
      <trkpt lat="48.0827" lon="7.17131">
        <ele>820</ele>
        <time>2015-07-08T14:22:13.1Z</time>
      </trkpt>
      <trkpt lat="48.0828" lon="7.17155">
        <ele>818</ele>
        <time>2015-07-08T14:22:15.1Z</time>
      </trkpt>
      <trkpt lat="48.08292" lon="7.17191">
        <ele>813</ele>
        <time>2015-07-08T14:22:18.1Z</time>
      </trkpt>
      <trkpt lat="48.08297" lon="7.17216">
        <ele>810</ele>
        <time>2015-07-08T14:22:20.1Z</time>
      </trkpt>
      <trkpt lat="48.08298" lon="7.17238">
        <ele>808</ele>
        <time>2015-07-08T14:22:22.1Z</time>
      </trkpt>
      <trkpt lat="48.08299" lon="7.17256">
        <ele>807</ele>
        <time>2015-07-08T14:22:24.1Z</time>
      </trkpt>
      <trkpt lat="48.08299" lon="7.1728">
        <ele>807</ele>
        <time>2015-07-08T14:22:27.1Z</time>
      </trkpt>
      <trkpt lat="48.08299" lon="7.17306">
        <ele>807</ele>
        <time>2015-07-08T14:22:30.1Z</time>
      </trkpt>
      <trkpt lat="48.08298" lon="7.17326">
        <ele>808</ele>
        <time>2015-07-08T14:22:32.1Z</time>
      </trkpt>
      <trkpt lat="48.08298" lon="7.17357">
        <ele>808</ele>
        <time>2015-07-08T14:22:35.1Z</time>
      </trkpt>
      <trkpt lat="48.08299" lon="7.17392">
        <ele>809</ele>
        <time>2015-07-08T14:22:38.1Z</time>
      </trkpt>
      <trkpt lat="48.08302" lon="7.17428">
        <ele>808</ele>
        <time>2015-07-08T14:22:41.1Z</time>
      </trkpt>
      <trkpt lat="48.08308" lon="7.17464">
        <ele>808</ele>
        <time>2015-07-08T14:22:44.1Z</time>
      </trkpt>
      <trkpt lat="48.08314" lon="7.1749">
        <ele>808</ele>
        <time>2015-07-08T14:22:46.1Z</time>
      </trkpt>
      <trkpt lat="48.08325" lon="7.17531">
        <ele>807</ele>
        <time>2015-07-08T14:22:49.1Z</time>
      </trkpt>
      <trkpt lat="48.08342" lon="7.17573">
        <ele>806</ele>
        <time>2015-07-08T14:22:52.1Z</time>
      </trkpt>
      <trkpt lat="48.08362" lon="7.17609">
        <ele>804</ele>
        <time>2015-07-08T14:22:55.1Z</time>
      </trkpt>
      <trkpt lat="48.08375" lon="7.1763">
        <ele>803</ele>
        <time>2015-07-08T14:22:57.1Z</time>
      </trkpt>
      <trkpt lat="48.08387" lon="7.17651">
        <ele>802</ele>
        <time>2015-07-08T14:22:59.1Z</time>
      </trkpt>
      <trkpt lat="48.08404" lon="7.17684">
        <ele>801</ele>
        <time>2015-07-08T14:23:02.1Z</time>
      </trkpt>
      <trkpt lat="48.08415" lon="7.17705">
        <ele>800</ele>
        <time>2015-07-08T14:23:04.1Z</time>
      </trkpt>
      <trkpt lat="48.0843" lon="7.17734">
        <ele>799</ele>
        <time>2015-07-08T14:23:07.1Z</time>
      </trkpt>
      <trkpt lat="48.08444" lon="7.17763">
        <ele>799</ele>
        <time>2015-07-08T14:23:10.1Z</time>
      </trkpt>
      <trkpt lat="48.08458" lon="7.1779">
        <ele>798</ele>
        <time>2015-07-08T14:23:13.1Z</time>
      </trkpt>
      <trkpt lat="48.08471" lon="7.17819">
        <ele>798</ele>
        <time>2015-07-08T14:23:16.1Z</time>
      </trkpt>
      <trkpt lat="48.0848" lon="7.17838">
        <ele>798</ele>
        <time>2015-07-08T14:23:18.1Z</time>
      </trkpt>
      <trkpt lat="48.08486" lon="7.17859">
        <ele>798</ele>
        <time>2015-07-08T14:23:20.1Z</time>
      </trkpt>
      <trkpt lat="48.08491" lon="7.17888">
        <ele>797</ele>
        <time>2015-07-08T14:23:23.1Z</time>
      </trkpt>
      <trkpt lat="48.08492" lon="7.17913">
        <ele>796</ele>
        <time>2015-07-08T14:23:26.1Z</time>
      </trkpt>
      <trkpt lat="48.08491" lon="7.17926">
        <ele>796</ele>
        <time>2015-07-08T14:23:28.1Z</time>
      </trkpt>
      <trkpt lat="48.08491" lon="7.17948">
        <ele>797</ele>
        <time>2015-07-08T14:23:31.1Z</time>
      </trkpt>
      <trkpt lat="48.08491" lon="7.17963">
        <ele>798</ele>
        <time>2015-07-08T14:23:33.1Z</time>
      </trkpt>
      <trkpt lat="48.08492" lon="7.17987">
        <ele>799</ele>
        <time>2015-07-08T14:23:36.1Z</time>
      </trkpt>
      <trkpt lat="48.08494" lon="7.18004">
        <ele>800</ele>
        <time>2015-07-08T14:23:38.1Z</time>
      </trkpt>
      <trkpt lat="48.08495" lon="7.18018">
        <ele>801</ele>
        <time>2015-07-08T14:23:40.1Z</time>
      </trkpt>
      <trkpt lat="48.08494" lon="7.18035">
        <ele>801</ele>
        <time>2015-07-08T14:23:43.1Z</time>
      </trkpt>
      <trkpt lat="48.08495" lon="7.18043">
        <ele>802</ele>
        <time>2015-07-08T14:23:45.1Z</time>
      </trkpt>
      <trkpt lat="48.08496" lon="7.18055">
        <ele>802</ele>
        <time>2015-07-08T14:23:48.1Z</time>
      </trkpt>
      <trkpt lat="48.08496" lon="7.18064">
        <ele>803</ele>
        <time>2015-07-08T14:23:50.1Z</time>
      </trkpt>
      <trkpt lat="48.08496" lon="7.18079">
        <ele>803</ele>
        <time>2015-07-08T14:23:53.1Z</time>
      </trkpt>
      <trkpt lat="48.08496" lon="7.18087">
        <ele>804</ele>
        <time>2015-07-08T14:23:55.1Z</time>
      </trkpt>
      <trkpt lat="48.08498" lon="7.18099">
        <ele>805</ele>
        <time>2015-07-08T14:23:58.1Z</time>
      </trkpt>
      <trkpt lat="48.08498" lon="7.18111">
        <ele>805</ele>
        <time>2015-07-08T14:24:00.1Z</time>
      </trkpt>
      <trkpt lat="48.08498" lon="7.18122">
        <ele>806</ele>
        <time>2015-07-08T14:24:02.1Z</time>
      </trkpt>
      <trkpt lat="48.08497" lon="7.18141">
        <ele>807</ele>
        <time>2015-07-08T14:24:05.1Z</time>
      </trkpt>
      <trkpt lat="48.08498" lon="7.18153">
        <ele>807</ele>
        <time>2015-07-08T14:24:07.1Z</time>
      </trkpt>
      <trkpt lat="48.08497" lon="7.1817">
        <ele>807</ele>
        <time>2015-07-08T14:24:10.1Z</time>
      </trkpt>
      <trkpt lat="48.08498" lon="7.1818">
        <ele>808</ele>
        <time>2015-07-08T14:24:12.1Z</time>
      </trkpt>
      <trkpt lat="48.08499" lon="7.18188">
        <ele>808</ele>
        <time>2015-07-08T14:24:14.1Z</time>
      </trkpt>
      <trkpt lat="48.085" lon="7.18203">
        <ele>809</ele>
        <time>2015-07-08T14:24:17.1Z</time>
      </trkpt>
      <trkpt lat="48.08503" lon="7.18217">
        <ele>809</ele>
        <time>2015-07-08T14:24:20.1Z</time>
      </trkpt>
      <trkpt lat="48.08506" lon="7.18228">
        <ele>810</ele>
        <time>2015-07-08T14:24:22.1Z</time>
      </trkpt>
      <trkpt lat="48.0851" lon="7.18244">
        <ele>811</ele>
        <time>2015-07-08T14:24:25.1Z</time>
      </trkpt>
      <trkpt lat="48.08514" lon="7.18261">
        <ele>812</ele>
        <time>2015-07-08T14:24:28.1Z</time>
      </trkpt>
      <trkpt lat="48.08517" lon="7.1828">
        <ele>812</ele>
        <time>2015-07-08T14:24:31.1Z</time>
      </trkpt>
      <trkpt lat="48.0852" lon="7.18303">
        <ele>812</ele>
        <time>2015-07-08T14:24:34.1Z</time>
      </trkpt>
      <trkpt lat="48.08524" lon="7.18321">
        <ele>813</ele>
        <time>2015-07-08T14:24:36.1Z</time>
      </trkpt>
      <trkpt lat="48.08526" lon="7.18336">
        <ele>813</ele>
        <time>2015-07-08T14:24:38.1Z</time>
      </trkpt>
      <trkpt lat="48.08527" lon="7.18358">
        <ele>812</ele>
        <time>2015-07-08T14:24:41.1Z</time>
      </trkpt>
      <trkpt lat="48.0853" lon="7.1838">
        <ele>812</ele>
        <time>2015-07-08T14:24:44.1Z</time>
      </trkpt>
      <trkpt lat="48.08533" lon="7.18395">
        <ele>813</ele>
        <time>2015-07-08T14:24:46.1Z</time>
      </trkpt>
      <trkpt lat="48.08537" lon="7.18408">
        <ele>813</ele>
        <time>2015-07-08T14:24:48.1Z</time>
      </trkpt>
      <trkpt lat="48.08552" lon="7.18446">
        <ele>813</ele>
        <time>2015-07-08T14:24:51.1Z</time>
      </trkpt>
      <trkpt lat="48.08552" lon="7.18448">
        <ele>813</ele>
        <time>2015-07-08T14:24:54.1Z</time>
      </trkpt>
      <trkpt lat="48.08554" lon="7.18453">
        <ele>813</ele>
        <time>2015-07-08T14:24:56.1Z</time>
      </trkpt>
      <trkpt lat="48.08559" lon="7.18462">
        <ele>814</ele>
        <time>2015-07-08T14:24:59.1Z</time>
      </trkpt>
      <trkpt lat="48.08567" lon="7.18473">
        <ele>814</ele>
        <time>2015-07-08T14:25:02.1Z</time>
      </trkpt>
      <trkpt lat="48.08577" lon="7.18487">
        <ele>816</ele>
        <time>2015-07-08T14:25:05.1Z</time>
      </trkpt>
      <trkpt lat="48.08585" lon="7.18494">
        <ele>816</ele>
        <time>2015-07-08T14:25:07.1Z</time>
      </trkpt>
      <trkpt lat="48.08598" lon="7.18504">
        <ele>817</ele>
        <time>2015-07-08T14:25:10.1Z</time>
      </trkpt>
      <trkpt lat="48.08609" lon="7.1851">
        <ele>816</ele>
        <time>2015-07-08T14:25:13.1Z</time>
      </trkpt>
      <trkpt lat="48.0862" lon="7.18512">
        <ele>816</ele>
        <time>2015-07-08T14:25:15.1Z</time>
      </trkpt>
      <trkpt lat="48.08631" lon="7.18514">
        <ele>816</ele>
        <time>2015-07-08T14:25:17.1Z</time>
      </trkpt>
      <trkpt lat="48.08653" lon="7.18516">
        <ele>816</ele>
        <time>2015-07-08T14:25:20.1Z</time>
      </trkpt>
      <trkpt lat="48.08677" lon="7.18526">
        <ele>815</ele>
        <time>2015-07-08T14:25:23.1Z</time>
      </trkpt>
      <trkpt lat="48.08696" lon="7.18534">
        <ele>815</ele>
        <time>2015-07-08T14:25:25.1Z</time>
      </trkpt>
      <trkpt lat="48.08728" lon="7.18537">
        <ele>815</ele>
        <time>2015-07-08T14:25:28.1Z</time>
      </trkpt>
      <trkpt lat="48.08748" lon="7.18537">
        <ele>814</ele>
        <time>2015-07-08T14:25:30.1Z</time>
      </trkpt>
      <trkpt lat="48.08767" lon="7.18539">
        <ele>814</ele>
        <time>2015-07-08T14:25:32.1Z</time>
      </trkpt>
      <trkpt lat="48.08786" lon="7.18541">
        <ele>813</ele>
        <time>2015-07-08T14:25:34.1Z</time>
      </trkpt>
      <trkpt lat="48.08804" lon="7.18543">
        <ele>811</ele>
        <time>2015-07-08T14:25:36.1Z</time>
      </trkpt>
      <trkpt lat="48.08831" lon="7.18544">
        <ele>811</ele>
        <time>2015-07-08T14:25:39.1Z</time>
      </trkpt>
      <trkpt lat="48.08848" lon="7.18541">
        <ele>810</ele>
        <time>2015-07-08T14:25:41.1Z</time>
      </trkpt>
      <trkpt lat="48.08864" lon="7.18539">
        <ele>809</ele>
        <time>2015-07-08T14:25:43.1Z</time>
      </trkpt>
      <trkpt lat="48.08882" lon="7.18537">
        <ele>809</ele>
        <time>2015-07-08T14:25:45.1Z</time>
      </trkpt>
      <trkpt lat="48.08899" lon="7.18533">
        <ele>809</ele>
        <time>2015-07-08T14:25:47.1Z</time>
      </trkpt>
      <trkpt lat="48.08927" lon="7.18527">
        <ele>808</ele>
        <time>2015-07-08T14:25:50.1Z</time>
      </trkpt>
      <trkpt lat="48.08947" lon="7.18528">
        <ele>808</ele>
        <time>2015-07-08T14:25:52.1Z</time>
      </trkpt>
      <trkpt lat="48.08966" lon="7.18531">
        <ele>807</ele>
        <time>2015-07-08T14:25:54.1Z</time>
      </trkpt>
      <trkpt lat="48.08986" lon="7.18535">
        <ele>806</ele>
        <time>2015-07-08T14:25:56.1Z</time>
      </trkpt>
      <trkpt lat="48.09005" lon="7.18541">
        <ele>805</ele>
        <time>2015-07-08T14:25:58.1Z</time>
      </trkpt>
      <trkpt lat="48.09024" lon="7.18548">
        <ele>804</ele>
        <time>2015-07-08T14:26:00.1Z</time>
      </trkpt>
      <trkpt lat="48.09048" lon="7.18569">
        <ele>803</ele>
        <time>2015-07-08T14:26:03.1Z</time>
      </trkpt>
      <trkpt lat="48.0906" lon="7.18584">
        <ele>802</ele>
        <time>2015-07-08T14:26:05.1Z</time>
      </trkpt>
      <trkpt lat="48.09075" lon="7.18608">
        <ele>800</ele>
        <time>2015-07-08T14:26:08.1Z</time>
      </trkpt>
      <trkpt lat="48.09085" lon="7.18623">
        <ele>798</ele>
        <time>2015-07-08T14:26:10.1Z</time>
      </trkpt>
      <trkpt lat="48.09095" lon="7.1864">
        <ele>798</ele>
        <time>2015-07-08T14:26:12.1Z</time>
      </trkpt>
      <trkpt lat="48.0911" lon="7.1867">
        <ele>798</ele>
        <time>2015-07-08T14:26:15.1Z</time>
      </trkpt>
      <trkpt lat="48.09119" lon="7.18692">
        <ele>798</ele>
        <time>2015-07-08T14:26:17.1Z</time>
      </trkpt>
      <trkpt lat="48.09128" lon="7.18714">
        <ele>798</ele>
        <time>2015-07-08T14:26:19.1Z</time>
      </trkpt>
      <trkpt lat="48.09137" lon="7.18738">
        <ele>796</ele>
        <time>2015-07-08T14:26:21.1Z</time>
      </trkpt>
      <trkpt lat="48.09148" lon="7.18762">
        <ele>795</ele>
        <time>2015-07-08T14:26:23.1Z</time>
      </trkpt>
      <trkpt lat="48.0916" lon="7.18805">
        <ele>794</ele>
        <time>2015-07-08T14:26:26.1Z</time>
      </trkpt>
      <trkpt lat="48.09164" lon="7.18835">
        <ele>792</ele>
        <time>2015-07-08T14:26:28.1Z</time>
      </trkpt>
      <trkpt lat="48.09174" lon="7.1887">
        <ele>789</ele>
        <time>2015-07-08T14:26:31.1Z</time>
      </trkpt>
      <trkpt lat="48.09187" lon="7.18888">
        <ele>786</ele>
        <time>2015-07-08T14:26:34.1Z</time>
      </trkpt>
      <trkpt lat="48.09194" lon="7.18893">
        <ele>784</ele>
        <time>2015-07-08T14:26:36.1Z</time>
      </trkpt>
      <trkpt lat="48.09201" lon="7.18893">
        <ele>782</ele>
        <time>2015-07-08T14:26:38.1Z</time>
      </trkpt>
      <trkpt lat="48.09204" lon="7.18894">
        <ele>782</ele>
        <time>2015-07-08T14:26:40.1Z</time>
      </trkpt>
      <trkpt lat="48.0919" lon="7.18908">
        <ele>781</ele>
        <time>2015-07-08T14:26:43.1Z</time>
      </trkpt>
      <trkpt lat="48.09184" lon="7.1892">
        <ele>781</ele>
        <time>2015-07-08T14:26:46.1Z</time>
      </trkpt>
      <trkpt lat="48.0918" lon="7.18932">
        <ele>781</ele>
        <time>2015-07-08T14:26:48.1Z</time>
      </trkpt>
      <trkpt lat="48.09176" lon="7.18958">
        <ele>780</ele>
        <time>2015-07-08T14:26:51.1Z</time>
      </trkpt>
      <trkpt lat="48.0917" lon="7.18991">
        <ele>780</ele>
        <time>2015-07-08T14:26:54.1Z</time>
      </trkpt>
      <trkpt lat="48.09166" lon="7.19015">
        <ele>779</ele>
        <time>2015-07-08T14:26:56.1Z</time>
      </trkpt>
      <trkpt lat="48.0916" lon="7.19041">
        <ele>778</ele>
        <time>2015-07-08T14:26:58.1Z</time>
      </trkpt>
      <trkpt lat="48.09154" lon="7.19071">
        <ele>778</ele>
        <time>2015-07-08T14:27:00.1Z</time>
      </trkpt>
      <trkpt lat="48.09148" lon="7.19101">
        <ele>779</ele>
        <time>2015-07-08T14:27:02.1Z</time>
      </trkpt>
      <trkpt lat="48.0914" lon="7.19146">
        <ele>779</ele>
        <time>2015-07-08T14:27:05.1Z</time>
      </trkpt>
      <trkpt lat="48.09132" lon="7.19174">
        <ele>778</ele>
        <time>2015-07-08T14:27:07.1Z</time>
      </trkpt>
      <trkpt lat="48.09125" lon="7.19201">
        <ele>777</ele>
        <time>2015-07-08T14:27:09.1Z</time>
      </trkpt>
      <trkpt lat="48.09113" lon="7.19242">
        <ele>775</ele>
        <time>2015-07-08T14:27:12.1Z</time>
      </trkpt>
      <trkpt lat="48.09105" lon="7.19267">
        <ele>774</ele>
        <time>2015-07-08T14:27:14.1Z</time>
      </trkpt>
      <trkpt lat="48.09092" lon="7.19298">
        <ele>771</ele>
        <time>2015-07-08T14:27:17.1Z</time>
      </trkpt>
      <trkpt lat="48.09084" lon="7.19315">
        <ele>768</ele>
        <time>2015-07-08T14:27:19.1Z</time>
      </trkpt>
      <trkpt lat="48.09074" lon="7.19334">
        <ele>767</ele>
        <time>2015-07-08T14:27:21.1Z</time>
      </trkpt>
      <trkpt lat="48.09062" lon="7.19354">
        <ele>765</ele>
        <time>2015-07-08T14:27:23.1Z</time>
      </trkpt>
      <trkpt lat="48.09045" lon="7.19384">
        <ele>763</ele>
        <time>2015-07-08T14:27:26.1Z</time>
      </trkpt>
      <trkpt lat="48.09036" lon="7.19404">
        <ele>760</ele>
        <time>2015-07-08T14:27:28.1Z</time>
      </trkpt>
      <trkpt lat="48.09034" lon="7.19432">
        <ele>756</ele>
        <time>2015-07-08T14:27:31.1Z</time>
      </trkpt>
      <trkpt lat="48.09034" lon="7.19445">
        <ele>753</ele>
        <time>2015-07-08T14:27:33.1Z</time>
      </trkpt>
      <trkpt lat="48.09031" lon="7.19453">
        <ele>750</ele>
        <time>2015-07-08T14:27:35.1Z</time>
      </trkpt>
      <trkpt lat="48.09029" lon="7.19456">
        <ele>748</ele>
        <time>2015-07-08T14:27:37.1Z</time>
      </trkpt>
      <trkpt lat="48.09028" lon="7.19457">
        <ele>747</ele>
        <time>2015-07-08T14:27:40.1Z</time>
      </trkpt>
      <trkpt lat="48.09028" lon="7.19458">
        <ele>746</ele>
        <time>2015-07-08T14:27:42.1Z</time>
      </trkpt>
      <trkpt lat="48.09027" lon="7.19458">
        <ele>746</ele>
        <time>2015-07-08T14:27:44.1Z</time>
      </trkpt>
      <trkpt lat="48.09027" lon="7.19459">
        <ele>746</ele>
        <time>2015-07-08T14:27:46.1Z</time>
      </trkpt>
      <trkpt lat="48.09026" lon="7.19459">
        <ele>746</ele>
        <time>2015-07-08T14:27:48.1Z</time>
      </trkpt>
      <trkpt lat="48.09026" lon="7.19463">
        <ele>747</ele>
        <time>2015-07-08T14:27:51.1Z</time>
      </trkpt>
      <trkpt lat="48.09027" lon="7.19467">
        <ele>747</ele>
        <time>2015-07-08T14:27:53.1Z</time>
      </trkpt>
      <trkpt lat="48.09031" lon="7.1948">
        <ele>747</ele>
        <time>2015-07-08T14:27:56.1Z</time>
      </trkpt>
      <trkpt lat="48.09035" lon="7.19494">
        <ele>747</ele>
        <time>2015-07-08T14:27:58.1Z</time>
      </trkpt>
      <trkpt lat="48.09042" lon="7.19524">
        <ele>747</ele>
        <time>2015-07-08T14:28:01.1Z</time>
      </trkpt>
      <trkpt lat="48.09047" lon="7.19546">
        <ele>747</ele>
        <time>2015-07-08T14:28:03.1Z</time>
      </trkpt>
      <trkpt lat="48.09054" lon="7.19579">
        <ele>747</ele>
        <time>2015-07-08T14:28:06.1Z</time>
      </trkpt>
      <trkpt lat="48.0906" lon="7.19601">
        <ele>747</ele>
        <time>2015-07-08T14:28:08.1Z</time>
      </trkpt>
      <trkpt lat="48.09073" lon="7.19634">
        <ele>746</ele>
        <time>2015-07-08T14:28:11.1Z</time>
      </trkpt>
      <trkpt lat="48.09087" lon="7.1967">
        <ele>745</ele>
        <time>2015-07-08T14:28:14.1Z</time>
      </trkpt>
      <trkpt lat="48.09094" lon="7.19697">
        <ele>745</ele>
        <time>2015-07-08T14:28:16.1Z</time>
      </trkpt>
      <trkpt lat="48.091" lon="7.19738">
        <ele>743</ele>
        <time>2015-07-08T14:28:19.1Z</time>
      </trkpt>
      <trkpt lat="48.09104" lon="7.19766">
        <ele>742</ele>
        <time>2015-07-08T14:28:21.1Z</time>
      </trkpt>
      <trkpt lat="48.09114" lon="7.19805">
        <ele>741</ele>
        <time>2015-07-08T14:28:24.1Z</time>
      </trkpt>
      <trkpt lat="48.09122" lon="7.19831">
        <ele>742</ele>
        <time>2015-07-08T14:28:26.1Z</time>
      </trkpt>
      <trkpt lat="48.09135" lon="7.19869">
        <ele>741</ele>
        <time>2015-07-08T14:28:29.1Z</time>
      </trkpt>
      <trkpt lat="48.09142" lon="7.19895">
        <ele>741</ele>
        <time>2015-07-08T14:28:31.1Z</time>
      </trkpt>
      <trkpt lat="48.09148" lon="7.1992">
        <ele>741</ele>
        <time>2015-07-08T14:28:33.1Z</time>
      </trkpt>
      <trkpt lat="48.09154" lon="7.19946">
        <ele>741</ele>
        <time>2015-07-08T14:28:35.1Z</time>
      </trkpt>
      <trkpt lat="48.09156" lon="7.19986">
        <ele>740</ele>
        <time>2015-07-08T14:28:38.1Z</time>
      </trkpt>
      <trkpt lat="48.09156" lon="7.20027">
        <ele>739</ele>
        <time>2015-07-08T14:28:41.1Z</time>
      </trkpt>
      <trkpt lat="48.09156" lon="7.20054">
        <ele>738</ele>
        <time>2015-07-08T14:28:43.1Z</time>
      </trkpt>
      <trkpt lat="48.09157" lon="7.20083">
        <ele>738</ele>
        <time>2015-07-08T14:28:45.1Z</time>
      </trkpt>
      <trkpt lat="48.09162" lon="7.20125">
        <ele>738</ele>
        <time>2015-07-08T14:28:48.1Z</time>
      </trkpt>
      <trkpt lat="48.09167" lon="7.20151">
        <ele>737</ele>
        <time>2015-07-08T14:28:50.1Z</time>
      </trkpt>
      <trkpt lat="48.09174" lon="7.20176">
        <ele>737</ele>
        <time>2015-07-08T14:28:52.1Z</time>
      </trkpt>
      <trkpt lat="48.09185" lon="7.20213">
        <ele>735</ele>
        <time>2015-07-08T14:28:55.1Z</time>
      </trkpt>
      <trkpt lat="48.09193" lon="7.20237">
        <ele>734</ele>
        <time>2015-07-08T14:28:57.1Z</time>
      </trkpt>
      <trkpt lat="48.09204" lon="7.20262">
        <ele>734</ele>
        <time>2015-07-08T14:28:59.1Z</time>
      </trkpt>
      <trkpt lat="48.09215" lon="7.20284">
        <ele>735</ele>
        <time>2015-07-08T14:29:01.1Z</time>
      </trkpt>
      <trkpt lat="48.09229" lon="7.20302">
        <ele>735</ele>
        <time>2015-07-08T14:29:03.1Z</time>
      </trkpt>
      <trkpt lat="48.09249" lon="7.20323">
        <ele>734</ele>
        <time>2015-07-08T14:29:06.1Z</time>
      </trkpt>
      <trkpt lat="48.09262" lon="7.20336">
        <ele>732</ele>
        <time>2015-07-08T14:29:08.1Z</time>
      </trkpt>
      <trkpt lat="48.09281" lon="7.20356">
        <ele>731</ele>
        <time>2015-07-08T14:29:11.1Z</time>
      </trkpt>
      <trkpt lat="48.09296" lon="7.20369">
        <ele>729</ele>
        <time>2015-07-08T14:29:13.1Z</time>
      </trkpt>
      <trkpt lat="48.09313" lon="7.20382">
        <ele>728</ele>
        <time>2015-07-08T14:29:15.1Z</time>
      </trkpt>
      <trkpt lat="48.09331" lon="7.20392">
        <ele>727</ele>
        <time>2015-07-08T14:29:17.1Z</time>
      </trkpt>
      <trkpt lat="48.0935" lon="7.20402">
        <ele>727</ele>
        <time>2015-07-08T14:29:19.1Z</time>
      </trkpt>
      <trkpt lat="48.09368" lon="7.20411">
        <ele>727</ele>
        <time>2015-07-08T14:29:21.1Z</time>
      </trkpt>
      <trkpt lat="48.09384" lon="7.20421">
        <ele>726</ele>
        <time>2015-07-08T14:29:23.1Z</time>
      </trkpt>
      <trkpt lat="48.09411" lon="7.20434">
        <ele>724</ele>
        <time>2015-07-08T14:29:26.1Z</time>
      </trkpt>
      <trkpt lat="48.09429" lon="7.20428">
        <ele>722</ele>
        <time>2015-07-08T14:29:28.1Z</time>
      </trkpt>
      <trkpt lat="48.0944" lon="7.20405">
        <ele>719</ele>
        <time>2015-07-08T14:29:30.1Z</time>
      </trkpt>
      <trkpt lat="48.09458" lon="7.20371">
        <ele>718</ele>
        <time>2015-07-08T14:29:33.1Z</time>
      </trkpt>
      <trkpt lat="48.09471" lon="7.20351">
        <ele>717</ele>
        <time>2015-07-08T14:29:35.1Z</time>
      </trkpt>
      <trkpt lat="48.0948" lon="7.20328">
        <ele>715</ele>
        <time>2015-07-08T14:29:37.1Z</time>
      </trkpt>
      <trkpt lat="48.09488" lon="7.20307">
        <ele>713</ele>
        <time>2015-07-08T14:29:39.1Z</time>
      </trkpt>
      <trkpt lat="48.09493" lon="7.2027">
        <ele>709</ele>
        <time>2015-07-08T14:29:42.1Z</time>
      </trkpt>
      <trkpt lat="48.09497" lon="7.20231">
        <ele>707</ele>
        <time>2015-07-08T14:29:45.1Z</time>
      </trkpt>
      <trkpt lat="48.09504" lon="7.20209">
        <ele>707</ele>
        <time>2015-07-08T14:29:47.1Z</time>
      </trkpt>
      <trkpt lat="48.09522" lon="7.20183">
        <ele>708</ele>
        <time>2015-07-08T14:29:50.1Z</time>
      </trkpt>
      <trkpt lat="48.09534" lon="7.2017">
        <ele>708</ele>
        <time>2015-07-08T14:29:52.1Z</time>
      </trkpt>
      <trkpt lat="48.09547" lon="7.20157">
        <ele>708</ele>
        <time>2015-07-08T14:29:54.1Z</time>
      </trkpt>
      <trkpt lat="48.09565" lon="7.20138">
        <ele>709</ele>
        <time>2015-07-08T14:29:57.1Z</time>
      </trkpt>
      <trkpt lat="48.09576" lon="7.20125">
        <ele>710</ele>
        <time>2015-07-08T14:29:59.1Z</time>
      </trkpt>
      <trkpt lat="48.09585" lon="7.20112">
        <ele>710</ele>
        <time>2015-07-08T14:30:01.1Z</time>
      </trkpt>
      <trkpt lat="48.09592" lon="7.20096">
        <ele>711</ele>
        <time>2015-07-08T14:30:03.1Z</time>
      </trkpt>
      <trkpt lat="48.09597" lon="7.20082">
        <ele>711</ele>
        <time>2015-07-08T14:30:05.1Z</time>
      </trkpt>
      <trkpt lat="48.09602" lon="7.20068">
        <ele>711</ele>
        <time>2015-07-08T14:30:07.1Z</time>
      </trkpt>
      <trkpt lat="48.09608" lon="7.20055">
        <ele>711</ele>
        <time>2015-07-08T14:30:09.1Z</time>
      </trkpt>
      <trkpt lat="48.09615" lon="7.20035">
        <ele>711</ele>
        <time>2015-07-08T14:30:12.1Z</time>
      </trkpt>
      <trkpt lat="48.09618" lon="7.20017">
        <ele>711</ele>
        <time>2015-07-08T14:30:14.1Z</time>
      </trkpt>
      <trkpt lat="48.09621" lon="7.2">
        <ele>712</ele>
        <time>2015-07-08T14:30:16.1Z</time>
      </trkpt>
      <trkpt lat="48.09626" lon="7.19974">
        <ele>713</ele>
        <time>2015-07-08T14:30:19.1Z</time>
      </trkpt>
      <trkpt lat="48.09629" lon="7.19956">
        <ele>713</ele>
        <time>2015-07-08T14:30:21.1Z</time>
      </trkpt>
      <trkpt lat="48.09631" lon="7.19937">
        <ele>712</ele>
        <time>2015-07-08T14:30:23.1Z</time>
      </trkpt>
      <trkpt lat="48.09632" lon="7.19919">
        <ele>712</ele>
        <time>2015-07-08T14:30:25.1Z</time>
      </trkpt>
      <trkpt lat="48.0963" lon="7.19901">
        <ele>711</ele>
        <time>2015-07-08T14:30:27.1Z</time>
      </trkpt>
      <trkpt lat="48.09624" lon="7.19883">
        <ele>711</ele>
        <time>2015-07-08T14:30:29.1Z</time>
      </trkpt>
      <trkpt lat="48.0961" lon="7.1986">
        <ele>710</ele>
        <time>2015-07-08T14:30:32.1Z</time>
      </trkpt>
      <trkpt lat="48.09599" lon="7.19847">
        <ele>710</ele>
        <time>2015-07-08T14:30:34.1Z</time>
      </trkpt>
      <trkpt lat="48.09587" lon="7.19837">
        <ele>711</ele>
        <time>2015-07-08T14:30:36.1Z</time>
      </trkpt>
      <trkpt lat="48.09575" lon="7.19829">
        <ele>711</ele>
        <time>2015-07-08T14:30:38.1Z</time>
      </trkpt>
      <trkpt lat="48.0956" lon="7.19823">
        <ele>711</ele>
        <time>2015-07-08T14:30:40.1Z</time>
      </trkpt>
      <trkpt lat="48.09541" lon="7.19807">
        <ele>711</ele>
        <time>2015-07-08T14:30:43.1Z</time>
      </trkpt>
      <trkpt lat="48.09531" lon="7.19793">
        <ele>711</ele>
        <time>2015-07-08T14:30:45.1Z</time>
      </trkpt>
      <trkpt lat="48.09521" lon="7.19775">
        <ele>711</ele>
        <time>2015-07-08T14:30:47.1Z</time>
      </trkpt>
      <trkpt lat="48.09513" lon="7.19756">
        <ele>711</ele>
        <time>2015-07-08T14:30:49.1Z</time>
      </trkpt>
      <trkpt lat="48.09503" lon="7.19728">
        <ele>711</ele>
        <time>2015-07-08T14:30:52.1Z</time>
      </trkpt>
      <trkpt lat="48.09491" lon="7.197">
        <ele>710</ele>
        <time>2015-07-08T14:30:55.1Z</time>
      </trkpt>
      <trkpt lat="48.0948" lon="7.19672">
        <ele>710</ele>
        <time>2015-07-08T14:30:58.1Z</time>
      </trkpt>
      <trkpt lat="48.09473" lon="7.19653">
        <ele>709</ele>
        <time>2015-07-08T14:31:00.1Z</time>
      </trkpt>
      <trkpt lat="48.09461" lon="7.19624">
        <ele>709</ele>
        <time>2015-07-08T14:31:03.1Z</time>
      </trkpt>
      <trkpt lat="48.09454" lon="7.19605">
        <ele>709</ele>
        <time>2015-07-08T14:31:05.1Z</time>
      </trkpt>
      <trkpt lat="48.09447" lon="7.19586">
        <ele>708</ele>
        <time>2015-07-08T14:31:07.1Z</time>
      </trkpt>
      <trkpt lat="48.0944" lon="7.19567">
        <ele>709</ele>
        <time>2015-07-08T14:31:09.1Z</time>
      </trkpt>
      <trkpt lat="48.0943" lon="7.19539">
        <ele>708</ele>
        <time>2015-07-08T14:31:12.1Z</time>
      </trkpt>
      <trkpt lat="48.09421" lon="7.19511">
        <ele>708</ele>
        <time>2015-07-08T14:31:15.1Z</time>
      </trkpt>
      <trkpt lat="48.09414" lon="7.19483">
        <ele>707</ele>
        <time>2015-07-08T14:31:18.1Z</time>
      </trkpt>
      <trkpt lat="48.09414" lon="7.19464">
        <ele>707</ele>
        <time>2015-07-08T14:31:20.1Z</time>
      </trkpt>
      <trkpt lat="48.09418" lon="7.19439">
        <ele>707</ele>
        <time>2015-07-08T14:31:23.1Z</time>
      </trkpt>
      <trkpt lat="48.09423" lon="7.19425">
        <ele>707</ele>
        <time>2015-07-08T14:31:25.1Z</time>
      </trkpt>
      <trkpt lat="48.09434" lon="7.19409">
        <ele>707</ele>
        <time>2015-07-08T14:31:28.1Z</time>
      </trkpt>
      <trkpt lat="48.09447" lon="7.19399">
        <ele>708</ele>
        <time>2015-07-08T14:31:31.1Z</time>
      </trkpt>
      <trkpt lat="48.09459" lon="7.19393">
        <ele>709</ele>
        <time>2015-07-08T14:31:34.1Z</time>
      </trkpt>
      <trkpt lat="48.09472" lon="7.19386">
        <ele>711</ele>
        <time>2015-07-08T14:31:37.1Z</time>
      </trkpt>
      <trkpt lat="48.0948" lon="7.19382">
        <ele>711</ele>
        <time>2015-07-08T14:31:39.1Z</time>
      </trkpt>
      <trkpt lat="48.09493" lon="7.19377">
        <ele>712</ele>
        <time>2015-07-08T14:31:42.1Z</time>
      </trkpt>
      <trkpt lat="48.09501" lon="7.19373">
        <ele>712</ele>
        <time>2015-07-08T14:31:44.1Z</time>
      </trkpt>
      <trkpt lat="48.09513" lon="7.19369">
        <ele>714</ele>
        <time>2015-07-08T14:31:47.1Z</time>
      </trkpt>
      <trkpt lat="48.09526" lon="7.19364">
        <ele>714</ele>
        <time>2015-07-08T14:31:50.1Z</time>
      </trkpt>
      <trkpt lat="48.0954" lon="7.19362">
        <ele>716</ele>
        <time>2015-07-08T14:31:53.1Z</time>
      </trkpt>
      <trkpt lat="48.09552" lon="7.19362">
        <ele>717</ele>
        <time>2015-07-08T14:31:56.1Z</time>
      </trkpt>
      <trkpt lat="48.09562" lon="7.19364">
        <ele>718</ele>
        <time>2015-07-08T14:31:58.1Z</time>
      </trkpt>
      <trkpt lat="48.0957" lon="7.19366">
        <ele>719</ele>
        <time>2015-07-08T14:32:00.1Z</time>
      </trkpt>
      <trkpt lat="48.09581" lon="7.19369">
        <ele>719</ele>
        <time>2015-07-08T14:32:03.1Z</time>
      </trkpt>
      <trkpt lat="48.09589" lon="7.19372">
        <ele>720</ele>
        <time>2015-07-08T14:32:05.1Z</time>
      </trkpt>
      <trkpt lat="48.09598" lon="7.19374">
        <ele>720</ele>
        <time>2015-07-08T14:32:07.1Z</time>
      </trkpt>
      <trkpt lat="48.09612" lon="7.19379">
        <ele>721</ele>
        <time>2015-07-08T14:32:10.1Z</time>
      </trkpt>
      <trkpt lat="48.09627" lon="7.19384">
        <ele>722</ele>
        <time>2015-07-08T14:32:13.1Z</time>
      </trkpt>
      <trkpt lat="48.09641" lon="7.19388">
        <ele>723</ele>
        <time>2015-07-08T14:32:16.1Z</time>
      </trkpt>
      <trkpt lat="48.09649" lon="7.19391">
        <ele>724</ele>
        <time>2015-07-08T14:32:18.1Z</time>
      </trkpt>
      <trkpt lat="48.09658" lon="7.19392">
        <ele>725</ele>
        <time>2015-07-08T14:32:20.1Z</time>
      </trkpt>
      <trkpt lat="48.09671" lon="7.19393">
        <ele>725</ele>
        <time>2015-07-08T14:32:23.1Z</time>
      </trkpt>
      <trkpt lat="48.09679" lon="7.19392">
        <ele>726</ele>
        <time>2015-07-08T14:32:25.1Z</time>
      </trkpt>
      <trkpt lat="48.0969" lon="7.19389">
        <ele>727</ele>
        <time>2015-07-08T14:32:28.1Z</time>
      </trkpt>
      <trkpt lat="48.09699" lon="7.19385">
        <ele>728</ele>
        <time>2015-07-08T14:32:31.1Z</time>
      </trkpt>
      <trkpt lat="48.09703" lon="7.19384">
        <ele>728</ele>
        <time>2015-07-08T14:32:33.1Z</time>
      </trkpt>
      <trkpt lat="48.09719" lon="7.19378">
        <ele>726</ele>
        <time>2015-07-08T14:32:36.1Z</time>
      </trkpt>
      <trkpt lat="48.09726" lon="7.19375">
        <ele>726</ele>
        <time>2015-07-08T14:32:38.1Z</time>
      </trkpt>
      <trkpt lat="48.09734" lon="7.19371">
        <ele>726</ele>
        <time>2015-07-08T14:32:40.1Z</time>
      </trkpt>
      <trkpt lat="48.09744" lon="7.19366">
        <ele>727</ele>
        <time>2015-07-08T14:32:42.1Z</time>
      </trkpt>
      <trkpt lat="48.09759" lon="7.1936">
        <ele>727</ele>
        <time>2015-07-08T14:32:45.1Z</time>
      </trkpt>
      <trkpt lat="48.09775" lon="7.19354">
        <ele>727</ele>
        <time>2015-07-08T14:32:48.1Z</time>
      </trkpt>
      <trkpt lat="48.09796" lon="7.1935">
        <ele>727</ele>
        <time>2015-07-08T14:32:51.1Z</time>
      </trkpt>
      <trkpt lat="48.09811" lon="7.19347">
        <ele>726</ele>
        <time>2015-07-08T14:32:53.1Z</time>
      </trkpt>
      <trkpt lat="48.09835" lon="7.19345">
        <ele>727</ele>
        <time>2015-07-08T14:32:56.1Z</time>
      </trkpt>
      <trkpt lat="48.09851" lon="7.19347">
        <ele>727</ele>
        <time>2015-07-08T14:32:58.1Z</time>
      </trkpt>
      <trkpt lat="48.09877" lon="7.19353">
        <ele>728</ele>
        <time>2015-07-08T14:33:01.1Z</time>
      </trkpt>
      <trkpt lat="48.09902" lon="7.1936">
        <ele>728</ele>
        <time>2015-07-08T14:33:04.1Z</time>
      </trkpt>
      <trkpt lat="48.09928" lon="7.19365">
        <ele>728</ele>
        <time>2015-07-08T14:33:07.1Z</time>
      </trkpt>
      <trkpt lat="48.09954" lon="7.19371">
        <ele>726</ele>
        <time>2015-07-08T14:33:10.1Z</time>
      </trkpt>
      <trkpt lat="48.09971" lon="7.19373">
        <ele>726</ele>
        <time>2015-07-08T14:33:12.1Z</time>
      </trkpt>
      <trkpt lat="48.09998" lon="7.19378">
        <ele>725</ele>
        <time>2015-07-08T14:33:15.1Z</time>
      </trkpt>
      <trkpt lat="48.10017" lon="7.19383">
        <ele>725</ele>
        <time>2015-07-08T14:33:17.1Z</time>
      </trkpt>
      <trkpt lat="48.10035" lon="7.19388">
        <ele>725</ele>
        <time>2015-07-08T14:33:19.1Z</time>
      </trkpt>
      <trkpt lat="48.10062" lon="7.19399">
        <ele>723</ele>
        <time>2015-07-08T14:33:22.1Z</time>
      </trkpt>
      <trkpt lat="48.10091" lon="7.19408">
        <ele>722</ele>
        <time>2015-07-08T14:33:25.1Z</time>
      </trkpt>
      <trkpt lat="48.1012" lon="7.1941">
        <ele>721</ele>
        <time>2015-07-08T14:33:28.1Z</time>
      </trkpt>
      <trkpt lat="48.10138" lon="7.19406">
        <ele>722</ele>
        <time>2015-07-08T14:33:30.1Z</time>
      </trkpt>
      <trkpt lat="48.10156" lon="7.19398">
        <ele>722</ele>
        <time>2015-07-08T14:33:32.1Z</time>
      </trkpt>
      <trkpt lat="48.10179" lon="7.1938">
        <ele>721</ele>
        <time>2015-07-08T14:33:35.1Z</time>
      </trkpt>
      <trkpt lat="48.10197" lon="7.19361">
        <ele>720</ele>
        <time>2015-07-08T14:33:38.1Z</time>
      </trkpt>
      <trkpt lat="48.10211" lon="7.19347">
        <ele>718</ele>
        <time>2015-07-08T14:33:41.1Z</time>
      </trkpt>
      <trkpt lat="48.10218" lon="7.19338">
        <ele>716</ele>
        <time>2015-07-08T14:33:44.1Z</time>
      </trkpt>
      <trkpt lat="48.1022" lon="7.1933">
        <ele>715</ele>
        <time>2015-07-08T14:33:46.1Z</time>
      </trkpt>
      <trkpt lat="48.10225" lon="7.19313">
        <ele>715</ele>
        <time>2015-07-08T14:33:49.1Z</time>
      </trkpt>
      <trkpt lat="48.10227" lon="7.193">
        <ele>715</ele>
        <time>2015-07-08T14:33:51.1Z</time>
      </trkpt>
      <trkpt lat="48.10228" lon="7.19273">
        <ele>715</ele>
        <time>2015-07-08T14:33:54.1Z</time>
      </trkpt>
      <trkpt lat="48.10232" lon="7.19253">
        <ele>714</ele>
        <time>2015-07-08T14:33:56.1Z</time>
      </trkpt>
      <trkpt lat="48.10239" lon="7.1922">
        <ele>715</ele>
        <time>2015-07-08T14:33:59.1Z</time>
      </trkpt>
      <trkpt lat="48.10245" lon="7.19197">
        <ele>714</ele>
        <time>2015-07-08T14:34:01.1Z</time>
      </trkpt>
      <trkpt lat="48.10251" lon="7.19171">
        <ele>714</ele>
        <time>2015-07-08T14:34:03.1Z</time>
      </trkpt>
      <trkpt lat="48.10259" lon="7.19132">
        <ele>714</ele>
        <time>2015-07-08T14:34:06.1Z</time>
      </trkpt>
      <trkpt lat="48.10265" lon="7.19107">
        <ele>713</ele>
        <time>2015-07-08T14:34:08.1Z</time>
      </trkpt>
      <trkpt lat="48.1027" lon="7.1908">
        <ele>712</ele>
        <time>2015-07-08T14:34:10.1Z</time>
      </trkpt>
      <trkpt lat="48.1028" lon="7.19039">
        <ele>710</ele>
        <time>2015-07-08T14:34:13.1Z</time>
      </trkpt>
      <trkpt lat="48.10292" lon="7.19022">
        <ele>708</ele>
        <time>2015-07-08T14:34:15.1Z</time>
      </trkpt>
      <trkpt lat="48.10306" lon="7.19029">
        <ele>706</ele>
        <time>2015-07-08T14:34:17.1Z</time>
      </trkpt>
      <trkpt lat="48.10312" lon="7.19053">
        <ele>704</ele>
        <time>2015-07-08T14:34:19.1Z</time>
      </trkpt>
      <trkpt lat="48.10316" lon="7.19093">
        <ele>702</ele>
        <time>2015-07-08T14:34:22.1Z</time>
      </trkpt>
      <trkpt lat="48.10319" lon="7.1912">
        <ele>701</ele>
        <time>2015-07-08T14:34:24.1Z</time>
      </trkpt>
      <trkpt lat="48.10323" lon="7.19148">
        <ele>701</ele>
        <time>2015-07-08T14:34:26.1Z</time>
      </trkpt>
      <trkpt lat="48.10339" lon="7.19187">
        <ele>699</ele>
        <time>2015-07-08T14:34:29.1Z</time>
      </trkpt>
      <trkpt lat="48.10358" lon="7.19204">
        <ele>698</ele>
        <time>2015-07-08T14:34:31.1Z</time>
      </trkpt>
      <trkpt lat="48.10379" lon="7.19212">
        <ele>697</ele>
        <time>2015-07-08T14:34:33.1Z</time>
      </trkpt>
      <trkpt lat="48.104" lon="7.19216">
        <ele>696</ele>
        <time>2015-07-08T14:34:35.1Z</time>
      </trkpt>
      <trkpt lat="48.10418" lon="7.19223">
        <ele>695</ele>
        <time>2015-07-08T14:34:37.1Z</time>
      </trkpt>
      <trkpt lat="48.1044" lon="7.19235">
        <ele>695</ele>
        <time>2015-07-08T14:34:40.1Z</time>
      </trkpt>
      <trkpt lat="48.10452" lon="7.19242">
        <ele>694</ele>
        <time>2015-07-08T14:34:42.1Z</time>
      </trkpt>
      <trkpt lat="48.10466" lon="7.19251">
        <ele>693</ele>
        <time>2015-07-08T14:34:45.1Z</time>
      </trkpt>
      <trkpt lat="48.1048" lon="7.19256">
        <ele>692</ele>
        <time>2015-07-08T14:34:48.1Z</time>
      </trkpt>
      <trkpt lat="48.1049" lon="7.19257">
        <ele>693</ele>
        <time>2015-07-08T14:34:50.1Z</time>
      </trkpt>
      <trkpt lat="48.10498" lon="7.19257">
        <ele>693</ele>
        <time>2015-07-08T14:34:52.1Z</time>
      </trkpt>
      <trkpt lat="48.10505" lon="7.19256">
        <ele>693</ele>
        <time>2015-07-08T14:34:54.1Z</time>
      </trkpt>
      <trkpt lat="48.10508" lon="7.19256">
        <ele>693</ele>
        <time>2015-07-08T14:34:56.1Z</time>
      </trkpt>
      <trkpt lat="48.10512" lon="7.19252">
        <ele>693</ele>
        <time>2015-07-08T14:34:59.1Z</time>
      </trkpt>
      <trkpt lat="48.10513" lon="7.19243">
        <ele>693</ele>
        <time>2015-07-08T14:35:01.1Z</time>
      </trkpt>
      <trkpt lat="48.10513" lon="7.19231">
        <ele>693</ele>
        <time>2015-07-08T14:35:03.1Z</time>
      </trkpt>
      <trkpt lat="48.10514" lon="7.19218">
        <ele>693</ele>
        <time>2015-07-08T14:35:05.1Z</time>
      </trkpt>
      <trkpt lat="48.10516" lon="7.19199">
        <ele>693</ele>
        <time>2015-07-08T14:35:08.1Z</time>
      </trkpt>
      <trkpt lat="48.10516" lon="7.19188">
        <ele>693</ele>
        <time>2015-07-08T14:35:10.1Z</time>
      </trkpt>
      <trkpt lat="48.10515" lon="7.19177">
        <ele>694</ele>
        <time>2015-07-08T14:35:12.1Z</time>
      </trkpt>
      <trkpt lat="48.10514" lon="7.19162">
        <ele>694</ele>
        <time>2015-07-08T14:35:15.1Z</time>
      </trkpt>
      <trkpt lat="48.10512" lon="7.19152">
        <ele>694</ele>
        <time>2015-07-08T14:35:17.1Z</time>
      </trkpt>
      <trkpt lat="48.10506" lon="7.19138">
        <ele>694</ele>
        <time>2015-07-08T14:35:20.1Z</time>
      </trkpt>
      <trkpt lat="48.105" lon="7.19127">
        <ele>695</ele>
        <time>2015-07-08T14:35:22.1Z</time>
      </trkpt>
      <trkpt lat="48.10493" lon="7.1911">
        <ele>695</ele>
        <time>2015-07-08T14:35:25.1Z</time>
      </trkpt>
      <trkpt lat="48.10487" lon="7.19094">
        <ele>695</ele>
        <time>2015-07-08T14:35:28.1Z</time>
      </trkpt>
      <trkpt lat="48.10482" lon="7.19081">
        <ele>696</ele>
        <time>2015-07-08T14:35:30.1Z</time>
      </trkpt>
      <trkpt lat="48.10476" lon="7.19062">
        <ele>696</ele>
        <time>2015-07-08T14:35:33.1Z</time>
      </trkpt>
      <trkpt lat="48.10471" lon="7.19049">
        <ele>696</ele>
        <time>2015-07-08T14:35:35.1Z</time>
      </trkpt>
      <trkpt lat="48.10467" lon="7.19035">
        <ele>696</ele>
        <time>2015-07-08T14:35:37.1Z</time>
      </trkpt>
      <trkpt lat="48.10462" lon="7.1902">
        <ele>696</ele>
        <time>2015-07-08T14:35:39.1Z</time>
      </trkpt>
      <trkpt lat="48.10457" lon="7.19003">
        <ele>696</ele>
        <time>2015-07-08T14:35:42.1Z</time>
      </trkpt>
      <trkpt lat="48.10455" lon="7.18988">
        <ele>697</ele>
        <time>2015-07-08T14:35:45.1Z</time>
      </trkpt>
      <trkpt lat="48.10458" lon="7.1898">
        <ele>698</ele>
        <time>2015-07-08T14:35:47.1Z</time>
      </trkpt>
      <trkpt lat="48.10459" lon="7.18974">
        <ele>698</ele>
        <time>2015-07-08T14:35:49.1Z</time>
      </trkpt>
      <trkpt lat="48.1046" lon="7.18976">
        <ele>699</ele>
        <time>2015-07-08T14:35:51.1Z</time>
      </trkpt>
      <trkpt lat="48.10454" lon="7.18979">
        <ele>699</ele>
        <time>2015-07-08T14:35:54.1Z</time>
      </trkpt>
      <trkpt lat="48.1045" lon="7.18971">
        <ele>699</ele>
        <time>2015-07-08T14:35:57.1Z</time>
      </trkpt>
      <trkpt lat="48.10447" lon="7.18964">
        <ele>699</ele>
        <time>2015-07-08T14:35:59.1Z</time>
      </trkpt>
      <trkpt lat="48.10443" lon="7.18958">
        <ele>699</ele>
        <time>2015-07-08T14:36:01.1Z</time>
      </trkpt>
      <trkpt lat="48.10437" lon="7.18952">
        <ele>699</ele>
        <time>2015-07-08T14:36:03.1Z</time>
      </trkpt>
      <trkpt lat="48.10432" lon="7.18945">
        <ele>700</ele>
        <time>2015-07-08T14:36:05.1Z</time>
      </trkpt>
      <trkpt lat="48.10425" lon="7.18935">
        <ele>701</ele>
        <time>2015-07-08T14:36:08.1Z</time>
      </trkpt>
      <trkpt lat="48.10419" lon="7.18928">
        <ele>701</ele>
        <time>2015-07-08T14:36:10.1Z</time>
      </trkpt>
      <trkpt lat="48.10415" lon="7.18921">
        <ele>702</ele>
        <time>2015-07-08T14:36:12.1Z</time>
      </trkpt>
      <trkpt lat="48.10413" lon="7.18919">
        <ele>702</ele>
        <time>2015-07-08T14:36:14.1Z</time>
      </trkpt>
      <trkpt lat="48.10405" lon="7.18904">
        <ele>702</ele>
        <time>2015-07-08T14:36:16.1Z</time>
      </trkpt>
      <trkpt lat="48.10404" lon="7.18902">
        <ele>702</ele>
        <time>2015-07-08T14:36:18.1Z</time>
      </trkpt>
      <trkpt lat="48.10402" lon="7.18899">
        <ele>702</ele>
        <time>2015-07-08T14:36:21.1Z</time>
      </trkpt>
      <trkpt lat="48.10395" lon="7.1889">
        <ele>703</ele>
        <time>2015-07-08T14:36:23.1Z</time>
      </trkpt>
      <trkpt lat="48.1039" lon="7.18884">
        <ele>703</ele>
        <time>2015-07-08T14:36:25.1Z</time>
      </trkpt>
      <trkpt lat="48.10386" lon="7.18878">
        <ele>704</ele>
        <time>2015-07-08T14:36:27.1Z</time>
      </trkpt>
      <trkpt lat="48.10382" lon="7.18873">
        <ele>705</ele>
        <time>2015-07-08T14:36:29.1Z</time>
      </trkpt>
      <trkpt lat="48.10378" lon="7.18867">
        <ele>705</ele>
        <time>2015-07-08T14:36:31.1Z</time>
      </trkpt>
      <trkpt lat="48.10374" lon="7.18861">
        <ele>706</ele>
        <time>2015-07-08T14:36:33.1Z</time>
      </trkpt>
      <trkpt lat="48.10371" lon="7.18855">
        <ele>706</ele>
        <time>2015-07-08T14:36:35.1Z</time>
      </trkpt>
      <trkpt lat="48.10366" lon="7.18845">
        <ele>707</ele>
        <time>2015-07-08T14:36:38.1Z</time>
      </trkpt>
      <trkpt lat="48.10362" lon="7.18835">
        <ele>708</ele>
        <time>2015-07-08T14:36:41.1Z</time>
      </trkpt>
      <trkpt lat="48.10361" lon="7.18826">
        <ele>709</ele>
        <time>2015-07-08T14:36:44.1Z</time>
      </trkpt>
      <trkpt lat="48.10359" lon="7.18811">
        <ele>710</ele>
        <time>2015-07-08T14:36:46.1Z</time>
      </trkpt>
      <trkpt lat="48.10359" lon="7.18803">
        <ele>710</ele>
        <time>2015-07-08T14:36:48.1Z</time>
      </trkpt>
      <trkpt lat="48.10357" lon="7.18795">
        <ele>711</ele>
        <time>2015-07-08T14:36:50.1Z</time>
      </trkpt>
      <trkpt lat="48.10356" lon="7.18782">
        <ele>713</ele>
        <time>2015-07-08T14:36:54.1Z</time>
      </trkpt>
      <trkpt lat="48.10354" lon="7.18768">
        <ele>714</ele>
        <time>2015-07-08T14:36:56.1Z</time>
      </trkpt>
      <trkpt lat="48.10353" lon="7.18759">
        <ele>715</ele>
        <time>2015-07-08T14:36:58.1Z</time>
      </trkpt>
      <trkpt lat="48.10352" lon="7.18751">
        <ele>716</ele>
        <time>2015-07-08T14:37:00.1Z</time>
      </trkpt>
      <trkpt lat="48.10352" lon="7.18743">
        <ele>717</ele>
        <time>2015-07-08T14:37:02.1Z</time>
      </trkpt>
      <trkpt lat="48.10351" lon="7.18731">
        <ele>718</ele>
        <time>2015-07-08T14:37:05.1Z</time>
      </trkpt>
      <trkpt lat="48.1035" lon="7.18725">
        <ele>718</ele>
        <time>2015-07-08T14:37:07.1Z</time>
      </trkpt>
      <trkpt lat="48.10349" lon="7.18717">
        <ele>719</ele>
        <time>2015-07-08T14:37:10.1Z</time>
      </trkpt>
      <trkpt lat="48.1035" lon="7.18713">
        <ele>719</ele>
        <time>2015-07-08T14:37:12.1Z</time>
      </trkpt>
      <trkpt lat="48.10349" lon="7.18711">
        <ele>719</ele>
        <time>2015-07-08T14:37:14.1Z</time>
      </trkpt>
      <trkpt lat="48.10351" lon="7.18712">
        <ele>719</ele>
        <time>2015-07-08T14:37:17.1Z</time>
      </trkpt>
      <trkpt lat="48.10355" lon="7.18716">
        <ele>719</ele>
        <time>2015-07-08T14:37:19.1Z</time>
      </trkpt>
      <trkpt lat="48.10358" lon="7.1872">
        <ele>719</ele>
        <time>2015-07-08T14:37:21.1Z</time>
      </trkpt>
      <trkpt lat="48.10363" lon="7.18723">
        <ele>719</ele>
        <time>2015-07-08T14:37:23.1Z</time>
      </trkpt>
      <trkpt lat="48.10367" lon="7.18727">
        <ele>720</ele>
        <time>2015-07-08T14:37:25.1Z</time>
      </trkpt>
      <trkpt lat="48.10372" lon="7.1873">
        <ele>720</ele>
        <time>2015-07-08T14:37:27.1Z</time>
      </trkpt>
      <trkpt lat="48.10378" lon="7.18733">
        <ele>720</ele>
        <time>2015-07-08T14:37:29.1Z</time>
      </trkpt>
      <trkpt lat="48.10384" lon="7.18736">
        <ele>720</ele>
        <time>2015-07-08T14:37:31.1Z</time>
      </trkpt>
      <trkpt lat="48.1039" lon="7.18739">
        <ele>721</ele>
        <time>2015-07-08T14:37:33.1Z</time>
      </trkpt>
      <trkpt lat="48.10395" lon="7.18741">
        <ele>722</ele>
        <time>2015-07-08T14:37:35.1Z</time>
      </trkpt>
      <trkpt lat="48.10401" lon="7.18743">
        <ele>723</ele>
        <time>2015-07-08T14:37:38.1Z</time>
      </trkpt>
      <trkpt lat="48.1041" lon="7.18747">
        <ele>723</ele>
        <time>2015-07-08T14:37:40.1Z</time>
      </trkpt>
      <trkpt lat="48.10415" lon="7.1875">
        <ele>723</ele>
        <time>2015-07-08T14:37:42.1Z</time>
      </trkpt>
      <trkpt lat="48.10421" lon="7.18752">
        <ele>724</ele>
        <time>2015-07-08T14:37:44.1Z</time>
      </trkpt>
      <trkpt lat="48.10427" lon="7.18755">
        <ele>723</ele>
        <time>2015-07-08T14:37:46.1Z</time>
      </trkpt>
      <trkpt lat="48.10433" lon="7.18758">
        <ele>723</ele>
        <time>2015-07-08T14:37:48.1Z</time>
      </trkpt>
      <trkpt lat="48.1044" lon="7.18764">
        <ele>723</ele>
        <time>2015-07-08T14:37:50.1Z</time>
      </trkpt>
      <trkpt lat="48.10448" lon="7.18773">
        <ele>723</ele>
        <time>2015-07-08T14:37:52.1Z</time>
      </trkpt>
      <trkpt lat="48.10462" lon="7.18787">
        <ele>723</ele>
        <time>2015-07-08T14:37:55.1Z</time>
      </trkpt>
      <trkpt lat="48.10472" lon="7.18797">
        <ele>723</ele>
        <time>2015-07-08T14:37:57.1Z</time>
      </trkpt>
      <trkpt lat="48.10483" lon="7.18808">
        <ele>723</ele>
        <time>2015-07-08T14:38:00.1Z</time>
      </trkpt>
      <trkpt lat="48.105" lon="7.18822">
        <ele>724</ele>
        <time>2015-07-08T14:38:02.1Z</time>
      </trkpt>
      <trkpt lat="48.10511" lon="7.1883">
        <ele>725</ele>
        <time>2015-07-08T14:38:04.1Z</time>
      </trkpt>
      <trkpt lat="48.10522" lon="7.18837">
        <ele>725</ele>
        <time>2015-07-08T14:38:06.1Z</time>
      </trkpt>
      <trkpt lat="48.10533" lon="7.18843">
        <ele>726</ele>
        <time>2015-07-08T14:38:09.1Z</time>
      </trkpt>
      <trkpt lat="48.10549" lon="7.18853">
        <ele>726</ele>
        <time>2015-07-08T14:38:11.1Z</time>
      </trkpt>
      <trkpt lat="48.10565" lon="7.18858">
        <ele>726</ele>
        <time>2015-07-08T14:38:14.1Z</time>
      </trkpt>
      <trkpt lat="48.10575" lon="7.18861">
        <ele>726</ele>
        <time>2015-07-08T14:38:17.1Z</time>
      </trkpt>
      <trkpt lat="48.10592" lon="7.18865">
        <ele>726</ele>
        <time>2015-07-08T14:38:19.1Z</time>
      </trkpt>
      <trkpt lat="48.10603" lon="7.18865">
        <ele>726</ele>
        <time>2015-07-08T14:38:21.1Z</time>
      </trkpt>
      <trkpt lat="48.10614" lon="7.18859">
        <ele>726</ele>
        <time>2015-07-08T14:38:24.1Z</time>
      </trkpt>
      <trkpt lat="48.10623" lon="7.18839">
        <ele>726</ele>
        <time>2015-07-08T14:38:26.1Z</time>
      </trkpt>
      <trkpt lat="48.10628" lon="7.18824">
        <ele>726</ele>
        <time>2015-07-08T14:38:28.1Z</time>
      </trkpt>
      <trkpt lat="48.10635" lon="7.18808">
        <ele>727</ele>
        <time>2015-07-08T14:38:30.1Z</time>
      </trkpt>
      <trkpt lat="48.10651" lon="7.18791">
        <ele>727</ele>
        <time>2015-07-08T14:38:33.1Z</time>
      </trkpt>
      <trkpt lat="48.10664" lon="7.18786">
        <ele>727</ele>
        <time>2015-07-08T14:38:35.1Z</time>
      </trkpt>
      <trkpt lat="48.10678" lon="7.18785">
        <ele>727</ele>
        <time>2015-07-08T14:38:38.1Z</time>
      </trkpt>
      <trkpt lat="48.10699" lon="7.18791">
        <ele>726</ele>
        <time>2015-07-08T14:38:40.1Z</time>
      </trkpt>
      <trkpt lat="48.10712" lon="7.18798">
        <ele>725</ele>
        <time>2015-07-08T14:38:42.1Z</time>
      </trkpt>
      <trkpt lat="48.10725" lon="7.18805">
        <ele>725</ele>
        <time>2015-07-08T14:38:44.1Z</time>
      </trkpt>
      <trkpt lat="48.10745" lon="7.18815">
        <ele>724</ele>
        <time>2015-07-08T14:38:47.1Z</time>
      </trkpt>
      <trkpt lat="48.10765" lon="7.18827">
        <ele>724</ele>
        <time>2015-07-08T14:38:50.1Z</time>
      </trkpt>
      <trkpt lat="48.10786" lon="7.18841">
        <ele>724</ele>
        <time>2015-07-08T14:38:53.1Z</time>
      </trkpt>
      <trkpt lat="48.10797" lon="7.18846">
        <ele>723</ele>
        <time>2015-07-08T14:38:56.1Z</time>
      </trkpt>
      <trkpt lat="48.10803" lon="7.18845">
        <ele>721</ele>
        <time>2015-07-08T14:38:58.1Z</time>
      </trkpt>
      <trkpt lat="48.10807" lon="7.18843">
        <ele>720</ele>
        <time>2015-07-08T14:39:00.1Z</time>
      </trkpt>
      <trkpt lat="48.10813" lon="7.18834">
        <ele>718</ele>
        <time>2015-07-08T14:39:03.1Z</time>
      </trkpt>
      <trkpt lat="48.10817" lon="7.18826">
        <ele>719</ele>
        <time>2015-07-08T14:39:05.1Z</time>
      </trkpt>
      <trkpt lat="48.10821" lon="7.18818">
        <ele>719</ele>
        <time>2015-07-08T14:39:07.1Z</time>
      </trkpt>
      <trkpt lat="48.10824" lon="7.18809">
        <ele>720</ele>
        <time>2015-07-08T14:39:10.1Z</time>
      </trkpt>
      <trkpt lat="48.10831" lon="7.18793">
        <ele>721</ele>
        <time>2015-07-08T14:39:12.1Z</time>
      </trkpt>
      <trkpt lat="48.10839" lon="7.18775">
        <ele>723</ele>
        <time>2015-07-08T14:39:15.1Z</time>
      </trkpt>
      <trkpt lat="48.10845" lon="7.18764">
        <ele>723</ele>
        <time>2015-07-08T14:39:17.1Z</time>
      </trkpt>
      <trkpt lat="48.10852" lon="7.18755">
        <ele>724</ele>
        <time>2015-07-08T14:39:19.1Z</time>
      </trkpt>
      <trkpt lat="48.10859" lon="7.18747">
        <ele>723</ele>
        <time>2015-07-08T14:39:21.1Z</time>
      </trkpt>
      <trkpt lat="48.10866" lon="7.18738">
        <ele>723</ele>
        <time>2015-07-08T14:39:23.1Z</time>
      </trkpt>
      <trkpt lat="48.10875" lon="7.18727">
        <ele>722</ele>
        <time>2015-07-08T14:39:25.1Z</time>
      </trkpt>
      <trkpt lat="48.10886" lon="7.18716">
        <ele>722</ele>
        <time>2015-07-08T14:39:27.1Z</time>
      </trkpt>
      <trkpt lat="48.10907" lon="7.18709">
        <ele>720</ele>
        <time>2015-07-08T14:39:30.1Z</time>
      </trkpt>
      <trkpt lat="48.10923" lon="7.18707">
        <ele>721</ele>
        <time>2015-07-08T14:39:33.1Z</time>
      </trkpt>
      <trkpt lat="48.10946" lon="7.18707">
        <ele>719</ele>
        <time>2015-07-08T14:39:35.1Z</time>
      </trkpt>
      <trkpt lat="48.10962" lon="7.18709">
        <ele>718</ele>
        <time>2015-07-08T14:39:37.1Z</time>
      </trkpt>
      <trkpt lat="48.10985" lon="7.1871">
        <ele>715</ele>
        <time>2015-07-08T14:39:40.1Z</time>
      </trkpt>
      <trkpt lat="48.11001" lon="7.18707">
        <ele>714</ele>
        <time>2015-07-08T14:39:43.1Z</time>
      </trkpt>
      <trkpt lat="48.11027" lon="7.18701">
        <ele>714</ele>
        <time>2015-07-08T14:39:45.1Z</time>
      </trkpt>
      <trkpt lat="48.11045" lon="7.18698">
        <ele>713</ele>
        <time>2015-07-08T14:39:47.1Z</time>
      </trkpt>
      <trkpt lat="48.11064" lon="7.18698">
        <ele>712</ele>
        <time>2015-07-08T14:39:50.1Z</time>
      </trkpt>
      <trkpt lat="48.11096" lon="7.18706">
        <ele>711</ele>
        <time>2015-07-08T14:39:52.1Z</time>
      </trkpt>
      <trkpt lat="48.11115" lon="7.18706">
        <ele>709</ele>
        <time>2015-07-08T14:39:54.1Z</time>
      </trkpt>
      <trkpt lat="48.11141" lon="7.18698">
        <ele>706</ele>
        <time>2015-07-08T14:39:57.1Z</time>
      </trkpt>
      <trkpt lat="48.11159" lon="7.18697">
        <ele>705</ele>
        <time>2015-07-08T14:39:59.1Z</time>
      </trkpt>
      <trkpt lat="48.11178" lon="7.18702">
        <ele>703</ele>
        <time>2015-07-08T14:40:02.1Z</time>
      </trkpt>
      <trkpt lat="48.11211" lon="7.18705">
        <ele>701</ele>
        <time>2015-07-08T14:40:04.1Z</time>
      </trkpt>
      <trkpt lat="48.11249" lon="7.18705">
        <ele>699</ele>
        <time>2015-07-08T14:40:07.1Z</time>
      </trkpt>
      <trkpt lat="48.11287" lon="7.18699">
        <ele>697</ele>
        <time>2015-07-08T14:40:10.1Z</time>
      </trkpt>
      <trkpt lat="48.1131" lon="7.18695">
        <ele>695</ele>
        <time>2015-07-08T14:40:12.1Z</time>
      </trkpt>
      <trkpt lat="48.11332" lon="7.18693">
        <ele>692</ele>
        <time>2015-07-08T14:40:15.1Z</time>
      </trkpt>
      <trkpt lat="48.11351" lon="7.18693">
        <ele>688</ele>
        <time>2015-07-08T14:40:17.1Z</time>
      </trkpt>
      <trkpt lat="48.11356" lon="7.18695">
        <ele>685</ele>
        <time>2015-07-08T14:40:19.1Z</time>
      </trkpt>
      <trkpt lat="48.1136" lon="7.18705">
        <ele>680</ele>
        <time>2015-07-08T14:40:22.1Z</time>
      </trkpt>
      <trkpt lat="48.11364" lon="7.18711">
        <ele>677</ele>
        <time>2015-07-08T14:40:25.1Z</time>
      </trkpt>
      <trkpt lat="48.11365" lon="7.18705">
        <ele>677</ele>
        <time>2015-07-08T14:40:27.1Z</time>
      </trkpt>
      <trkpt lat="48.1137" lon="7.18701">
        <ele>677</ele>
        <time>2015-07-08T14:40:29.1Z</time>
      </trkpt>
      <trkpt lat="48.11378" lon="7.18699">
        <ele>678</ele>
        <time>2015-07-08T14:40:31.1Z</time>
      </trkpt>
      <trkpt lat="48.11393" lon="7.18695">
        <ele>680</ele>
        <time>2015-07-08T14:40:34.1Z</time>
      </trkpt>
      <trkpt lat="48.11409" lon="7.1869">
        <ele>681</ele>
        <time>2015-07-08T14:40:37.1Z</time>
      </trkpt>
      <trkpt lat="48.11422" lon="7.18688">
        <ele>682</ele>
        <time>2015-07-08T14:40:40.1Z</time>
      </trkpt>
      <trkpt lat="48.11436" lon="7.18687">
        <ele>682</ele>
        <time>2015-07-08T14:40:43.1Z</time>
      </trkpt>
      <trkpt lat="48.11446" lon="7.18685">
        <ele>682</ele>
        <time>2015-07-08T14:40:45.1Z</time>
      </trkpt>
      <trkpt lat="48.11459" lon="7.18681">
        <ele>683</ele>
        <time>2015-07-08T14:40:48.1Z</time>
      </trkpt>
      <trkpt lat="48.11467" lon="7.18677">
        <ele>683</ele>
        <time>2015-07-08T14:40:50.1Z</time>
      </trkpt>
      <trkpt lat="48.11474" lon="7.18672">
        <ele>684</ele>
        <time>2015-07-08T14:40:52.1Z</time>
      </trkpt>
      <trkpt lat="48.11481" lon="7.18667">
        <ele>685</ele>
        <time>2015-07-08T14:40:54.1Z</time>
      </trkpt>
      <trkpt lat="48.11487" lon="7.18663">
        <ele>686</ele>
        <time>2015-07-08T14:40:56.1Z</time>
      </trkpt>
      <trkpt lat="48.11499" lon="7.18652">
        <ele>687</ele>
        <time>2015-07-08T14:40:58.1Z</time>
      </trkpt>
      <trkpt lat="48.11504" lon="7.18648">
        <ele>687</ele>
        <time>2015-07-08T14:41:00.1Z</time>
      </trkpt>
      <trkpt lat="48.11511" lon="7.18639">
        <ele>687</ele>
        <time>2015-07-08T14:41:03.1Z</time>
      </trkpt>
      <trkpt lat="48.11517" lon="7.18631">
        <ele>688</ele>
        <time>2015-07-08T14:41:05.1Z</time>
      </trkpt>
      <trkpt lat="48.11523" lon="7.18621">
        <ele>688</ele>
        <time>2015-07-08T14:41:07.1Z</time>
      </trkpt>
      <trkpt lat="48.1153" lon="7.18609">
        <ele>688</ele>
        <time>2015-07-08T14:41:09.1Z</time>
      </trkpt>
      <trkpt lat="48.11537" lon="7.18595">
        <ele>688</ele>
        <time>2015-07-08T14:41:11.1Z</time>
      </trkpt>
      <trkpt lat="48.11549" lon="7.1857">
        <ele>688</ele>
        <time>2015-07-08T14:41:14.1Z</time>
      </trkpt>
      <trkpt lat="48.11557" lon="7.18554">
        <ele>688</ele>
        <time>2015-07-08T14:41:16.1Z</time>
      </trkpt>
      <trkpt lat="48.11577" lon="7.18541">
        <ele>688</ele>
        <time>2015-07-08T14:41:19.1Z</time>
      </trkpt>
      <trkpt lat="48.11592" lon="7.18539">
        <ele>688</ele>
        <time>2015-07-08T14:41:21.1Z</time>
      </trkpt>
      <trkpt lat="48.11615" lon="7.18541">
        <ele>688</ele>
        <time>2015-07-08T14:41:24.1Z</time>
      </trkpt>
      <trkpt lat="48.11637" lon="7.18539">
        <ele>687</ele>
        <time>2015-07-08T14:41:27.1Z</time>
      </trkpt>
      <trkpt lat="48.1165" lon="7.18533">
        <ele>687</ele>
        <time>2015-07-08T14:41:29.1Z</time>
      </trkpt>
      <trkpt lat="48.11661" lon="7.18524">
        <ele>686</ele>
        <time>2015-07-08T14:41:31.1Z</time>
      </trkpt>
      <trkpt lat="48.1167" lon="7.18511">
        <ele>685</ele>
        <time>2015-07-08T14:41:33.1Z</time>
      </trkpt>
      <trkpt lat="48.11684" lon="7.18487">
        <ele>685</ele>
        <time>2015-07-08T14:41:36.1Z</time>
      </trkpt>
      <trkpt lat="48.11695" lon="7.18469">
        <ele>685</ele>
        <time>2015-07-08T14:41:38.1Z</time>
      </trkpt>
      <trkpt lat="48.11708" lon="7.18455">
        <ele>685</ele>
        <time>2015-07-08T14:41:40.1Z</time>
      </trkpt>
      <trkpt lat="48.11723" lon="7.1845">
        <ele>686</ele>
        <time>2015-07-08T14:41:42.1Z</time>
      </trkpt>
      <trkpt lat="48.11737" lon="7.18454">
        <ele>686</ele>
        <time>2015-07-08T14:41:44.1Z</time>
      </trkpt>
      <trkpt lat="48.11755" lon="7.18461">
        <ele>685</ele>
        <time>2015-07-08T14:41:47.1Z</time>
      </trkpt>
      <trkpt lat="48.11766" lon="7.18465">
        <ele>684</ele>
        <time>2015-07-08T14:41:49.1Z</time>
      </trkpt>
      <trkpt lat="48.11776" lon="7.18466">
        <ele>683</ele>
        <time>2015-07-08T14:41:51.1Z</time>
      </trkpt>
      <trkpt lat="48.11784" lon="7.18466">
        <ele>683</ele>
        <time>2015-07-08T14:41:53.1Z</time>
      </trkpt>
      <trkpt lat="48.118" lon="7.18462">
        <ele>682</ele>
        <time>2015-07-08T14:41:56.1Z</time>
      </trkpt>
      <trkpt lat="48.11814" lon="7.18455">
        <ele>682</ele>
        <time>2015-07-08T14:41:58.1Z</time>
      </trkpt>
      <trkpt lat="48.1184" lon="7.1844">
        <ele>683</ele>
        <time>2015-07-08T14:42:01.1Z</time>
      </trkpt>
      <trkpt lat="48.11856" lon="7.18425">
        <ele>684</ele>
        <time>2015-07-08T14:42:03.1Z</time>
      </trkpt>
      <trkpt lat="48.11879" lon="7.18397">
        <ele>684</ele>
        <time>2015-07-08T14:42:06.1Z</time>
      </trkpt>
      <trkpt lat="48.11897" lon="7.18362">
        <ele>683</ele>
        <time>2015-07-08T14:42:09.1Z</time>
      </trkpt>
      <trkpt lat="48.11904" lon="7.18341">
        <ele>679</ele>
        <time>2015-07-08T14:42:11.1Z</time>
      </trkpt>
      <trkpt lat="48.11911" lon="7.18318">
        <ele>674</ele>
        <time>2015-07-08T14:42:13.1Z</time>
      </trkpt>
      <trkpt lat="48.11921" lon="7.18284">
        <ele>670</ele>
        <time>2015-07-08T14:42:16.1Z</time>
      </trkpt>
      <trkpt lat="48.1193" lon="7.18263">
        <ele>667</ele>
        <time>2015-07-08T14:42:18.1Z</time>
      </trkpt>
      <trkpt lat="48.11943" lon="7.18246">
        <ele>665</ele>
        <time>2015-07-08T14:42:20.1Z</time>
      </trkpt>
      <trkpt lat="48.11959" lon="7.18229">
        <ele>663</ele>
        <time>2015-07-08T14:42:22.1Z</time>
      </trkpt>
      <trkpt lat="48.11983" lon="7.18204">
        <ele>661</ele>
        <time>2015-07-08T14:42:25.1Z</time>
      </trkpt>
      <trkpt lat="48.11998" lon="7.18189">
        <ele>660</ele>
        <time>2015-07-08T14:42:27.1Z</time>
      </trkpt>
      <trkpt lat="48.12012" lon="7.18176">
        <ele>659</ele>
        <time>2015-07-08T14:42:29.1Z</time>
      </trkpt>
      <trkpt lat="48.1203" lon="7.18158">
        <ele>658</ele>
        <time>2015-07-08T14:42:32.1Z</time>
      </trkpt>
      <trkpt lat="48.12042" lon="7.18149">
        <ele>657</ele>
        <time>2015-07-08T14:42:34.1Z</time>
      </trkpt>
      <trkpt lat="48.12052" lon="7.18141">
        <ele>657</ele>
        <time>2015-07-08T14:42:36.1Z</time>
      </trkpt>
      <trkpt lat="48.12061" lon="7.18133">
        <ele>657</ele>
        <time>2015-07-08T14:42:38.1Z</time>
      </trkpt>
      <trkpt lat="48.12071" lon="7.18124">
        <ele>658</ele>
        <time>2015-07-08T14:42:41.1Z</time>
      </trkpt>
      <trkpt lat="48.12078" lon="7.18118">
        <ele>658</ele>
        <time>2015-07-08T14:42:43.1Z</time>
      </trkpt>
      <trkpt lat="48.1209" lon="7.1811">
        <ele>658</ele>
        <time>2015-07-08T14:42:46.1Z</time>
      </trkpt>
      <trkpt lat="48.12099" lon="7.18098">
        <ele>659</ele>
        <time>2015-07-08T14:42:49.1Z</time>
      </trkpt>
      <trkpt lat="48.12104" lon="7.1809">
        <ele>660</ele>
        <time>2015-07-08T14:42:52.1Z</time>
      </trkpt>
      <trkpt lat="48.12107" lon="7.18084">
        <ele>661</ele>
        <time>2015-07-08T14:42:54.1Z</time>
      </trkpt>
      <trkpt lat="48.12114" lon="7.18075">
        <ele>661</ele>
        <time>2015-07-08T14:42:57.1Z</time>
      </trkpt>
      <trkpt lat="48.12121" lon="7.18068">
        <ele>661</ele>
        <time>2015-07-08T14:42:59.1Z</time>
      </trkpt>
      <trkpt lat="48.12138" lon="7.18065">
        <ele>660</ele>
        <time>2015-07-08T14:43:02.1Z</time>
      </trkpt>
      <trkpt lat="48.12158" lon="7.18066">
        <ele>660</ele>
        <time>2015-07-08T14:43:05.1Z</time>
      </trkpt>
      <trkpt lat="48.1217" lon="7.18063">
        <ele>659</ele>
        <time>2015-07-08T14:43:07.1Z</time>
      </trkpt>
      <trkpt lat="48.1218" lon="7.18052">
        <ele>658</ele>
        <time>2015-07-08T14:43:09.1Z</time>
      </trkpt>
      <trkpt lat="48.12192" lon="7.18038">
        <ele>657</ele>
        <time>2015-07-08T14:43:11.1Z</time>
      </trkpt>
      <trkpt lat="48.12203" lon="7.18018">
        <ele>655</ele>
        <time>2015-07-08T14:43:13.1Z</time>
      </trkpt>
      <trkpt lat="48.12216" lon="7.17988">
        <ele>653</ele>
        <time>2015-07-08T14:43:16.1Z</time>
      </trkpt>
      <trkpt lat="48.12228" lon="7.17968">
        <ele>648</ele>
        <time>2015-07-08T14:43:19.1Z</time>
      </trkpt>
      <trkpt lat="48.12235" lon="7.17954">
        <ele>644</ele>
        <time>2015-07-08T14:43:21.1Z</time>
      </trkpt>
      <trkpt lat="48.12238" lon="7.17931">
        <ele>639</ele>
        <time>2015-07-08T14:43:24.1Z</time>
      </trkpt>
      <trkpt lat="48.12236" lon="7.17917">
        <ele>638</ele>
        <time>2015-07-08T14:43:26.1Z</time>
      </trkpt>
      <trkpt lat="48.12238" lon="7.17901">
        <ele>637</ele>
        <time>2015-07-08T14:43:28.1Z</time>
      </trkpt>
      <trkpt lat="48.12238" lon="7.17883">
        <ele>635</ele>
        <time>2015-07-08T14:43:30.1Z</time>
      </trkpt>
      <trkpt lat="48.12234" lon="7.17865">
        <ele>633</ele>
        <time>2015-07-08T14:43:32.1Z</time>
      </trkpt>
      <trkpt lat="48.12229" lon="7.17846">
        <ele>631</ele>
        <time>2015-07-08T14:43:34.1Z</time>
      </trkpt>
      <trkpt lat="48.12225" lon="7.17818">
        <ele>628</ele>
        <time>2015-07-08T14:43:37.1Z</time>
      </trkpt>
      <trkpt lat="48.12222" lon="7.1779">
        <ele>622</ele>
        <time>2015-07-08T14:43:40.1Z</time>
      </trkpt>
      <trkpt lat="48.1222" lon="7.17775">
        <ele>617</ele>
        <time>2015-07-08T14:43:42.1Z</time>
      </trkpt>
      <trkpt lat="48.12215" lon="7.17752">
        <ele>613</ele>
        <time>2015-07-08T14:43:45.1Z</time>
      </trkpt>
      <trkpt lat="48.12206" lon="7.1772">
        <ele>609</ele>
        <time>2015-07-08T14:43:48.1Z</time>
      </trkpt>
      <trkpt lat="48.12202" lon="7.17697">
        <ele>609</ele>
        <time>2015-07-08T14:43:50.1Z</time>
      </trkpt>
      <trkpt lat="48.12197" lon="7.17674">
        <ele>606</ele>
        <time>2015-07-08T14:43:52.1Z</time>
      </trkpt>
      <trkpt lat="48.12195" lon="7.17651">
        <ele>603</ele>
        <time>2015-07-08T14:43:55.1Z</time>
      </trkpt>
      <trkpt lat="48.12198" lon="7.17639">
        <ele>600</ele>
        <time>2015-07-08T14:43:57.1Z</time>
      </trkpt>
      <trkpt lat="48.12202" lon="7.17631">
        <ele>597</ele>
        <time>2015-07-08T14:43:59.1Z</time>
      </trkpt>
      <trkpt lat="48.12208" lon="7.17625">
        <ele>594</ele>
        <time>2015-07-08T14:44:01.1Z</time>
      </trkpt>
      <trkpt lat="48.1222" lon="7.17606">
        <ele>593</ele>
        <time>2015-07-08T14:44:04.1Z</time>
      </trkpt>
      <trkpt lat="48.12233" lon="7.17579">
        <ele>593</ele>
        <time>2015-07-08T14:44:07.1Z</time>
      </trkpt>
      <trkpt lat="48.12241" lon="7.17555">
        <ele>591</ele>
        <time>2015-07-08T14:44:09.1Z</time>
      </trkpt>
      <trkpt lat="48.1225" lon="7.17529">
        <ele>591</ele>
        <time>2015-07-08T14:44:11.1Z</time>
      </trkpt>
      <trkpt lat="48.12266" lon="7.17489">
        <ele>588</ele>
        <time>2015-07-08T14:44:14.1Z</time>
      </trkpt>
      <trkpt lat="48.12277" lon="7.17461">
        <ele>587</ele>
        <time>2015-07-08T14:44:16.1Z</time>
      </trkpt>
      <trkpt lat="48.12286" lon="7.17434">
        <ele>584</ele>
        <time>2015-07-08T14:44:18.1Z</time>
      </trkpt>
      <trkpt lat="48.12299" lon="7.174">
        <ele>580</ele>
        <time>2015-07-08T14:44:21.1Z</time>
      </trkpt>
      <trkpt lat="48.1231" lon="7.17378">
        <ele>576</ele>
        <time>2015-07-08T14:44:23.1Z</time>
      </trkpt>
      <trkpt lat="48.12323" lon="7.17358">
        <ele>571</ele>
        <time>2015-07-08T14:44:25.1Z</time>
      </trkpt>
      <trkpt lat="48.12335" lon="7.17343">
        <ele>566</ele>
        <time>2015-07-08T14:44:27.1Z</time>
      </trkpt>
      <trkpt lat="48.12344" lon="7.17331">
        <ele>562</ele>
        <time>2015-07-08T14:44:29.1Z</time>
      </trkpt>
      <trkpt lat="48.12353" lon="7.17307">
        <ele>558</ele>
        <time>2015-07-08T14:44:32.1Z</time>
      </trkpt>
      <trkpt lat="48.12365" lon="7.17279">
        <ele>552</ele>
        <time>2015-07-08T14:44:35.1Z</time>
      </trkpt>
      <trkpt lat="48.12376" lon="7.17255">
        <ele>548</ele>
        <time>2015-07-08T14:44:38.1Z</time>
      </trkpt>
      <trkpt lat="48.12387" lon="7.1723">
        <ele>543</ele>
        <time>2015-07-08T14:44:41.1Z</time>
      </trkpt>
      <trkpt lat="48.12397" lon="7.172">
        <ele>540</ele>
        <time>2015-07-08T14:44:44.1Z</time>
      </trkpt>
      <trkpt lat="48.12399" lon="7.17182">
        <ele>538</ele>
        <time>2015-07-08T14:44:46.1Z</time>
      </trkpt>
      <trkpt lat="48.12403" lon="7.17164">
        <ele>536</ele>
        <time>2015-07-08T14:44:48.1Z</time>
      </trkpt>
      <trkpt lat="48.12407" lon="7.17144">
        <ele>533</ele>
        <time>2015-07-08T14:44:50.1Z</time>
      </trkpt>
      <trkpt lat="48.12412" lon="7.17126">
        <ele>529</ele>
        <time>2015-07-08T14:44:52.1Z</time>
      </trkpt>
      <trkpt lat="48.12419" lon="7.17101">
        <ele>525</ele>
        <time>2015-07-08T14:44:55.1Z</time>
      </trkpt>
      <trkpt lat="48.1242" lon="7.1709">
        <ele>522</ele>
        <time>2015-07-08T14:44:57.1Z</time>
      </trkpt>
      <trkpt lat="48.12421" lon="7.17082">
        <ele>520</ele>
        <time>2015-07-08T14:44:59.1Z</time>
      </trkpt>
      <trkpt lat="48.12421" lon="7.17075">
        <ele>518</ele>
        <time>2015-07-08T14:45:01.1Z</time>
      </trkpt>
      <trkpt lat="48.12421" lon="7.17064">
        <ele>517</ele>
        <time>2015-07-08T14:45:04.1Z</time>
      </trkpt>
      <trkpt lat="48.1242" lon="7.17048">
        <ele>516</ele>
        <time>2015-07-08T14:45:07.1Z</time>
      </trkpt>
      <trkpt lat="48.12417" lon="7.17032">
        <ele>515</ele>
        <time>2015-07-08T14:45:09.1Z</time>
      </trkpt>
      <trkpt lat="48.12416" lon="7.17012">
        <ele>514</ele>
        <time>2015-07-08T14:45:11.1Z</time>
      </trkpt>
      <trkpt lat="48.12417" lon="7.16993">
        <ele>513</ele>
        <time>2015-07-08T14:45:13.1Z</time>
      </trkpt>
      <trkpt lat="48.12417" lon="7.16978">
        <ele>510</ele>
        <time>2015-07-08T14:45:15.1Z</time>
      </trkpt>
      <trkpt lat="48.12417" lon="7.16962">
        <ele>507</ele>
        <time>2015-07-08T14:45:17.1Z</time>
      </trkpt>
      <trkpt lat="48.12417" lon="7.16942">
        <ele>504</ele>
        <time>2015-07-08T14:45:19.1Z</time>
      </trkpt>
      <trkpt lat="48.12412" lon="7.16913">
        <ele>502</ele>
        <time>2015-07-08T14:45:22.1Z</time>
      </trkpt>
      <trkpt lat="48.12409" lon="7.16893">
        <ele>499</ele>
        <time>2015-07-08T14:45:24.1Z</time>
      </trkpt>
      <trkpt lat="48.1241" lon="7.16862">
        <ele>494</ele>
        <time>2015-07-08T14:45:27.1Z</time>
      </trkpt>
      <trkpt lat="48.12412" lon="7.16849">
        <ele>490</ele>
        <time>2015-07-08T14:45:29.1Z</time>
      </trkpt>
      <trkpt lat="48.12414" lon="7.16842">
        <ele>486</ele>
        <time>2015-07-08T14:45:31.1Z</time>
      </trkpt>
      <trkpt lat="48.12414" lon="7.16828">
        <ele>482</ele>
        <time>2015-07-08T14:45:34.1Z</time>
      </trkpt>
      <trkpt lat="48.12417" lon="7.16799">
        <ele>479</ele>
        <time>2015-07-08T14:45:37.1Z</time>
      </trkpt>
      <trkpt lat="48.1242" lon="7.16783">
        <ele>476</ele>
        <time>2015-07-08T14:45:39.1Z</time>
      </trkpt>
      <trkpt lat="48.12424" lon="7.16755">
        <ele>471</ele>
        <time>2015-07-08T14:45:42.1Z</time>
      </trkpt>
      <trkpt lat="48.12427" lon="7.16733">
        <ele>467</ele>
        <time>2015-07-08T14:45:44.1Z</time>
      </trkpt>
      <trkpt lat="48.1243" lon="7.16711">
        <ele>464</ele>
        <time>2015-07-08T14:45:46.1Z</time>
      </trkpt>
      <trkpt lat="48.12434" lon="7.16692">
        <ele>460</ele>
        <time>2015-07-08T14:45:48.1Z</time>
      </trkpt>
      <trkpt lat="48.12439" lon="7.16665">
        <ele>457</ele>
        <time>2015-07-08T14:45:51.1Z</time>
      </trkpt>
      <trkpt lat="48.1244" lon="7.16628">
        <ele>454</ele>
        <time>2015-07-08T14:45:54.1Z</time>
      </trkpt>
      <trkpt lat="48.12447" lon="7.16592">
        <ele>450</ele>
        <time>2015-07-08T14:45:57.1Z</time>
      </trkpt>
      <trkpt lat="48.1245" lon="7.16572">
        <ele>447</ele>
        <time>2015-07-08T14:45:59.1Z</time>
      </trkpt>
      <trkpt lat="48.1245" lon="7.16554">
        <ele>443</ele>
        <time>2015-07-08T14:46:01.1Z</time>
      </trkpt>
      <trkpt lat="48.12451" lon="7.16543">
        <ele>439</ele>
        <time>2015-07-08T14:46:03.1Z</time>
      </trkpt>
      <trkpt lat="48.12453" lon="7.16535">
        <ele>436</ele>
        <time>2015-07-08T14:46:06.1Z</time>
      </trkpt>
      <trkpt lat="48.12458" lon="7.16532">
        <ele>434</ele>
        <time>2015-07-08T14:46:08.1Z</time>
      </trkpt>
      <trkpt lat="48.12464" lon="7.16528">
        <ele>433</ele>
        <time>2015-07-08T14:46:10.1Z</time>
      </trkpt>
      <trkpt lat="48.12472" lon="7.16523">
        <ele>433</ele>
        <time>2015-07-08T14:46:12.1Z</time>
      </trkpt>
      <trkpt lat="48.12487" lon="7.16514">
        <ele>433</ele>
        <time>2015-07-08T14:46:15.1Z</time>
      </trkpt>
      <trkpt lat="48.12498" lon="7.16509">
        <ele>433</ele>
        <time>2015-07-08T14:46:17.1Z</time>
      </trkpt>
      <trkpt lat="48.12517" lon="7.16504">
        <ele>433</ele>
        <time>2015-07-08T14:46:20.1Z</time>
      </trkpt>
      <trkpt lat="48.1253" lon="7.16502">
        <ele>433</ele>
        <time>2015-07-08T14:46:22.1Z</time>
      </trkpt>
      <trkpt lat="48.12549" lon="7.165">
        <ele>433</ele>
        <time>2015-07-08T14:46:25.1Z</time>
      </trkpt>
      <trkpt lat="48.12568" lon="7.16499">
        <ele>432</ele>
        <time>2015-07-08T14:46:28.1Z</time>
      </trkpt>
      <trkpt lat="48.12579" lon="7.16498">
        <ele>432</ele>
        <time>2015-07-08T14:46:30.1Z</time>
      </trkpt>
      <trkpt lat="48.12591" lon="7.16498">
        <ele>431</ele>
        <time>2015-07-08T14:46:32.1Z</time>
      </trkpt>
      <trkpt lat="48.12603" lon="7.165">
        <ele>430</ele>
        <time>2015-07-08T14:46:34.1Z</time>
      </trkpt>
      <trkpt lat="48.12612" lon="7.16501">
        <ele>430</ele>
        <time>2015-07-08T14:46:36.1Z</time>
      </trkpt>
      <trkpt lat="48.12621" lon="7.16495">
        <ele>429</ele>
        <time>2015-07-08T14:46:39.1Z</time>
      </trkpt>
      <trkpt lat="48.12625" lon="7.16484">
        <ele>428</ele>
        <time>2015-07-08T14:46:41.1Z</time>
      </trkpt>
      <trkpt lat="48.12626" lon="7.16471">
        <ele>427</ele>
        <time>2015-07-08T14:46:43.1Z</time>
      </trkpt>
      <trkpt lat="48.12627" lon="7.16457">
        <ele>428</ele>
        <time>2015-07-08T14:46:45.1Z</time>
      </trkpt>
      <trkpt lat="48.12629" lon="7.16434">
        <ele>429</ele>
        <time>2015-07-08T14:46:48.1Z</time>
      </trkpt>
      <trkpt lat="48.12631" lon="7.1642">
        <ele>429</ele>
        <time>2015-07-08T14:46:50.1Z</time>
      </trkpt>
      <trkpt lat="48.12633" lon="7.16399">
        <ele>430</ele>
        <time>2015-07-08T14:46:53.1Z</time>
      </trkpt>
      <trkpt lat="48.12634" lon="7.16387">
        <ele>430</ele>
        <time>2015-07-08T14:46:55.1Z</time>
      </trkpt>
      <trkpt lat="48.12634" lon="7.16375">
        <ele>430</ele>
        <time>2015-07-08T14:46:57.1Z</time>
      </trkpt>
      <trkpt lat="48.12635" lon="7.16357">
        <ele>431</ele>
        <time>2015-07-08T14:47:00.1Z</time>
      </trkpt>
      <trkpt lat="48.12636" lon="7.16344">
        <ele>432</ele>
        <time>2015-07-08T14:47:02.1Z</time>
      </trkpt>
      <trkpt lat="48.12637" lon="7.16323">
        <ele>433</ele>
        <time>2015-07-08T14:47:05.1Z</time>
      </trkpt>
      <trkpt lat="48.12638" lon="7.16304">
        <ele>434</ele>
        <time>2015-07-08T14:47:08.1Z</time>
      </trkpt>
      <trkpt lat="48.1264" lon="7.16288">
        <ele>434</ele>
        <time>2015-07-08T14:47:11.1Z</time>
      </trkpt>
      <trkpt lat="48.1264" lon="7.16278">
        <ele>434</ele>
        <time>2015-07-08T14:47:13.1Z</time>
      </trkpt>
      <trkpt lat="48.12641" lon="7.16263">
        <ele>434</ele>
        <time>2015-07-08T14:47:16.1Z</time>
      </trkpt>
      <trkpt lat="48.12641" lon="7.16253">
        <ele>435</ele>
        <time>2015-07-08T14:47:18.1Z</time>
      </trkpt>
      <trkpt lat="48.12642" lon="7.16235">
        <ele>436</ele>
        <time>2015-07-08T14:47:21.1Z</time>
      </trkpt>
      <trkpt lat="48.12643" lon="7.16224">
        <ele>436</ele>
        <time>2015-07-08T14:47:23.1Z</time>
      </trkpt>
      <trkpt lat="48.12644" lon="7.16208">
        <ele>437</ele>
        <time>2015-07-08T14:47:26.1Z</time>
      </trkpt>
      <trkpt lat="48.12645" lon="7.16198">
        <ele>437</ele>
        <time>2015-07-08T14:47:28.1Z</time>
      </trkpt>
      <trkpt lat="48.12646" lon="7.16185">
        <ele>438</ele>
        <time>2015-07-08T14:47:31.1Z</time>
      </trkpt>
      <trkpt lat="48.12648" lon="7.1617">
        <ele>438</ele>
        <time>2015-07-08T14:47:34.1Z</time>
      </trkpt>
      <trkpt lat="48.12648" lon="7.1616">
        <ele>438</ele>
        <time>2015-07-08T14:47:36.1Z</time>
      </trkpt>
      <trkpt lat="48.12648" lon="7.16144">
        <ele>439</ele>
        <time>2015-07-08T14:47:39.1Z</time>
      </trkpt>
      <trkpt lat="48.12648" lon="7.16133">
        <ele>439</ele>
        <time>2015-07-08T14:47:41.1Z</time>
      </trkpt>
      <trkpt lat="48.12646" lon="7.16115">
        <ele>441</ele>
        <time>2015-07-08T14:47:44.1Z</time>
      </trkpt>
      <trkpt lat="48.12645" lon="7.16104">
        <ele>441</ele>
        <time>2015-07-08T14:47:46.1Z</time>
      </trkpt>
      <trkpt lat="48.12644" lon="7.16091">
        <ele>441</ele>
        <time>2015-07-08T14:47:48.1Z</time>
      </trkpt>
      <trkpt lat="48.12642" lon="7.16073">
        <ele>442</ele>
        <time>2015-07-08T14:47:51.1Z</time>
      </trkpt>
      <trkpt lat="48.1264" lon="7.16062">
        <ele>442</ele>
        <time>2015-07-08T14:47:53.1Z</time>
      </trkpt>
      <trkpt lat="48.12639" lon="7.16051">
        <ele>442</ele>
        <time>2015-07-08T14:47:55.1Z</time>
      </trkpt>
      <trkpt lat="48.12637" lon="7.1604">
        <ele>442</ele>
        <time>2015-07-08T14:47:57.1Z</time>
      </trkpt>
      <trkpt lat="48.12636" lon="7.16024">
        <ele>443</ele>
        <time>2015-07-08T14:48:00.1Z</time>
      </trkpt>
      <trkpt lat="48.12635" lon="7.16015">
        <ele>443</ele>
        <time>2015-07-08T14:48:02.1Z</time>
      </trkpt>
      <trkpt lat="48.12635" lon="7.16001">
        <ele>443</ele>
        <time>2015-07-08T14:48:05.1Z</time>
      </trkpt>
      <trkpt lat="48.12635" lon="7.15992">
        <ele>443</ele>
        <time>2015-07-08T14:48:07.1Z</time>
      </trkpt>
      <trkpt lat="48.12635" lon="7.15985">
        <ele>443</ele>
        <time>2015-07-08T14:48:10.1Z</time>
      </trkpt>
      <trkpt lat="48.12635" lon="7.15981">
        <ele>443</ele>
        <time>2015-07-08T14:48:12.1Z</time>
      </trkpt>
      <trkpt lat="48.12656" lon="7.15963">
        <ele>442</ele>
        <time>2015-07-08T14:48:16.1Z</time>
      </trkpt>
      <trkpt lat="48.12658" lon="7.1596">
        <ele>442</ele>
        <time>2015-07-08T14:48:18.1Z</time>
      </trkpt>
      <trkpt lat="48.12663" lon="7.15954">
        <ele>443</ele>
        <time>2015-07-08T14:48:21.1Z</time>
      </trkpt>
      <trkpt lat="48.1267" lon="7.15947">
        <ele>443</ele>
        <time>2015-07-08T14:48:24.1Z</time>
      </trkpt>
      <trkpt lat="48.12674" lon="7.15944">
        <ele>443</ele>
        <time>2015-07-08T14:48:26.1Z</time>
      </trkpt>
      <trkpt lat="48.12681" lon="7.15942">
        <ele>443</ele>
        <time>2015-07-08T14:48:29.1Z</time>
      </trkpt>
      <trkpt lat="48.12687" lon="7.15941">
        <ele>443</ele>
        <time>2015-07-08T14:48:31.1Z</time>
      </trkpt>
      <trkpt lat="48.12692" lon="7.15939">
        <ele>442</ele>
        <time>2015-07-08T14:48:33.1Z</time>
      </trkpt>
      <trkpt lat="48.12702" lon="7.15939">
        <ele>442</ele>
        <time>2015-07-08T14:48:36.1Z</time>
      </trkpt>
      <trkpt lat="48.12709" lon="7.15944">
        <ele>442</ele>
        <time>2015-07-08T14:48:38.1Z</time>
      </trkpt>
      <trkpt lat="48.12719" lon="7.1595">
        <ele>442</ele>
        <time>2015-07-08T14:48:41.1Z</time>
      </trkpt>
      <trkpt lat="48.12728" lon="7.15956">
        <ele>442</ele>
        <time>2015-07-08T14:48:44.1Z</time>
      </trkpt>
      <trkpt lat="48.12734" lon="7.15962">
        <ele>443</ele>
        <time>2015-07-08T14:48:46.1Z</time>
      </trkpt>
      <trkpt lat="48.12744" lon="7.15969">
        <ele>443</ele>
        <time>2015-07-08T14:48:49.1Z</time>
      </trkpt>
      <trkpt lat="48.12755" lon="7.15976">
        <ele>443</ele>
        <time>2015-07-08T14:48:52.1Z</time>
      </trkpt>
      <trkpt lat="48.12761" lon="7.1598">
        <ele>444</ele>
        <time>2015-07-08T14:48:54.1Z</time>
      </trkpt>
      <trkpt lat="48.12769" lon="7.15983">
        <ele>444</ele>
        <time>2015-07-08T14:48:56.1Z</time>
      </trkpt>
      <trkpt lat="48.12775" lon="7.15983">
        <ele>443</ele>
        <time>2015-07-08T14:48:58.1Z</time>
      </trkpt>
      <trkpt lat="48.1278" lon="7.15983">
        <ele>443</ele>
        <time>2015-07-08T14:49:00.1Z</time>
      </trkpt>
      <trkpt lat="48.12784" lon="7.15983">
        <ele>443</ele>
        <time>2015-07-08T14:49:03.1Z</time>
      </trkpt>
      <trkpt lat="48.1279" lon="7.15982">
        <ele>443</ele>
        <time>2015-07-08T14:49:05.1Z</time>
      </trkpt>
      <trkpt lat="48.12799" lon="7.15981">
        <ele>444</ele>
        <time>2015-07-08T14:49:08.1Z</time>
      </trkpt>
      <trkpt lat="48.12806" lon="7.15987">
        <ele>445</ele>
        <time>2015-07-08T14:49:11.1Z</time>
      </trkpt>
      <trkpt lat="48.12811" lon="7.1599">
        <ele>445</ele>
        <time>2015-07-08T14:49:13.1Z</time>
      </trkpt>
      <trkpt lat="48.12816" lon="7.15995">
        <ele>446</ele>
        <time>2015-07-08T14:49:15.1Z</time>
      </trkpt>
      <trkpt lat="48.12821" lon="7.15999">
        <ele>446</ele>
        <time>2015-07-08T14:49:17.1Z</time>
      </trkpt>
      <trkpt lat="48.1283" lon="7.16005">
        <ele>446</ele>
        <time>2015-07-08T14:49:20.1Z</time>
      </trkpt>
      <trkpt lat="48.12835" lon="7.16009">
        <ele>446</ele>
        <time>2015-07-08T14:49:22.1Z</time>
      </trkpt>
      <trkpt lat="48.12839" lon="7.16013">
        <ele>447</ele>
        <time>2015-07-08T14:49:24.1Z</time>
      </trkpt>
      <trkpt lat="48.12842" lon="7.16017">
        <ele>447</ele>
        <time>2015-07-08T14:49:26.1Z</time>
      </trkpt>
      <trkpt lat="48.12846" lon="7.16019">
        <ele>447</ele>
        <time>2015-07-08T14:49:28.1Z</time>
      </trkpt>
      <trkpt lat="48.1285" lon="7.16022">
        <ele>448</ele>
        <time>2015-07-08T14:49:31.1Z</time>
      </trkpt>
      <trkpt lat="48.12854" lon="7.16029">
        <ele>448</ele>
        <time>2015-07-08T14:49:34.1Z</time>
      </trkpt>
      <trkpt lat="48.12858" lon="7.16033">
        <ele>448</ele>
        <time>2015-07-08T14:49:36.1Z</time>
      </trkpt>
      <trkpt lat="48.12861" lon="7.16037">
        <ele>448</ele>
        <time>2015-07-08T14:49:38.1Z</time>
      </trkpt>
      <trkpt lat="48.12864" lon="7.16039">
        <ele>449</ele>
        <time>2015-07-08T14:49:40.1Z</time>
      </trkpt>
      <trkpt lat="48.12866" lon="7.16037">
        <ele>449</ele>
        <time>2015-07-08T14:49:43.1Z</time>
      </trkpt>
      <trkpt lat="48.12866" lon="7.16037">
        <ele>450</ele>
        <time>2015-07-08T14:49:46.1Z</time>
      </trkpt>
      <trkpt lat="48.12867" lon="7.16037">
        <ele>450</ele>
        <time>2015-07-08T14:49:48.1Z</time>
      </trkpt>
      <trkpt lat="48.12867" lon="7.16036">
        <ele>450</ele>
        <time>2015-07-08T14:49:50.1Z</time>
      </trkpt>
      <trkpt lat="48.12869" lon="7.16033">
        <ele>450</ele>
        <time>2015-07-08T14:49:53.1Z</time>
      </trkpt>
      <trkpt lat="48.12871" lon="7.16031">
        <ele>451</ele>
        <time>2015-07-08T14:49:55.1Z</time>
      </trkpt>
      <trkpt lat="48.12873" lon="7.16027">
        <ele>451</ele>
        <time>2015-07-08T14:49:57.1Z</time>
      </trkpt>
      <trkpt lat="48.12877" lon="7.16027">
        <ele>452</ele>
        <time>2015-07-08T14:50:00.1Z</time>
      </trkpt>
      <trkpt lat="48.12883" lon="7.16027">
        <ele>453</ele>
        <time>2015-07-08T14:50:03.1Z</time>
      </trkpt>
      <trkpt lat="48.12886" lon="7.16028">
        <ele>454</ele>
        <time>2015-07-08T14:50:05.1Z</time>
      </trkpt>
      <trkpt lat="48.12888" lon="7.1603">
        <ele>455</ele>
        <time>2015-07-08T14:50:07.1Z</time>
      </trkpt>
      <trkpt lat="48.12891" lon="7.16032">
        <ele>455</ele>
        <time>2015-07-08T14:50:09.1Z</time>
      </trkpt>
      <trkpt lat="48.12894" lon="7.16034">
        <ele>456</ele>
        <time>2015-07-08T14:50:12.1Z</time>
      </trkpt>
      <trkpt lat="48.12897" lon="7.16035">
        <ele>456</ele>
        <time>2015-07-08T14:50:14.1Z</time>
      </trkpt>
      <trkpt lat="48.12897" lon="7.16035">
        <ele>457</ele>
        <time>2015-07-08T14:50:17.1Z</time>
      </trkpt>
      <trkpt lat="48.12899" lon="7.16036">
        <ele>458</ele>
        <time>2015-07-08T14:50:20.1Z</time>
      </trkpt>
      <trkpt lat="48.129" lon="7.16036">
        <ele>458</ele>
        <time>2015-07-08T14:50:23.1Z</time>
      </trkpt>
      <trkpt lat="48.12901" lon="7.16036">
        <ele>458</ele>
        <time>2015-07-08T14:50:26.1Z</time>
      </trkpt>
      <trkpt lat="48.12903" lon="7.16037">
        <ele>458</ele>
        <time>2015-07-08T14:50:28.1Z</time>
      </trkpt>
      <trkpt lat="48.12908" lon="7.1604">
        <ele>459</ele>
        <time>2015-07-08T14:50:31.1Z</time>
      </trkpt>
      <trkpt lat="48.12914" lon="7.16042">
        <ele>460</ele>
        <time>2015-07-08T14:50:34.1Z</time>
      </trkpt>
      <trkpt lat="48.12917" lon="7.16043">
        <ele>461</ele>
        <time>2015-07-08T14:50:36.1Z</time>
      </trkpt>
      <trkpt lat="48.12922" lon="7.16044">
        <ele>462</ele>
        <time>2015-07-08T14:50:39.1Z</time>
      </trkpt>
      <trkpt lat="48.12925" lon="7.16045">
        <ele>462</ele>
        <time>2015-07-08T14:50:42.1Z</time>
      </trkpt>
      <trkpt lat="48.1293" lon="7.16045">
        <ele>464</ele>
        <time>2015-07-08T14:50:45.1Z</time>
      </trkpt>
      <trkpt lat="48.12933" lon="7.16046">
        <ele>464</ele>
        <time>2015-07-08T14:50:47.1Z</time>
      </trkpt>
      <trkpt lat="48.12938" lon="7.16046">
        <ele>464</ele>
        <time>2015-07-08T14:50:50.1Z</time>
      </trkpt>
      <trkpt lat="48.12941" lon="7.16046">
        <ele>464</ele>
        <time>2015-07-08T14:50:52.1Z</time>
      </trkpt>
      <trkpt lat="48.12946" lon="7.16048">
        <ele>465</ele>
        <time>2015-07-08T14:50:55.1Z</time>
      </trkpt>
      <trkpt lat="48.1295" lon="7.16049">
        <ele>465</ele>
        <time>2015-07-08T14:50:58.1Z</time>
      </trkpt>
      <trkpt lat="48.12955" lon="7.1605">
        <ele>467</ele>
        <time>2015-07-08T14:51:01.1Z</time>
      </trkpt>
      <trkpt lat="48.12961" lon="7.16053">
        <ele>467</ele>
        <time>2015-07-08T14:51:04.1Z</time>
      </trkpt>
      <trkpt lat="48.12967" lon="7.16057">
        <ele>467</ele>
        <time>2015-07-08T14:51:06.1Z</time>
      </trkpt>
      <trkpt lat="48.12971" lon="7.16062">
        <ele>467</ele>
        <time>2015-07-08T14:51:08.1Z</time>
      </trkpt>
      <trkpt lat="48.12976" lon="7.16067">
        <ele>467</ele>
        <time>2015-07-08T14:51:10.1Z</time>
      </trkpt>
      <trkpt lat="48.12983" lon="7.16071">
        <ele>468</ele>
        <time>2015-07-08T14:51:13.1Z</time>
      </trkpt>
      <trkpt lat="48.12991" lon="7.16075">
        <ele>468</ele>
        <time>2015-07-08T14:51:16.1Z</time>
      </trkpt>
      <trkpt lat="48.12997" lon="7.16078">
        <ele>469</ele>
        <time>2015-07-08T14:51:19.1Z</time>
      </trkpt>
      <trkpt lat="48.13" lon="7.1608">
        <ele>469</ele>
        <time>2015-07-08T14:51:21.1Z</time>
      </trkpt>
      <trkpt lat="48.13004" lon="7.16082">
        <ele>470</ele>
        <time>2015-07-08T14:51:24.1Z</time>
      </trkpt>
      <trkpt lat="48.13007" lon="7.16084">
        <ele>470</ele>
        <time>2015-07-08T14:51:26.1Z</time>
      </trkpt>
      <trkpt lat="48.13012" lon="7.16086">
        <ele>471</ele>
        <time>2015-07-08T14:51:29.1Z</time>
      </trkpt>
      <trkpt lat="48.13015" lon="7.16086">
        <ele>472</ele>
        <time>2015-07-08T14:51:31.1Z</time>
      </trkpt>
      <trkpt lat="48.1302" lon="7.16086">
        <ele>474</ele>
        <time>2015-07-08T14:51:34.1Z</time>
      </trkpt>
      <trkpt lat="48.13023" lon="7.16087">
        <ele>476</ele>
        <time>2015-07-08T14:51:36.1Z</time>
      </trkpt>
      <trkpt lat="48.13029" lon="7.16087">
        <ele>477</ele>
        <time>2015-07-08T14:51:39.1Z</time>
      </trkpt>
      <trkpt lat="48.13033" lon="7.16088">
        <ele>477</ele>
        <time>2015-07-08T14:51:41.1Z</time>
      </trkpt>
      <trkpt lat="48.13037" lon="7.16089">
        <ele>479</ele>
        <time>2015-07-08T14:51:44.1Z</time>
      </trkpt>
      <trkpt lat="48.13042" lon="7.16089">
        <ele>481</ele>
        <time>2015-07-08T14:51:47.1Z</time>
      </trkpt>
      <trkpt lat="48.13046" lon="7.16089">
        <ele>482</ele>
        <time>2015-07-08T14:51:50.1Z</time>
      </trkpt>
      <trkpt lat="48.13049" lon="7.16089">
        <ele>483</ele>
        <time>2015-07-08T14:51:52.1Z</time>
      </trkpt>
      <trkpt lat="48.13054" lon="7.16089">
        <ele>484</ele>
        <time>2015-07-08T14:51:55.1Z</time>
      </trkpt>
      <trkpt lat="48.13056" lon="7.16088">
        <ele>485</ele>
        <time>2015-07-08T14:51:57.1Z</time>
      </trkpt>
      <trkpt lat="48.13062" lon="7.16086">
        <ele>485</ele>
        <time>2015-07-08T14:52:00.1Z</time>
      </trkpt>
      <trkpt lat="48.13065" lon="7.16084">
        <ele>486</ele>
        <time>2015-07-08T14:52:02.1Z</time>
      </trkpt>
      <trkpt lat="48.13069" lon="7.16083">
        <ele>486</ele>
        <time>2015-07-08T14:52:04.1Z</time>
      </trkpt>
      <trkpt lat="48.13072" lon="7.16082">
        <ele>487</ele>
        <time>2015-07-08T14:52:06.1Z</time>
      </trkpt>
      <trkpt lat="48.13075" lon="7.16081">
        <ele>487</ele>
        <time>2015-07-08T14:52:08.1Z</time>
      </trkpt>
      <trkpt lat="48.1308" lon="7.16081">
        <ele>489</ele>
        <time>2015-07-08T14:52:11.1Z</time>
      </trkpt>
      <trkpt lat="48.13083" lon="7.16081">
        <ele>490</ele>
        <time>2015-07-08T14:52:13.1Z</time>
      </trkpt>
      <trkpt lat="48.13088" lon="7.16082">
        <ele>491</ele>
        <time>2015-07-08T14:52:16.1Z</time>
      </trkpt>
      <trkpt lat="48.13092" lon="7.16083">
        <ele>492</ele>
        <time>2015-07-08T14:52:18.1Z</time>
      </trkpt>
      <trkpt lat="48.13095" lon="7.16084">
        <ele>493</ele>
        <time>2015-07-08T14:52:20.1Z</time>
      </trkpt>
      <trkpt lat="48.131" lon="7.16085">
        <ele>494</ele>
        <time>2015-07-08T14:52:23.1Z</time>
      </trkpt>
      <trkpt lat="48.13103" lon="7.16086">
        <ele>494</ele>
        <time>2015-07-08T14:52:25.1Z</time>
      </trkpt>
      <trkpt lat="48.13107" lon="7.16088">
        <ele>495</ele>
        <time>2015-07-08T14:52:28.1Z</time>
      </trkpt>
      <trkpt lat="48.13111" lon="7.1609">
        <ele>496</ele>
        <time>2015-07-08T14:52:31.1Z</time>
      </trkpt>
      <trkpt lat="48.13114" lon="7.16091">
        <ele>496</ele>
        <time>2015-07-08T14:52:33.1Z</time>
      </trkpt>
      <trkpt lat="48.13118" lon="7.16092">
        <ele>497</ele>
        <time>2015-07-08T14:52:36.1Z</time>
      </trkpt>
      <trkpt lat="48.13121" lon="7.16093">
        <ele>497</ele>
        <time>2015-07-08T14:52:38.1Z</time>
      </trkpt>
      <trkpt lat="48.13124" lon="7.16094">
        <ele>498</ele>
        <time>2015-07-08T14:52:40.1Z</time>
      </trkpt>
      <trkpt lat="48.13127" lon="7.16096">
        <ele>498</ele>
        <time>2015-07-08T14:52:43.1Z</time>
      </trkpt>
      <trkpt lat="48.13131" lon="7.16099">
        <ele>499</ele>
        <time>2015-07-08T14:52:46.1Z</time>
      </trkpt>
      <trkpt lat="48.13133" lon="7.16101">
        <ele>499</ele>
        <time>2015-07-08T14:52:48.1Z</time>
      </trkpt>
      <trkpt lat="48.13135" lon="7.16103">
        <ele>500</ele>
        <time>2015-07-08T14:52:50.1Z</time>
      </trkpt>
      <trkpt lat="48.13136" lon="7.16105">
        <ele>501</ele>
        <time>2015-07-08T14:52:52.1Z</time>
      </trkpt>
      <trkpt lat="48.13138" lon="7.16108">
        <ele>502</ele>
        <time>2015-07-08T14:52:54.1Z</time>
      </trkpt>
      <trkpt lat="48.13139" lon="7.16112">
        <ele>503</ele>
        <time>2015-07-08T14:52:57.1Z</time>
      </trkpt>
      <trkpt lat="48.13141" lon="7.16115">
        <ele>504</ele>
        <time>2015-07-08T14:52:59.1Z</time>
      </trkpt>
      <trkpt lat="48.13143" lon="7.16119">
        <ele>504</ele>
        <time>2015-07-08T14:53:01.1Z</time>
      </trkpt>
      <trkpt lat="48.13145" lon="7.16121">
        <ele>505</ele>
        <time>2015-07-08T14:53:03.1Z</time>
      </trkpt>
      <trkpt lat="48.13145" lon="7.16124">
        <ele>506</ele>
        <time>2015-07-08T14:53:05.1Z</time>
      </trkpt>
      <trkpt lat="48.13147" lon="7.16128">
        <ele>507</ele>
        <time>2015-07-08T14:53:08.1Z</time>
      </trkpt>
      <trkpt lat="48.13148" lon="7.16132">
        <ele>508</ele>
        <time>2015-07-08T14:53:10.1Z</time>
      </trkpt>
      <trkpt lat="48.13149" lon="7.16136">
        <ele>509</ele>
        <time>2015-07-08T14:53:12.1Z</time>
      </trkpt>
      <trkpt lat="48.1315" lon="7.1614">
        <ele>509</ele>
        <time>2015-07-08T14:53:14.1Z</time>
      </trkpt>
      <trkpt lat="48.13153" lon="7.16146">
        <ele>510</ele>
        <time>2015-07-08T14:53:17.1Z</time>
      </trkpt>
      <trkpt lat="48.13155" lon="7.16151">
        <ele>510</ele>
        <time>2015-07-08T14:53:19.1Z</time>
      </trkpt>
      <trkpt lat="48.13158" lon="7.16155">
        <ele>510</ele>
        <time>2015-07-08T14:53:21.1Z</time>
      </trkpt>
      <trkpt lat="48.13161" lon="7.16162">
        <ele>511</ele>
        <time>2015-07-08T14:53:24.1Z</time>
      </trkpt>
      <trkpt lat="48.13163" lon="7.16166">
        <ele>512</ele>
        <time>2015-07-08T14:53:26.1Z</time>
      </trkpt>
      <trkpt lat="48.13165" lon="7.1617">
        <ele>512</ele>
        <time>2015-07-08T14:53:28.1Z</time>
      </trkpt>
      <trkpt lat="48.13172" lon="7.16171">
        <ele>513</ele>
        <time>2015-07-08T14:53:31.1Z</time>
      </trkpt>
      <trkpt lat="48.1318" lon="7.16172">
        <ele>512</ele>
        <time>2015-07-08T14:53:34.1Z</time>
      </trkpt>
      <trkpt lat="48.13187" lon="7.16172">
        <ele>513</ele>
        <time>2015-07-08T14:53:37.1Z</time>
      </trkpt>
      <trkpt lat="48.13191" lon="7.16171">
        <ele>513</ele>
        <time>2015-07-08T14:53:39.1Z</time>
      </trkpt>
      <trkpt lat="48.13198" lon="7.16167">
        <ele>514</ele>
        <time>2015-07-08T14:53:42.1Z</time>
      </trkpt>
      <trkpt lat="48.13203" lon="7.16164">
        <ele>514</ele>
        <time>2015-07-08T14:53:44.1Z</time>
      </trkpt>
      <trkpt lat="48.13208" lon="7.16162">
        <ele>514</ele>
        <time>2015-07-08T14:53:46.1Z</time>
      </trkpt>
      <trkpt lat="48.13213" lon="7.16156">
        <ele>514</ele>
        <time>2015-07-08T14:53:48.1Z</time>
      </trkpt>
      <trkpt lat="48.13221" lon="7.16148">
        <ele>515</ele>
        <time>2015-07-08T14:53:51.1Z</time>
      </trkpt>
      <trkpt lat="48.13226" lon="7.16141">
        <ele>515</ele>
        <time>2015-07-08T14:53:53.1Z</time>
      </trkpt>
      <trkpt lat="48.13232" lon="7.16135">
        <ele>515</ele>
        <time>2015-07-08T14:53:55.1Z</time>
      </trkpt>
      <trkpt lat="48.13239" lon="7.16129">
        <ele>516</ele>
        <time>2015-07-08T14:53:57.1Z</time>
      </trkpt>
      <trkpt lat="48.13248" lon="7.16121">
        <ele>517</ele>
        <time>2015-07-08T14:54:00.1Z</time>
      </trkpt>
      <trkpt lat="48.13254" lon="7.16117">
        <ele>518</ele>
        <time>2015-07-08T14:54:02.1Z</time>
      </trkpt>
      <trkpt lat="48.1326" lon="7.16114">
        <ele>518</ele>
        <time>2015-07-08T14:54:04.1Z</time>
      </trkpt>
      <trkpt lat="48.13267" lon="7.16112">
        <ele>519</ele>
        <time>2015-07-08T14:54:06.1Z</time>
      </trkpt>
      <trkpt lat="48.13277" lon="7.16109">
        <ele>519</ele>
        <time>2015-07-08T14:54:09.1Z</time>
      </trkpt>
      <trkpt lat="48.13284" lon="7.16107">
        <ele>520</ele>
        <time>2015-07-08T14:54:11.1Z</time>
      </trkpt>
      <trkpt lat="48.13293" lon="7.16105">
        <ele>521</ele>
        <time>2015-07-08T14:54:14.1Z</time>
      </trkpt>
      <trkpt lat="48.133" lon="7.16103">
        <ele>521</ele>
        <time>2015-07-08T14:54:17.1Z</time>
      </trkpt>
      <trkpt lat="48.13306" lon="7.16101">
        <ele>521</ele>
        <time>2015-07-08T14:54:20.1Z</time>
      </trkpt>
      <trkpt lat="48.1331" lon="7.161">
        <ele>522</ele>
        <time>2015-07-08T14:54:22.1Z</time>
      </trkpt>
      <trkpt lat="48.13316" lon="7.16098">
        <ele>523</ele>
        <time>2015-07-08T14:54:25.1Z</time>
      </trkpt>
      <trkpt lat="48.13321" lon="7.16096">
        <ele>524</ele>
        <time>2015-07-08T14:54:27.1Z</time>
      </trkpt>
      <trkpt lat="48.13327" lon="7.16094">
        <ele>525</ele>
        <time>2015-07-08T14:54:30.1Z</time>
      </trkpt>
      <trkpt lat="48.13332" lon="7.16095">
        <ele>526</ele>
        <time>2015-07-08T14:54:32.1Z</time>
      </trkpt>
      <trkpt lat="48.13335" lon="7.16098">
        <ele>526</ele>
        <time>2015-07-08T14:54:34.1Z</time>
      </trkpt>
      <trkpt lat="48.13336" lon="7.16104">
        <ele>527</ele>
        <time>2015-07-08T14:54:36.1Z</time>
      </trkpt>
      <trkpt lat="48.13335" lon="7.16111">
        <ele>527</ele>
        <time>2015-07-08T14:54:38.1Z</time>
      </trkpt>
      <trkpt lat="48.13334" lon="7.16119">
        <ele>528</ele>
        <time>2015-07-08T14:54:41.1Z</time>
      </trkpt>
      <trkpt lat="48.13333" lon="7.16126">
        <ele>528</ele>
        <time>2015-07-08T14:54:43.1Z</time>
      </trkpt>
      <trkpt lat="48.13333" lon="7.16137">
        <ele>529</ele>
        <time>2015-07-08T14:54:46.1Z</time>
      </trkpt>
      <trkpt lat="48.13336" lon="7.16152">
        <ele>530</ele>
        <time>2015-07-08T14:54:49.1Z</time>
      </trkpt>
      <trkpt lat="48.13338" lon="7.16161">
        <ele>531</ele>
        <time>2015-07-08T14:54:51.1Z</time>
      </trkpt>
      <trkpt lat="48.13342" lon="7.16177">
        <ele>533</ele>
        <time>2015-07-08T14:54:54.1Z</time>
      </trkpt>
      <trkpt lat="48.13344" lon="7.16187">
        <ele>533</ele>
        <time>2015-07-08T14:54:56.1Z</time>
      </trkpt>
      <trkpt lat="48.13346" lon="7.16195">
        <ele>535</ele>
        <time>2015-07-08T14:54:58.1Z</time>
      </trkpt>
      <trkpt lat="48.13348" lon="7.16204">
        <ele>535</ele>
        <time>2015-07-08T14:55:01.1Z</time>
      </trkpt>
      <trkpt lat="48.1335" lon="7.16209">
        <ele>536</ele>
        <time>2015-07-08T14:55:03.1Z</time>
      </trkpt>
      <trkpt lat="48.13352" lon="7.16218">
        <ele>537</ele>
        <time>2015-07-08T14:55:06.1Z</time>
      </trkpt>
      <trkpt lat="48.13353" lon="7.16228">
        <ele>537</ele>
        <time>2015-07-08T14:55:09.1Z</time>
      </trkpt>
      <trkpt lat="48.13354" lon="7.16239">
        <ele>538</ele>
        <time>2015-07-08T14:55:12.1Z</time>
      </trkpt>
      <trkpt lat="48.13354" lon="7.16249">
        <ele>538</ele>
        <time>2015-07-08T14:55:15.1Z</time>
      </trkpt>
      <trkpt lat="48.13354" lon="7.16261">
        <ele>538</ele>
        <time>2015-07-08T14:55:18.1Z</time>
      </trkpt>
      <trkpt lat="48.13353" lon="7.16278">
        <ele>538</ele>
        <time>2015-07-08T14:55:21.1Z</time>
      </trkpt>
      <trkpt lat="48.13352" lon="7.16292">
        <ele>538</ele>
        <time>2015-07-08T14:55:23.1Z</time>
      </trkpt>
      <trkpt lat="48.13353" lon="7.16307">
        <ele>538</ele>
        <time>2015-07-08T14:55:25.1Z</time>
      </trkpt>
      <trkpt lat="48.13353" lon="7.16333">
        <ele>537</ele>
        <time>2015-07-08T14:55:28.1Z</time>
      </trkpt>
      <trkpt lat="48.13352" lon="7.16353">
        <ele>537</ele>
        <time>2015-07-08T14:55:30.1Z</time>
      </trkpt>
      <trkpt lat="48.13355" lon="7.16385">
        <ele>536</ele>
        <time>2015-07-08T14:55:33.1Z</time>
      </trkpt>
      <trkpt lat="48.1336" lon="7.16405">
        <ele>535</ele>
        <time>2015-07-08T14:55:35.1Z</time>
      </trkpt>
      <trkpt lat="48.13367" lon="7.16415">
        <ele>534</ele>
        <time>2015-07-08T14:55:37.1Z</time>
      </trkpt>
      <trkpt lat="48.13371" lon="7.16417">
        <ele>534</ele>
        <time>2015-07-08T14:55:39.1Z</time>
      </trkpt>
      <trkpt lat="48.13373" lon="7.16417">
        <ele>534</ele>
        <time>2015-07-08T14:55:41.1Z</time>
      </trkpt>
      <trkpt lat="48.13375" lon="7.16418">
        <ele>535</ele>
        <time>2015-07-08T14:55:43.1Z</time>
      </trkpt>
      <trkpt lat="48.13378" lon="7.16422">
        <ele>536</ele>
        <time>2015-07-08T14:55:46.1Z</time>
      </trkpt>
      <trkpt lat="48.13381" lon="7.16424">
        <ele>537</ele>
        <time>2015-07-08T14:55:48.1Z</time>
      </trkpt>
      <trkpt lat="48.13385" lon="7.16427">
        <ele>538</ele>
        <time>2015-07-08T14:55:51.1Z</time>
      </trkpt>
      <trkpt lat="48.13388" lon="7.16429">
        <ele>539</ele>
        <time>2015-07-08T14:55:53.1Z</time>
      </trkpt>
      <trkpt lat="48.13392" lon="7.16433">
        <ele>541</ele>
        <time>2015-07-08T14:55:56.1Z</time>
      </trkpt>
      <trkpt lat="48.13396" lon="7.16436">
        <ele>542</ele>
        <time>2015-07-08T14:55:59.1Z</time>
      </trkpt>
      <trkpt lat="48.13399" lon="7.16438">
        <ele>543</ele>
        <time>2015-07-08T14:56:01.1Z</time>
      </trkpt>
      <trkpt lat="48.13402" lon="7.16441">
        <ele>544</ele>
        <time>2015-07-08T14:56:03.1Z</time>
      </trkpt>
      <trkpt lat="48.13406" lon="7.16445">
        <ele>544</ele>
        <time>2015-07-08T14:56:05.1Z</time>
      </trkpt>
      <trkpt lat="48.1341" lon="7.16449">
        <ele>545</ele>
        <time>2015-07-08T14:56:08.1Z</time>
      </trkpt>
      <trkpt lat="48.13412" lon="7.16452">
        <ele>545</ele>
        <time>2015-07-08T14:56:10.1Z</time>
      </trkpt>
      <trkpt lat="48.13415" lon="7.16455">
        <ele>546</ele>
        <time>2015-07-08T14:56:12.1Z</time>
      </trkpt>
      <trkpt lat="48.13419" lon="7.16458">
        <ele>546</ele>
        <time>2015-07-08T14:56:14.1Z</time>
      </trkpt>
      <trkpt lat="48.13422" lon="7.16463">
        <ele>546</ele>
        <time>2015-07-08T14:56:16.1Z</time>
      </trkpt>
      <trkpt lat="48.13426" lon="7.16468">
        <ele>547</ele>
        <time>2015-07-08T14:56:18.1Z</time>
      </trkpt>
      <trkpt lat="48.13431" lon="7.16473">
        <ele>548</ele>
        <time>2015-07-08T14:56:20.1Z</time>
      </trkpt>
      <trkpt lat="48.13438" lon="7.16477">
        <ele>548</ele>
        <time>2015-07-08T14:56:22.1Z</time>
      </trkpt>
      <trkpt lat="48.13443" lon="7.16481">
        <ele>549</ele>
        <time>2015-07-08T14:56:24.1Z</time>
      </trkpt>
      <trkpt lat="48.13447" lon="7.16484">
        <ele>549</ele>
        <time>2015-07-08T14:56:26.1Z</time>
      </trkpt>
      <trkpt lat="48.13451" lon="7.16487">
        <ele>550</ele>
        <time>2015-07-08T14:56:28.1Z</time>
      </trkpt>
      <trkpt lat="48.13456" lon="7.16491">
        <ele>551</ele>
        <time>2015-07-08T14:56:30.1Z</time>
      </trkpt>
      <trkpt lat="48.1346" lon="7.16493">
        <ele>551</ele>
        <time>2015-07-08T14:56:32.1Z</time>
      </trkpt>
      <trkpt lat="48.13464" lon="7.16496">
        <ele>552</ele>
        <time>2015-07-08T14:56:34.1Z</time>
      </trkpt>
      <trkpt lat="48.1347" lon="7.165">
        <ele>552</ele>
        <time>2015-07-08T14:56:37.1Z</time>
      </trkpt>
      <trkpt lat="48.13475" lon="7.16503">
        <ele>552</ele>
        <time>2015-07-08T14:56:39.1Z</time>
      </trkpt>
      <trkpt lat="48.13481" lon="7.16506">
        <ele>552</ele>
        <time>2015-07-08T14:56:41.1Z</time>
      </trkpt>
      <trkpt lat="48.13488" lon="7.16508">
        <ele>552</ele>
        <time>2015-07-08T14:56:43.1Z</time>
      </trkpt>
      <trkpt lat="48.13496" lon="7.16517">
        <ele>552</ele>
        <time>2015-07-08T14:56:46.1Z</time>
      </trkpt>
      <trkpt lat="48.13507" lon="7.16531">
        <ele>552</ele>
        <time>2015-07-08T14:56:49.1Z</time>
      </trkpt>
      <trkpt lat="48.13516" lon="7.16538">
        <ele>552</ele>
        <time>2015-07-08T14:56:52.1Z</time>
      </trkpt>
      <trkpt lat="48.13522" lon="7.16543">
        <ele>552</ele>
        <time>2015-07-08T14:56:54.1Z</time>
      </trkpt>
      <trkpt lat="48.13527" lon="7.16547">
        <ele>553</ele>
        <time>2015-07-08T14:56:56.1Z</time>
      </trkpt>
      <trkpt lat="48.13532" lon="7.16555">
        <ele>554</ele>
        <time>2015-07-08T14:56:59.1Z</time>
      </trkpt>
      <trkpt lat="48.13535" lon="7.16565">
        <ele>556</ele>
        <time>2015-07-08T14:57:02.1Z</time>
      </trkpt>
      <trkpt lat="48.13537" lon="7.16571">
        <ele>557</ele>
        <time>2015-07-08T14:57:04.1Z</time>
      </trkpt>
      <trkpt lat="48.13541" lon="7.16581">
        <ele>559</ele>
        <time>2015-07-08T14:57:07.1Z</time>
      </trkpt>
      <trkpt lat="48.13546" lon="7.1659">
        <ele>560</ele>
        <time>2015-07-08T14:57:10.1Z</time>
      </trkpt>
      <trkpt lat="48.1355" lon="7.16597">
        <ele>561</ele>
        <time>2015-07-08T14:57:13.1Z</time>
      </trkpt>
      <trkpt lat="48.13553" lon="7.16603">
        <ele>562</ele>
        <time>2015-07-08T14:57:16.1Z</time>
      </trkpt>
      <trkpt lat="48.13556" lon="7.16609">
        <ele>563</ele>
        <time>2015-07-08T14:57:19.1Z</time>
      </trkpt>
      <trkpt lat="48.13559" lon="7.16615">
        <ele>564</ele>
        <time>2015-07-08T14:57:22.1Z</time>
      </trkpt>
      <trkpt lat="48.13561" lon="7.16619">
        <ele>565</ele>
        <time>2015-07-08T14:57:25.1Z</time>
      </trkpt>
      <trkpt lat="48.13563" lon="7.16622">
        <ele>566</ele>
        <time>2015-07-08T14:57:27.1Z</time>
      </trkpt>
      <trkpt lat="48.13565" lon="7.16627">
        <ele>567</ele>
        <time>2015-07-08T14:57:30.1Z</time>
      </trkpt>
      <trkpt lat="48.13567" lon="7.16628">
        <ele>567</ele>
        <time>2015-07-08T14:57:32.1Z</time>
      </trkpt>
      <trkpt lat="48.1357" lon="7.16631">
        <ele>568</ele>
        <time>2015-07-08T14:57:35.1Z</time>
      </trkpt>
      <trkpt lat="48.13572" lon="7.16633">
        <ele>569</ele>
        <time>2015-07-08T14:57:37.1Z</time>
      </trkpt>
      <trkpt lat="48.13575" lon="7.16632">
        <ele>569</ele>
        <time>2015-07-08T14:57:39.1Z</time>
      </trkpt>
      <trkpt lat="48.13577" lon="7.16631">
        <ele>570</ele>
        <time>2015-07-08T14:57:42.1Z</time>
      </trkpt>
      <trkpt lat="48.13578" lon="7.1663">
        <ele>571</ele>
        <time>2015-07-08T14:57:44.1Z</time>
      </trkpt>
      <trkpt lat="48.1358" lon="7.16629">
        <ele>571</ele>
        <time>2015-07-08T14:57:46.1Z</time>
      </trkpt>
      <trkpt lat="48.13582" lon="7.16627">
        <ele>571</ele>
        <time>2015-07-08T14:57:48.1Z</time>
      </trkpt>
      <trkpt lat="48.13584" lon="7.16624">
        <ele>572</ele>
        <time>2015-07-08T14:57:50.1Z</time>
      </trkpt>
      <trkpt lat="48.13587" lon="7.16621">
        <ele>573</ele>
        <time>2015-07-08T14:57:52.1Z</time>
      </trkpt>
      <trkpt lat="48.13591" lon="7.16616">
        <ele>573</ele>
        <time>2015-07-08T14:57:55.1Z</time>
      </trkpt>
      <trkpt lat="48.13593" lon="7.16614">
        <ele>574</ele>
        <time>2015-07-08T14:57:57.1Z</time>
      </trkpt>
      <trkpt lat="48.13595" lon="7.16611">
        <ele>575</ele>
        <time>2015-07-08T14:57:59.1Z</time>
      </trkpt>
      <trkpt lat="48.13596" lon="7.16608">
        <ele>576</ele>
        <time>2015-07-08T14:58:01.1Z</time>
      </trkpt>
      <trkpt lat="48.13599" lon="7.16605">
        <ele>576</ele>
        <time>2015-07-08T14:58:03.1Z</time>
      </trkpt>
      <trkpt lat="48.13603" lon="7.16598">
        <ele>577</ele>
        <time>2015-07-08T14:58:06.1Z</time>
      </trkpt>
      <trkpt lat="48.13605" lon="7.16595">
        <ele>578</ele>
        <time>2015-07-08T14:58:08.1Z</time>
      </trkpt>
      <trkpt lat="48.13606" lon="7.16591">
        <ele>579</ele>
        <time>2015-07-08T14:58:10.1Z</time>
      </trkpt>
      <trkpt lat="48.13607" lon="7.16587">
        <ele>580</ele>
        <time>2015-07-08T14:58:12.1Z</time>
      </trkpt>
      <trkpt lat="48.13608" lon="7.1658">
        <ele>581</ele>
        <time>2015-07-08T14:58:15.1Z</time>
      </trkpt>
      <trkpt lat="48.13608" lon="7.16576">
        <ele>581</ele>
        <time>2015-07-08T14:58:17.1Z</time>
      </trkpt>
      <trkpt lat="48.13608" lon="7.16572">
        <ele>582</ele>
        <time>2015-07-08T14:58:19.1Z</time>
      </trkpt>
      <trkpt lat="48.13608" lon="7.16568">
        <ele>583</ele>
        <time>2015-07-08T14:58:21.1Z</time>
      </trkpt>
      <trkpt lat="48.13608" lon="7.16561">
        <ele>584</ele>
        <time>2015-07-08T14:58:24.1Z</time>
      </trkpt>
      <trkpt lat="48.13608" lon="7.16557">
        <ele>585</ele>
        <time>2015-07-08T14:58:26.1Z</time>
      </trkpt>
      <trkpt lat="48.13608" lon="7.16552">
        <ele>585</ele>
        <time>2015-07-08T14:58:28.1Z</time>
      </trkpt>
      <trkpt lat="48.13608" lon="7.16547">
        <ele>585</ele>
        <time>2015-07-08T14:58:30.1Z</time>
      </trkpt>
      <trkpt lat="48.13607" lon="7.16538">
        <ele>586</ele>
        <time>2015-07-08T14:58:33.1Z</time>
      </trkpt>
      <trkpt lat="48.13607" lon="7.16532">
        <ele>586</ele>
        <time>2015-07-08T14:58:35.1Z</time>
      </trkpt>
      <trkpt lat="48.13608" lon="7.16526">
        <ele>587</ele>
        <time>2015-07-08T14:58:37.1Z</time>
      </trkpt>
      <trkpt lat="48.1361" lon="7.16523">
        <ele>587</ele>
        <time>2015-07-08T14:58:40.1Z</time>
      </trkpt>
      <trkpt lat="48.13613" lon="7.16525">
        <ele>588</ele>
        <time>2015-07-08T14:58:42.1Z</time>
      </trkpt>
      <trkpt lat="48.13616" lon="7.16528">
        <ele>589</ele>
        <time>2015-07-08T14:58:45.1Z</time>
      </trkpt>
      <trkpt lat="48.13619" lon="7.16532">
        <ele>589</ele>
        <time>2015-07-08T14:58:48.1Z</time>
      </trkpt>
      <trkpt lat="48.13623" lon="7.1654">
        <ele>590</ele>
        <time>2015-07-08T14:58:51.1Z</time>
      </trkpt>
      <trkpt lat="48.13626" lon="7.16545">
        <ele>591</ele>
        <time>2015-07-08T14:58:53.1Z</time>
      </trkpt>
      <trkpt lat="48.13629" lon="7.16551">
        <ele>592</ele>
        <time>2015-07-08T14:58:55.1Z</time>
      </trkpt>
      <trkpt lat="48.13632" lon="7.16556">
        <ele>592</ele>
        <time>2015-07-08T14:58:57.1Z</time>
      </trkpt>
      <trkpt lat="48.13636" lon="7.16562">
        <ele>592</ele>
        <time>2015-07-08T14:58:59.1Z</time>
      </trkpt>
      <trkpt lat="48.13639" lon="7.16569">
        <ele>593</ele>
        <time>2015-07-08T14:59:01.1Z</time>
      </trkpt>
      <trkpt lat="48.13643" lon="7.16576">
        <ele>593</ele>
        <time>2015-07-08T14:59:03.1Z</time>
      </trkpt>
      <trkpt lat="48.13647" lon="7.16584">
        <ele>594</ele>
        <time>2015-07-08T14:59:05.1Z</time>
      </trkpt>
      <trkpt lat="48.13652" lon="7.16594">
        <ele>594</ele>
        <time>2015-07-08T14:59:08.1Z</time>
      </trkpt>
      <trkpt lat="48.13656" lon="7.16601">
        <ele>594</ele>
        <time>2015-07-08T14:59:10.1Z</time>
      </trkpt>
      <trkpt lat="48.13661" lon="7.16613">
        <ele>595</ele>
        <time>2015-07-08T14:59:13.1Z</time>
      </trkpt>
      <trkpt lat="48.13664" lon="7.16619">
        <ele>595</ele>
        <time>2015-07-08T14:59:15.1Z</time>
      </trkpt>
      <trkpt lat="48.13668" lon="7.16629">
        <ele>595</ele>
        <time>2015-07-08T14:59:18.1Z</time>
      </trkpt>
      <trkpt lat="48.13671" lon="7.16637">
        <ele>595</ele>
        <time>2015-07-08T14:59:20.1Z</time>
      </trkpt>
      <trkpt lat="48.13674" lon="7.16644">
        <ele>594</ele>
        <time>2015-07-08T14:59:22.1Z</time>
      </trkpt>
      <trkpt lat="48.13678" lon="7.16656">
        <ele>595</ele>
        <time>2015-07-08T14:59:25.1Z</time>
      </trkpt>
      <trkpt lat="48.13682" lon="7.16664">
        <ele>595</ele>
        <time>2015-07-08T14:59:27.1Z</time>
      </trkpt>
      <trkpt lat="48.13686" lon="7.1667">
        <ele>596</ele>
        <time>2015-07-08T14:59:29.1Z</time>
      </trkpt>
      <trkpt lat="48.13692" lon="7.16678">
        <ele>597</ele>
        <time>2015-07-08T14:59:32.1Z</time>
      </trkpt>
      <trkpt lat="48.13695" lon="7.16681">
        <ele>598</ele>
        <time>2015-07-08T14:59:34.1Z</time>
      </trkpt>
      <trkpt lat="48.13697" lon="7.16683">
        <ele>598</ele>
        <time>2015-07-08T14:59:36.1Z</time>
      </trkpt>
      <trkpt lat="48.137" lon="7.16684">
        <ele>598</ele>
        <time>2015-07-08T14:59:39.1Z</time>
      </trkpt>
      <trkpt lat="48.13702" lon="7.16682">
        <ele>598</ele>
        <time>2015-07-08T14:59:42.1Z</time>
      </trkpt>
      <trkpt lat="48.13703" lon="7.16678">
        <ele>599</ele>
        <time>2015-07-08T14:59:44.1Z</time>
      </trkpt>
      <trkpt lat="48.13706" lon="7.16672">
        <ele>599</ele>
        <time>2015-07-08T14:59:47.1Z</time>
      </trkpt>
      <trkpt lat="48.13707" lon="7.1667">
        <ele>599</ele>
        <time>2015-07-08T14:59:49.1Z</time>
      </trkpt>
      <trkpt lat="48.1371" lon="7.16646">
        <ele>599</ele>
        <time>2015-07-08T14:59:52.1Z</time>
      </trkpt>
      <trkpt lat="48.13711" lon="7.16647">
        <ele>599</ele>
        <time>2015-07-08T14:59:54.1Z</time>
      </trkpt>
      <trkpt lat="48.13712" lon="7.16645">
        <ele>599</ele>
        <time>2015-07-08T14:59:57.1Z</time>
      </trkpt>
      <trkpt lat="48.1371" lon="7.16639">
        <ele>599</ele>
        <time>2015-07-08T15:00:00.1Z</time>
      </trkpt>
      <trkpt lat="48.13708" lon="7.16637">
        <ele>600</ele>
        <time>2015-07-08T15:00:02.1Z</time>
      </trkpt>
      <trkpt lat="48.13706" lon="7.16633">
        <ele>600</ele>
        <time>2015-07-08T15:00:04.1Z</time>
      </trkpt>
      <trkpt lat="48.13702" lon="7.16627">
        <ele>601</ele>
        <time>2015-07-08T15:00:06.1Z</time>
      </trkpt>
      <trkpt lat="48.13699" lon="7.16619">
        <ele>602</ele>
        <time>2015-07-08T15:00:08.1Z</time>
      </trkpt>
      <trkpt lat="48.13696" lon="7.16613">
        <ele>603</ele>
        <time>2015-07-08T15:00:10.1Z</time>
      </trkpt>
      <trkpt lat="48.13694" lon="7.16603">
        <ele>603</ele>
        <time>2015-07-08T15:00:13.1Z</time>
      </trkpt>
      <trkpt lat="48.13693" lon="7.16596">
        <ele>603</ele>
        <time>2015-07-08T15:00:15.1Z</time>
      </trkpt>
      <trkpt lat="48.13691" lon="7.1659">
        <ele>603</ele>
        <time>2015-07-08T15:00:17.1Z</time>
      </trkpt>
      <trkpt lat="48.13688" lon="7.16582">
        <ele>603</ele>
        <time>2015-07-08T15:00:20.1Z</time>
      </trkpt>
      <trkpt lat="48.13687" lon="7.16575">
        <ele>604</ele>
        <time>2015-07-08T15:00:23.1Z</time>
      </trkpt>
      <trkpt lat="48.13686" lon="7.16569">
        <ele>604</ele>
        <time>2015-07-08T15:00:25.1Z</time>
      </trkpt>
      <trkpt lat="48.13684" lon="7.16562">
        <ele>605</ele>
        <time>2015-07-08T15:00:27.1Z</time>
      </trkpt>
      <trkpt lat="48.13682" lon="7.16552">
        <ele>605</ele>
        <time>2015-07-08T15:00:30.1Z</time>
      </trkpt>
      <trkpt lat="48.13681" lon="7.16545">
        <ele>604</ele>
        <time>2015-07-08T15:00:32.1Z</time>
      </trkpt>
      <trkpt lat="48.13678" lon="7.16538">
        <ele>605</ele>
        <time>2015-07-08T15:00:35.1Z</time>
      </trkpt>
      <trkpt lat="48.13675" lon="7.16527">
        <ele>605</ele>
        <time>2015-07-08T15:00:38.1Z</time>
      </trkpt>
      <trkpt lat="48.13673" lon="7.16521">
        <ele>606</ele>
        <time>2015-07-08T15:00:40.1Z</time>
      </trkpt>
      <trkpt lat="48.1367" lon="7.16509">
        <ele>606</ele>
        <time>2015-07-08T15:00:43.1Z</time>
      </trkpt>
      <trkpt lat="48.13668" lon="7.165">
        <ele>607</ele>
        <time>2015-07-08T15:00:45.1Z</time>
      </trkpt>
      <trkpt lat="48.13665" lon="7.1649">
        <ele>608</ele>
        <time>2015-07-08T15:00:47.1Z</time>
      </trkpt>
      <trkpt lat="48.13662" lon="7.16474">
        <ele>608</ele>
        <time>2015-07-08T15:00:50.1Z</time>
      </trkpt>
      <trkpt lat="48.13658" lon="7.16463">
        <ele>609</ele>
        <time>2015-07-08T15:00:52.1Z</time>
      </trkpt>
      <trkpt lat="48.13655" lon="7.16446">
        <ele>609</ele>
        <time>2015-07-08T15:00:55.1Z</time>
      </trkpt>
      <trkpt lat="48.13653" lon="7.16428">
        <ele>610</ele>
        <time>2015-07-08T15:00:58.1Z</time>
      </trkpt>
      <trkpt lat="48.13651" lon="7.16412">
        <ele>611</ele>
        <time>2015-07-08T15:01:01.1Z</time>
      </trkpt>
      <trkpt lat="48.13651" lon="7.16402">
        <ele>612</ele>
        <time>2015-07-08T15:01:03.1Z</time>
      </trkpt>
      <trkpt lat="48.1365" lon="7.16391">
        <ele>612</ele>
        <time>2015-07-08T15:01:05.1Z</time>
      </trkpt>
      <trkpt lat="48.13652" lon="7.16379">
        <ele>612</ele>
        <time>2015-07-08T15:01:08.1Z</time>
      </trkpt>
      <trkpt lat="48.13654" lon="7.16369">
        <ele>612</ele>
        <time>2015-07-08T15:01:10.1Z</time>
      </trkpt>
      <trkpt lat="48.13656" lon="7.16359">
        <ele>612</ele>
        <time>2015-07-08T15:01:12.1Z</time>
      </trkpt>
      <trkpt lat="48.13659" lon="7.16347">
        <ele>612</ele>
        <time>2015-07-08T15:01:14.1Z</time>
      </trkpt>
      <trkpt lat="48.13663" lon="7.16328">
        <ele>613</ele>
        <time>2015-07-08T15:01:17.1Z</time>
      </trkpt>
      <trkpt lat="48.13663" lon="7.16317">
        <ele>614</ele>
        <time>2015-07-08T15:01:19.1Z</time>
      </trkpt>
      <trkpt lat="48.13662" lon="7.16298">
        <ele>615</ele>
        <time>2015-07-08T15:01:22.1Z</time>
      </trkpt>
      <trkpt lat="48.13662" lon="7.16285">
        <ele>615</ele>
        <time>2015-07-08T15:01:24.1Z</time>
      </trkpt>
      <trkpt lat="48.13664" lon="7.16271">
        <ele>614</ele>
        <time>2015-07-08T15:01:26.1Z</time>
      </trkpt>
      <trkpt lat="48.13664" lon="7.16257">
        <ele>615</ele>
        <time>2015-07-08T15:01:28.1Z</time>
      </trkpt>
      <trkpt lat="48.13666" lon="7.16235">
        <ele>615</ele>
        <time>2015-07-08T15:01:31.1Z</time>
      </trkpt>
      <trkpt lat="48.13666" lon="7.16218">
        <ele>615</ele>
        <time>2015-07-08T15:01:33.1Z</time>
      </trkpt>
      <trkpt lat="48.13667" lon="7.16199">
        <ele>615</ele>
        <time>2015-07-08T15:01:35.1Z</time>
      </trkpt>
      <trkpt lat="48.13668" lon="7.1618">
        <ele>616</ele>
        <time>2015-07-08T15:01:37.1Z</time>
      </trkpt>
      <trkpt lat="48.13672" lon="7.16154">
        <ele>615</ele>
        <time>2015-07-08T15:01:40.1Z</time>
      </trkpt>
      <trkpt lat="48.13681" lon="7.16133">
        <ele>614</ele>
        <time>2015-07-08T15:01:43.1Z</time>
      </trkpt>
      <trkpt lat="48.13688" lon="7.1612">
        <ele>614</ele>
        <time>2015-07-08T15:01:45.1Z</time>
      </trkpt>
      <trkpt lat="48.13696" lon="7.16107">
        <ele>613</ele>
        <time>2015-07-08T15:01:47.1Z</time>
      </trkpt>
      <trkpt lat="48.13705" lon="7.16086">
        <ele>613</ele>
        <time>2015-07-08T15:01:50.1Z</time>
      </trkpt>
      <trkpt lat="48.1371" lon="7.16071">
        <ele>613</ele>
        <time>2015-07-08T15:01:52.1Z</time>
      </trkpt>
      <trkpt lat="48.13715" lon="7.16057">
        <ele>613</ele>
        <time>2015-07-08T15:01:54.1Z</time>
      </trkpt>
      <trkpt lat="48.13721" lon="7.16042">
        <ele>614</ele>
        <time>2015-07-08T15:01:56.1Z</time>
      </trkpt>
      <trkpt lat="48.13727" lon="7.16028">
        <ele>613</ele>
        <time>2015-07-08T15:01:58.1Z</time>
      </trkpt>
      <trkpt lat="48.13733" lon="7.16013">
        <ele>614</ele>
        <time>2015-07-08T15:02:00.1Z</time>
      </trkpt>
      <trkpt lat="48.13739" lon="7.15999">
        <ele>613</ele>
        <time>2015-07-08T15:02:02.1Z</time>
      </trkpt>
      <trkpt lat="48.13745" lon="7.15983">
        <ele>613</ele>
        <time>2015-07-08T15:02:04.1Z</time>
      </trkpt>
      <trkpt lat="48.1375" lon="7.15968">
        <ele>613</ele>
        <time>2015-07-08T15:02:06.1Z</time>
      </trkpt>
      <trkpt lat="48.13757" lon="7.15948">
        <ele>612</ele>
        <time>2015-07-08T15:02:09.1Z</time>
      </trkpt>
      <trkpt lat="48.13762" lon="7.15936">
        <ele>612</ele>
        <time>2015-07-08T15:02:11.1Z</time>
      </trkpt>
      <trkpt lat="48.13765" lon="7.15928">
        <ele>611</ele>
        <time>2015-07-08T15:02:13.1Z</time>
      </trkpt>
      <trkpt lat="48.13766" lon="7.15924">
        <ele>610</ele>
        <time>2015-07-08T15:02:15.1Z</time>
      </trkpt>
      <trkpt lat="48.13766" lon="7.15922">
        <ele>610</ele>
        <time>2015-07-08T15:02:17.1Z</time>
      </trkpt>
      <trkpt lat="48.13765" lon="7.15913">
        <ele>609</ele>
        <time>2015-07-08T15:02:19.1Z</time>
      </trkpt>
      <trkpt lat="48.13767" lon="7.1591">
        <ele>610</ele>
        <time>2015-07-08T15:02:21.1Z</time>
      </trkpt>
      <trkpt lat="48.1377" lon="7.15906">
        <ele>610</ele>
        <time>2015-07-08T15:02:23.1Z</time>
      </trkpt>
      <trkpt lat="48.13774" lon="7.159">
        <ele>609</ele>
        <time>2015-07-08T15:02:26.1Z</time>
      </trkpt>
      <trkpt lat="48.13779" lon="7.15896">
        <ele>610</ele>
        <time>2015-07-08T15:02:28.1Z</time>
      </trkpt>
      <trkpt lat="48.13784" lon="7.15889">
        <ele>611</ele>
        <time>2015-07-08T15:02:30.1Z</time>
      </trkpt>
      <trkpt lat="48.13792" lon="7.15878">
        <ele>611</ele>
        <time>2015-07-08T15:02:33.1Z</time>
      </trkpt>
      <trkpt lat="48.13798" lon="7.15872">
        <ele>612</ele>
        <time>2015-07-08T15:02:35.1Z</time>
      </trkpt>
      <trkpt lat="48.13806" lon="7.15865">
        <ele>612</ele>
        <time>2015-07-08T15:02:37.1Z</time>
      </trkpt>
      <trkpt lat="48.13814" lon="7.15859">
        <ele>612</ele>
        <time>2015-07-08T15:02:39.1Z</time>
      </trkpt>
      <trkpt lat="48.13822" lon="7.15856">
        <ele>612</ele>
        <time>2015-07-08T15:02:41.1Z</time>
      </trkpt>
      <trkpt lat="48.13827" lon="7.15854">
        <ele>610</ele>
        <time>2015-07-08T15:02:43.1Z</time>
      </trkpt>
      <trkpt lat="48.13833" lon="7.15858">
        <ele>609</ele>
        <time>2015-07-08T15:02:46.1Z</time>
      </trkpt>
      <trkpt lat="48.13838" lon="7.15861">
        <ele>608</ele>
        <time>2015-07-08T15:02:48.1Z</time>
      </trkpt>
      <trkpt lat="48.13843" lon="7.15865">
        <ele>608</ele>
        <time>2015-07-08T15:02:50.1Z</time>
      </trkpt>
      <trkpt lat="48.13849" lon="7.1587">
        <ele>609</ele>
        <time>2015-07-08T15:02:52.1Z</time>
      </trkpt>
      <trkpt lat="48.13855" lon="7.15875">
        <ele>609</ele>
        <time>2015-07-08T15:02:54.1Z</time>
      </trkpt>
      <trkpt lat="48.13862" lon="7.1588">
        <ele>610</ele>
        <time>2015-07-08T15:02:56.1Z</time>
      </trkpt>
      <trkpt lat="48.13869" lon="7.15886">
        <ele>611</ele>
        <time>2015-07-08T15:02:58.1Z</time>
      </trkpt>
      <trkpt lat="48.13876" lon="7.15892">
        <ele>611</ele>
        <time>2015-07-08T15:03:00.1Z</time>
      </trkpt>
      <trkpt lat="48.13884" lon="7.15898">
        <ele>612</ele>
        <time>2015-07-08T15:03:02.1Z</time>
      </trkpt>
      <trkpt lat="48.13895" lon="7.15906">
        <ele>613</ele>
        <time>2015-07-08T15:03:05.1Z</time>
      </trkpt>
      <trkpt lat="48.13902" lon="7.15911">
        <ele>613</ele>
        <time>2015-07-08T15:03:07.1Z</time>
      </trkpt>
      <trkpt lat="48.13909" lon="7.15914">
        <ele>613</ele>
        <time>2015-07-08T15:03:09.1Z</time>
      </trkpt>
      <trkpt lat="48.13923" lon="7.1592">
        <ele>613</ele>
        <time>2015-07-08T15:03:12.1Z</time>
      </trkpt>
      <trkpt lat="48.13934" lon="7.15925">
        <ele>612</ele>
        <time>2015-07-08T15:03:14.1Z</time>
      </trkpt>
      <trkpt lat="48.13952" lon="7.15933">
        <ele>613</ele>
        <time>2015-07-08T15:03:17.1Z</time>
      </trkpt>
      <trkpt lat="48.13964" lon="7.1594">
        <ele>613</ele>
        <time>2015-07-08T15:03:19.1Z</time>
      </trkpt>
      <trkpt lat="48.13981" lon="7.15948">
        <ele>612</ele>
        <time>2015-07-08T15:03:22.1Z</time>
      </trkpt>
      <trkpt lat="48.13994" lon="7.15957">
        <ele>612</ele>
        <time>2015-07-08T15:03:24.1Z</time>
      </trkpt>
      <trkpt lat="48.14007" lon="7.15966">
        <ele>611</ele>
        <time>2015-07-08T15:03:26.1Z</time>
      </trkpt>
      <trkpt lat="48.14027" lon="7.15983">
        <ele>610</ele>
        <time>2015-07-08T15:03:29.1Z</time>
      </trkpt>
      <trkpt lat="48.14049" lon="7.15998">
        <ele>610</ele>
        <time>2015-07-08T15:03:32.1Z</time>
      </trkpt>
      <trkpt lat="48.14063" lon="7.16009">
        <ele>610</ele>
        <time>2015-07-08T15:03:34.1Z</time>
      </trkpt>
      <trkpt lat="48.14077" lon="7.16027">
        <ele>608</ele>
        <time>2015-07-08T15:03:37.1Z</time>
      </trkpt>
      <trkpt lat="48.14083" lon="7.16035">
        <ele>606</ele>
        <time>2015-07-08T15:03:40.1Z</time>
      </trkpt>
      <trkpt lat="48.14086" lon="7.1604">
        <ele>605</ele>
        <time>2015-07-08T15:03:43.1Z</time>
      </trkpt>
      <trkpt lat="48.1409" lon="7.16045">
        <ele>604</ele>
        <time>2015-07-08T15:03:46.1Z</time>
      </trkpt>
      <trkpt lat="48.14094" lon="7.1605">
        <ele>604</ele>
        <time>2015-07-08T15:03:48.1Z</time>
      </trkpt>
      <trkpt lat="48.141" lon="7.16058">
        <ele>604</ele>
        <time>2015-07-08T15:03:51.1Z</time>
      </trkpt>
      <trkpt lat="48.14104" lon="7.16064">
        <ele>604</ele>
        <time>2015-07-08T15:03:53.1Z</time>
      </trkpt>
      <trkpt lat="48.14112" lon="7.16076">
        <ele>603</ele>
        <time>2015-07-08T15:03:56.1Z</time>
      </trkpt>
      <trkpt lat="48.14121" lon="7.16093">
        <ele>603</ele>
        <time>2015-07-08T15:03:59.1Z</time>
      </trkpt>
      <trkpt lat="48.14134" lon="7.16112">
        <ele>604</ele>
        <time>2015-07-08T15:04:02.1Z</time>
      </trkpt>
      <trkpt lat="48.14148" lon="7.16133">
        <ele>605</ele>
        <time>2015-07-08T15:04:05.1Z</time>
      </trkpt>
      <trkpt lat="48.14162" lon="7.16161">
        <ele>606</ele>
        <time>2015-07-08T15:04:08.1Z</time>
      </trkpt>
      <trkpt lat="48.14172" lon="7.16183">
        <ele>606</ele>
        <time>2015-07-08T15:04:10.1Z</time>
      </trkpt>
      <trkpt lat="48.14188" lon="7.16217">
        <ele>607</ele>
        <time>2015-07-08T15:04:13.1Z</time>
      </trkpt>
      <trkpt lat="48.14204" lon="7.16249">
        <ele>607</ele>
        <time>2015-07-08T15:04:16.1Z</time>
      </trkpt>
      <trkpt lat="48.14216" lon="7.16283">
        <ele>606</ele>
        <time>2015-07-08T15:04:19.1Z</time>
      </trkpt>
      <trkpt lat="48.14225" lon="7.16304">
        <ele>606</ele>
        <time>2015-07-08T15:04:21.1Z</time>
      </trkpt>
      <trkpt lat="48.14232" lon="7.16325">
        <ele>606</ele>
        <time>2015-07-08T15:04:23.1Z</time>
      </trkpt>
      <trkpt lat="48.1424" lon="7.16356">
        <ele>607</ele>
        <time>2015-07-08T15:04:26.1Z</time>
      </trkpt>
      <trkpt lat="48.14245" lon="7.16384">
        <ele>606</ele>
        <time>2015-07-08T15:04:29.1Z</time>
      </trkpt>
      <trkpt lat="48.14249" lon="7.16407">
        <ele>605</ele>
        <time>2015-07-08T15:04:32.1Z</time>
      </trkpt>
      <trkpt lat="48.14248" lon="7.16428">
        <ele>605</ele>
        <time>2015-07-08T15:04:35.1Z</time>
      </trkpt>
      <trkpt lat="48.14247" lon="7.1644">
        <ele>605</ele>
        <time>2015-07-08T15:04:37.1Z</time>
      </trkpt>
      <trkpt lat="48.14244" lon="7.16459">
        <ele>605</ele>
        <time>2015-07-08T15:04:40.1Z</time>
      </trkpt>
      <trkpt lat="48.14236" lon="7.16483">
        <ele>606</ele>
        <time>2015-07-08T15:04:43.1Z</time>
      </trkpt>
      <trkpt lat="48.14228" lon="7.16509">
        <ele>606</ele>
        <time>2015-07-08T15:04:46.1Z</time>
      </trkpt>
      <trkpt lat="48.14221" lon="7.16526">
        <ele>606</ele>
        <time>2015-07-08T15:04:48.1Z</time>
      </trkpt>
      <trkpt lat="48.1421" lon="7.16543">
        <ele>606</ele>
        <time>2015-07-08T15:04:51.1Z</time>
      </trkpt>
      <trkpt lat="48.142" lon="7.16552">
        <ele>606</ele>
        <time>2015-07-08T15:04:53.1Z</time>
      </trkpt>
      <trkpt lat="48.14192" lon="7.16559">
        <ele>606</ele>
        <time>2015-07-08T15:04:55.1Z</time>
      </trkpt>
      <trkpt lat="48.14179" lon="7.16569">
        <ele>607</ele>
        <time>2015-07-08T15:04:58.1Z</time>
      </trkpt>
      <trkpt lat="48.14162" lon="7.16577">
        <ele>607</ele>
        <time>2015-07-08T15:05:01.1Z</time>
      </trkpt>
      <trkpt lat="48.1415" lon="7.16583">
        <ele>608</ele>
        <time>2015-07-08T15:05:03.1Z</time>
      </trkpt>
      <trkpt lat="48.14139" lon="7.16588">
        <ele>609</ele>
        <time>2015-07-08T15:05:05.1Z</time>
      </trkpt>
      <trkpt lat="48.14124" lon="7.16596">
        <ele>609</ele>
        <time>2015-07-08T15:05:08.1Z</time>
      </trkpt>
      <trkpt lat="48.14114" lon="7.166">
        <ele>609</ele>
        <time>2015-07-08T15:05:10.1Z</time>
      </trkpt>
      <trkpt lat="48.14099" lon="7.16606">
        <ele>609</ele>
        <time>2015-07-08T15:05:13.1Z</time>
      </trkpt>
      <trkpt lat="48.14089" lon="7.16608">
        <ele>609</ele>
        <time>2015-07-08T15:05:15.1Z</time>
      </trkpt>
      <trkpt lat="48.14075" lon="7.16608">
        <ele>609</ele>
        <time>2015-07-08T15:05:18.1Z</time>
      </trkpt>
      <trkpt lat="48.14062" lon="7.16607">
        <ele>610</ele>
        <time>2015-07-08T15:05:21.1Z</time>
      </trkpt>
      <trkpt lat="48.14052" lon="7.16607">
        <ele>610</ele>
        <time>2015-07-08T15:05:24.1Z</time>
      </trkpt>
      <trkpt lat="48.14047" lon="7.16609">
        <ele>610</ele>
        <time>2015-07-08T15:05:27.1Z</time>
      </trkpt>
      <trkpt lat="48.14046" lon="7.16611">
        <ele>610</ele>
        <time>2015-07-08T15:05:29.1Z</time>
      </trkpt>
      <trkpt lat="48.1405" lon="7.16614">
        <ele>610</ele>
        <time>2015-07-08T15:05:32.1Z</time>
      </trkpt>
      <trkpt lat="48.14061" lon="7.16618">
        <ele>611</ele>
        <time>2015-07-08T15:05:35.1Z</time>
      </trkpt>
      <trkpt lat="48.14078" lon="7.16622">
        <ele>611</ele>
        <time>2015-07-08T15:05:38.1Z</time>
      </trkpt>
      <trkpt lat="48.14096" lon="7.16623">
        <ele>612</ele>
        <time>2015-07-08T15:05:41.1Z</time>
      </trkpt>
      <trkpt lat="48.14107" lon="7.16619">
        <ele>611</ele>
        <time>2015-07-08T15:05:43.1Z</time>
      </trkpt>
      <trkpt lat="48.14117" lon="7.16615">
        <ele>611</ele>
        <time>2015-07-08T15:05:45.1Z</time>
      </trkpt>
      <trkpt lat="48.14134" lon="7.16612">
        <ele>611</ele>
        <time>2015-07-08T15:05:48.1Z</time>
      </trkpt>
      <trkpt lat="48.14149" lon="7.16606">
        <ele>610</ele>
        <time>2015-07-08T15:05:51.1Z</time>
      </trkpt>
      <trkpt lat="48.14166" lon="7.16593">
        <ele>609</ele>
        <time>2015-07-08T15:05:54.1Z</time>
      </trkpt>
      <trkpt lat="48.14184" lon="7.16579">
        <ele>609</ele>
        <time>2015-07-08T15:05:57.1Z</time>
      </trkpt>
      <trkpt lat="48.14198" lon="7.16563">
        <ele>608</ele>
        <time>2015-07-08T15:06:00.1Z</time>
      </trkpt>
      <trkpt lat="48.14201" lon="7.1655">
        <ele>607</ele>
        <time>2015-07-08T15:06:02.1Z</time>
      </trkpt>
      <trkpt lat="48.14207" lon="7.16535">
        <ele>607</ele>
        <time>2015-07-08T15:06:04.1Z</time>
      </trkpt>
      <trkpt lat="48.1422" lon="7.16516">
        <ele>607</ele>
        <time>2015-07-08T15:06:07.1Z</time>
      </trkpt>
      <trkpt lat="48.14231" lon="7.16496">
        <ele>606</ele>
        <time>2015-07-08T15:06:10.1Z</time>
      </trkpt>
      <trkpt lat="48.14237" lon="7.16484">
        <ele>606</ele>
        <time>2015-07-08T15:06:12.1Z</time>
      </trkpt>
      <trkpt lat="48.14241" lon="7.16471">
        <ele>606</ele>
        <time>2015-07-08T15:06:14.1Z</time>
      </trkpt>
      <trkpt lat="48.14244" lon="7.16456">
        <ele>606</ele>
        <time>2015-07-08T15:06:16.1Z</time>
      </trkpt>
      <trkpt lat="48.14247" lon="7.16433">
        <ele>606</ele>
        <time>2015-07-08T15:06:19.1Z</time>
      </trkpt>
      <trkpt lat="48.14246" lon="7.16416">
        <ele>606</ele>
        <time>2015-07-08T15:06:21.1Z</time>
      </trkpt>
      <trkpt lat="48.14243" lon="7.16392">
        <ele>606</ele>
        <time>2015-07-08T15:06:24.1Z</time>
      </trkpt>
      <trkpt lat="48.14241" lon="7.16375">
        <ele>605</ele>
        <time>2015-07-08T15:06:27.1Z</time>
      </trkpt>
      <trkpt lat="48.14249" lon="7.16375">
        <ele>603</ele>
        <time>2015-07-08T15:06:30.1Z</time>
      </trkpt>
      <trkpt lat="48.14259" lon="7.16382">
        <ele>601</ele>
        <time>2015-07-08T15:06:32.1Z</time>
      </trkpt>
      <trkpt lat="48.14268" lon="7.16389">
        <ele>598</ele>
        <time>2015-07-08T15:06:35.1Z</time>
      </trkpt>
      <trkpt lat="48.14272" lon="7.16377">
        <ele>596</ele>
        <time>2015-07-08T15:06:37.1Z</time>
      </trkpt>
      <trkpt lat="48.14275" lon="7.16348">
        <ele>595</ele>
        <time>2015-07-08T15:06:40.1Z</time>
      </trkpt>
      <trkpt lat="48.14276" lon="7.16315">
        <ele>594</ele>
        <time>2015-07-08T15:06:43.1Z</time>
      </trkpt>
      <trkpt lat="48.14275" lon="7.1629">
        <ele>592</ele>
        <time>2015-07-08T15:06:45.1Z</time>
      </trkpt>
      <trkpt lat="48.14274" lon="7.16264">
        <ele>590</ele>
        <time>2015-07-08T15:06:47.1Z</time>
      </trkpt>
      <trkpt lat="48.14272" lon="7.16226">
        <ele>586</ele>
        <time>2015-07-08T15:06:50.1Z</time>
      </trkpt>
      <trkpt lat="48.1427" lon="7.16188">
        <ele>583</ele>
        <time>2015-07-08T15:06:53.1Z</time>
      </trkpt>
      <trkpt lat="48.14267" lon="7.16166">
        <ele>579</ele>
        <time>2015-07-08T15:06:56.1Z</time>
      </trkpt>
      <trkpt lat="48.14269" lon="7.16162">
        <ele>576</ele>
        <time>2015-07-08T15:06:58.1Z</time>
      </trkpt>
      <trkpt lat="48.14275" lon="7.16165">
        <ele>572</ele>
        <time>2015-07-08T15:07:01.1Z</time>
      </trkpt>
      <trkpt lat="48.1428" lon="7.16176">
        <ele>571</ele>
        <time>2015-07-08T15:07:04.1Z</time>
      </trkpt>
      <trkpt lat="48.14285" lon="7.16192">
        <ele>572</ele>
        <time>2015-07-08T15:07:07.1Z</time>
      </trkpt>
      <trkpt lat="48.1429" lon="7.16214">
        <ele>573</ele>
        <time>2015-07-08T15:07:10.1Z</time>
      </trkpt>
      <trkpt lat="48.14293" lon="7.16224">
        <ele>573</ele>
        <time>2015-07-08T15:07:12.1Z</time>
      </trkpt>
      <trkpt lat="48.14298" lon="7.16237">
        <ele>574</ele>
        <time>2015-07-08T15:07:15.1Z</time>
      </trkpt>
      <trkpt lat="48.14301" lon="7.16247">
        <ele>574</ele>
        <time>2015-07-08T15:07:17.1Z</time>
      </trkpt>
      <trkpt lat="48.14304" lon="7.16264">
        <ele>575</ele>
        <time>2015-07-08T15:07:20.1Z</time>
      </trkpt>
      <trkpt lat="48.14307" lon="7.1628">
        <ele>575</ele>
        <time>2015-07-08T15:07:23.1Z</time>
      </trkpt>
      <trkpt lat="48.14311" lon="7.16291">
        <ele>576</ele>
        <time>2015-07-08T15:07:25.1Z</time>
      </trkpt>
      <trkpt lat="48.14317" lon="7.16312">
        <ele>577</ele>
        <time>2015-07-08T15:07:28.1Z</time>
      </trkpt>
      <trkpt lat="48.14321" lon="7.16335">
        <ele>577</ele>
        <time>2015-07-08T15:07:31.1Z</time>
      </trkpt>
      <trkpt lat="48.14323" lon="7.16357">
        <ele>578</ele>
        <time>2015-07-08T15:07:34.1Z</time>
      </trkpt>
      <trkpt lat="48.14322" lon="7.16379">
        <ele>578</ele>
        <time>2015-07-08T15:07:37.1Z</time>
      </trkpt>
      <trkpt lat="48.14322" lon="7.16401">
        <ele>579</ele>
        <time>2015-07-08T15:07:40.1Z</time>
      </trkpt>
      <trkpt lat="48.1432" lon="7.16425">
        <ele>579</ele>
        <time>2015-07-08T15:07:43.1Z</time>
      </trkpt>
      <trkpt lat="48.1432" lon="7.1644">
        <ele>580</ele>
        <time>2015-07-08T15:07:45.1Z</time>
      </trkpt>
      <trkpt lat="48.14318" lon="7.16459">
        <ele>580</ele>
        <time>2015-07-08T15:07:48.1Z</time>
      </trkpt>
      <trkpt lat="48.14318" lon="7.16469">
        <ele>580</ele>
        <time>2015-07-08T15:07:50.1Z</time>
      </trkpt>
      <trkpt lat="48.14317" lon="7.16481">
        <ele>581</ele>
        <time>2015-07-08T15:07:52.1Z</time>
      </trkpt>
      <trkpt lat="48.14313" lon="7.165">
        <ele>581</ele>
        <time>2015-07-08T15:07:55.1Z</time>
      </trkpt>
      <trkpt lat="48.14307" lon="7.16515">
        <ele>582</ele>
        <time>2015-07-08T15:07:58.1Z</time>
      </trkpt>
      <trkpt lat="48.14305" lon="7.16526">
        <ele>581</ele>
        <time>2015-07-08T15:08:01.1Z</time>
      </trkpt>
      <trkpt lat="48.14302" lon="7.16538">
        <ele>581</ele>
        <time>2015-07-08T15:08:03.1Z</time>
      </trkpt>
      <trkpt lat="48.14301" lon="7.16565">
        <ele>581</ele>
        <time>2015-07-08T15:08:06.1Z</time>
      </trkpt>
      <trkpt lat="48.14303" lon="7.16593">
        <ele>579</ele>
        <time>2015-07-08T15:08:09.1Z</time>
      </trkpt>
      <trkpt lat="48.14304" lon="7.16609">
        <ele>578</ele>
        <time>2015-07-08T15:08:11.1Z</time>
      </trkpt>
      <trkpt lat="48.14304" lon="7.16631">
        <ele>576</ele>
        <time>2015-07-08T15:08:13.1Z</time>
      </trkpt>
      <trkpt lat="48.14302" lon="7.16648">
        <ele>574</ele>
        <time>2015-07-08T15:08:15.1Z</time>
      </trkpt>
      <trkpt lat="48.14302" lon="7.16665">
        <ele>571</ele>
        <time>2015-07-08T15:08:18.1Z</time>
      </trkpt>
      <trkpt lat="48.14302" lon="7.16672">
        <ele>569</ele>
        <time>2015-07-08T15:08:20.1Z</time>
      </trkpt>
      <trkpt lat="48.14302" lon="7.16677">
        <ele>567</ele>
        <time>2015-07-08T15:08:22.1Z</time>
      </trkpt>
      <trkpt lat="48.14307" lon="7.16678">
        <ele>566</ele>
        <time>2015-07-08T15:08:24.1Z</time>
      </trkpt>
      <trkpt lat="48.14313" lon="7.16679">
        <ele>566</ele>
        <time>2015-07-08T15:08:26.1Z</time>
      </trkpt>
      <trkpt lat="48.14327" lon="7.16678">
        <ele>566</ele>
        <time>2015-07-08T15:08:29.1Z</time>
      </trkpt>
      <trkpt lat="48.14343" lon="7.16676">
        <ele>566</ele>
        <time>2015-07-08T15:08:32.1Z</time>
      </trkpt>
      <trkpt lat="48.14354" lon="7.16675">
        <ele>565</ele>
        <time>2015-07-08T15:08:34.1Z</time>
      </trkpt>
      <trkpt lat="48.14365" lon="7.16671">
        <ele>564</ele>
        <time>2015-07-08T15:08:37.1Z</time>
      </trkpt>
      <trkpt lat="48.14369" lon="7.1667">
        <ele>562</ele>
        <time>2015-07-08T15:08:39.1Z</time>
      </trkpt>
      <trkpt lat="48.14371" lon="7.16671">
        <ele>560</ele>
        <time>2015-07-08T15:08:42.1Z</time>
      </trkpt>
      <trkpt lat="48.14374" lon="7.16681">
        <ele>558</ele>
        <time>2015-07-08T15:08:44.1Z</time>
      </trkpt>
      <trkpt lat="48.14375" lon="7.1668">
        <ele>558</ele>
        <time>2015-07-08T15:08:46.1Z</time>
      </trkpt>
      <trkpt lat="48.14382" lon="7.16681">
        <ele>558</ele>
        <time>2015-07-08T15:08:49.1Z</time>
      </trkpt>
      <trkpt lat="48.14396" lon="7.16687">
        <ele>558</ele>
        <time>2015-07-08T15:08:52.1Z</time>
      </trkpt>
      <trkpt lat="48.14407" lon="7.16693">
        <ele>557</ele>
        <time>2015-07-08T15:08:54.1Z</time>
      </trkpt>
      <trkpt lat="48.14422" lon="7.16692">
        <ele>556</ele>
        <time>2015-07-08T15:08:57.1Z</time>
      </trkpt>
      <trkpt lat="48.14431" lon="7.16688">
        <ele>554</ele>
        <time>2015-07-08T15:09:00.1Z</time>
      </trkpt>
      <trkpt lat="48.14438" lon="7.16695">
        <ele>553</ele>
        <time>2015-07-08T15:09:02.1Z</time>
      </trkpt>
      <trkpt lat="48.14446" lon="7.16707">
        <ele>551</ele>
        <time>2015-07-08T15:09:05.1Z</time>
      </trkpt>
      <trkpt lat="48.14453" lon="7.16705">
        <ele>549</ele>
        <time>2015-07-08T15:09:08.1Z</time>
      </trkpt>
      <trkpt lat="48.14456" lon="7.16703">
        <ele>548</ele>
        <time>2015-07-08T15:09:10.1Z</time>
      </trkpt>
      <trkpt lat="48.14459" lon="7.16702">
        <ele>547</ele>
        <time>2015-07-08T15:09:12.1Z</time>
      </trkpt>
      <trkpt lat="48.14463" lon="7.16705">
        <ele>547</ele>
        <time>2015-07-08T15:09:15.1Z</time>
      </trkpt>
      <trkpt lat="48.14464" lon="7.1671">
        <ele>546</ele>
        <time>2015-07-08T15:09:17.1Z</time>
      </trkpt>
      <trkpt lat="48.14466" lon="7.16716">
        <ele>545</ele>
        <time>2015-07-08T15:09:19.1Z</time>
      </trkpt>
      <trkpt lat="48.14468" lon="7.16718">
        <ele>544</ele>
        <time>2015-07-08T15:09:21.1Z</time>
      </trkpt>
      <trkpt lat="48.14471" lon="7.16718">
        <ele>543</ele>
        <time>2015-07-08T15:09:23.1Z</time>
      </trkpt>
      <trkpt lat="48.14476" lon="7.16719">
        <ele>542</ele>
        <time>2015-07-08T15:09:25.1Z</time>
      </trkpt>
      <trkpt lat="48.14486" lon="7.1672">
        <ele>540</ele>
        <time>2015-07-08T15:09:28.1Z</time>
      </trkpt>
      <trkpt lat="48.14493" lon="7.1672">
        <ele>539</ele>
        <time>2015-07-08T15:09:30.1Z</time>
      </trkpt>
      <trkpt lat="48.14498" lon="7.16722">
        <ele>537</ele>
        <time>2015-07-08T15:09:32.1Z</time>
      </trkpt>
      <trkpt lat="48.14506" lon="7.16729">
        <ele>534</ele>
        <time>2015-07-08T15:09:35.1Z</time>
      </trkpt>
      <trkpt lat="48.14513" lon="7.16731">
        <ele>533</ele>
        <time>2015-07-08T15:09:38.1Z</time>
      </trkpt>
      <trkpt lat="48.14521" lon="7.16718">
        <ele>531</ele>
        <time>2015-07-08T15:09:41.1Z</time>
      </trkpt>
      <trkpt lat="48.14523" lon="7.167">
        <ele>530</ele>
        <time>2015-07-08T15:09:43.1Z</time>
      </trkpt>
      <trkpt lat="48.14521" lon="7.16683">
        <ele>530</ele>
        <time>2015-07-08T15:09:45.1Z</time>
      </trkpt>
      <trkpt lat="48.14518" lon="7.16665">
        <ele>529</ele>
        <time>2015-07-08T15:09:47.1Z</time>
      </trkpt>
      <trkpt lat="48.14513" lon="7.16635">
        <ele>527</ele>
        <time>2015-07-08T15:09:50.1Z</time>
      </trkpt>
      <trkpt lat="48.14509" lon="7.16608">
        <ele>525</ele>
        <time>2015-07-08T15:09:53.1Z</time>
      </trkpt>
      <trkpt lat="48.14508" lon="7.16598">
        <ele>522</ele>
        <time>2015-07-08T15:09:55.1Z</time>
      </trkpt>
      <trkpt lat="48.14511" lon="7.16591">
        <ele>520</ele>
        <time>2015-07-08T15:09:58.1Z</time>
      </trkpt>
      <trkpt lat="48.14517" lon="7.16585">
        <ele>519</ele>
        <time>2015-07-08T15:10:00.1Z</time>
      </trkpt>
      <trkpt lat="48.14524" lon="7.16582">
        <ele>519</ele>
        <time>2015-07-08T15:10:02.1Z</time>
      </trkpt>
      <trkpt lat="48.14537" lon="7.16577">
        <ele>520</ele>
        <time>2015-07-08T15:10:05.1Z</time>
      </trkpt>
      <trkpt lat="48.14547" lon="7.16573">
        <ele>521</ele>
        <time>2015-07-08T15:10:08.1Z</time>
      </trkpt>
      <trkpt lat="48.14552" lon="7.1657">
        <ele>523</ele>
        <time>2015-07-08T15:10:10.1Z</time>
      </trkpt>
      <trkpt lat="48.14554" lon="7.16566">
        <ele>524</ele>
        <time>2015-07-08T15:10:12.1Z</time>
      </trkpt>
      <trkpt lat="48.14555" lon="7.16559">
        <ele>524</ele>
        <time>2015-07-08T15:10:14.1Z</time>
      </trkpt>
      <trkpt lat="48.14555" lon="7.16544">
        <ele>526</ele>
        <time>2015-07-08T15:10:17.1Z</time>
      </trkpt>
      <trkpt lat="48.14554" lon="7.16528">
        <ele>527</ele>
        <time>2015-07-08T15:10:20.1Z</time>
      </trkpt>
      <trkpt lat="48.14553" lon="7.16515">
        <ele>527</ele>
        <time>2015-07-08T15:10:22.1Z</time>
      </trkpt>
      <trkpt lat="48.1455" lon="7.16502">
        <ele>528</ele>
        <time>2015-07-08T15:10:24.1Z</time>
      </trkpt>
      <trkpt lat="48.14547" lon="7.1649">
        <ele>529</ele>
        <time>2015-07-08T15:10:26.1Z</time>
      </trkpt>
      <trkpt lat="48.14543" lon="7.1648">
        <ele>530</ele>
        <time>2015-07-08T15:10:28.1Z</time>
      </trkpt>
      <trkpt lat="48.14539" lon="7.16471">
        <ele>531</ele>
        <time>2015-07-08T15:10:30.1Z</time>
      </trkpt>
      <trkpt lat="48.14531" lon="7.16456">
        <ele>531</ele>
        <time>2015-07-08T15:10:33.1Z</time>
      </trkpt>
      <trkpt lat="48.14527" lon="7.16445">
        <ele>532</ele>
        <time>2015-07-08T15:10:35.1Z</time>
      </trkpt>
      <trkpt lat="48.14522" lon="7.16435">
        <ele>533</ele>
        <time>2015-07-08T15:10:37.1Z</time>
      </trkpt>
      <trkpt lat="48.14519" lon="7.16424">
        <ele>532</ele>
        <time>2015-07-08T15:10:39.1Z</time>
      </trkpt>
      <trkpt lat="48.14517" lon="7.16412">
        <ele>533</ele>
        <time>2015-07-08T15:10:41.1Z</time>
      </trkpt>
      <trkpt lat="48.14514" lon="7.16402">
        <ele>533</ele>
        <time>2015-07-08T15:10:43.1Z</time>
      </trkpt>
      <trkpt lat="48.14508" lon="7.16389">
        <ele>532</ele>
        <time>2015-07-08T15:10:46.1Z</time>
      </trkpt>
      <trkpt lat="48.14505" lon="7.16383">
        <ele>532</ele>
        <time>2015-07-08T15:10:48.1Z</time>
      </trkpt>
      <trkpt lat="48.14502" lon="7.16374">
        <ele>532</ele>
        <time>2015-07-08T15:10:50.1Z</time>
      </trkpt>
      <trkpt lat="48.14499" lon="7.16364">
        <ele>532</ele>
        <time>2015-07-08T15:10:52.1Z</time>
      </trkpt>
      <trkpt lat="48.14494" lon="7.16349">
        <ele>534</ele>
        <time>2015-07-08T15:10:55.1Z</time>
      </trkpt>
      <trkpt lat="48.1449" lon="7.16334">
        <ele>536</ele>
        <time>2015-07-08T15:10:58.1Z</time>
      </trkpt>
      <trkpt lat="48.14487" lon="7.16325">
        <ele>537</ele>
        <time>2015-07-08T15:11:00.1Z</time>
      </trkpt>
      <trkpt lat="48.14484" lon="7.16314">
        <ele>537</ele>
        <time>2015-07-08T15:11:02.1Z</time>
      </trkpt>
      <trkpt lat="48.1448" lon="7.16305">
        <ele>536</ele>
        <time>2015-07-08T15:11:04.1Z</time>
      </trkpt>
      <trkpt lat="48.14479" lon="7.16301">
        <ele>535</ele>
        <time>2015-07-08T15:11:06.1Z</time>
      </trkpt>
      <trkpt lat="48.14478" lon="7.16301">
        <ele>533</ele>
        <time>2015-07-08T15:11:09.1Z</time>
      </trkpt>
      <trkpt lat="48.14479" lon="7.163">
        <ele>532</ele>
        <time>2015-07-08T15:11:11.1Z</time>
      </trkpt>
      <trkpt lat="48.14479" lon="7.163">
        <ele>531</ele>
        <time>2015-07-08T15:11:13.1Z</time>
      </trkpt>
      <trkpt lat="48.14479" lon="7.16299">
        <ele>531</ele>
        <time>2015-07-08T15:11:15.1Z</time>
      </trkpt>
      <trkpt lat="48.14475" lon="7.16293">
        <ele>531</ele>
        <time>2015-07-08T15:11:18.1Z</time>
      </trkpt>
      <trkpt lat="48.14471" lon="7.16287">
        <ele>532</ele>
        <time>2015-07-08T15:11:21.1Z</time>
      </trkpt>
      <trkpt lat="48.14468" lon="7.16281">
        <ele>532</ele>
        <time>2015-07-08T15:11:23.1Z</time>
      </trkpt>
      <trkpt lat="48.14466" lon="7.16275">
        <ele>531</ele>
        <time>2015-07-08T15:11:25.1Z</time>
      </trkpt>
      <trkpt lat="48.14465" lon="7.16264">
        <ele>530</ele>
        <time>2015-07-08T15:11:28.1Z</time>
      </trkpt>
      <trkpt lat="48.14464" lon="7.16251">
        <ele>529</ele>
        <time>2015-07-08T15:11:31.1Z</time>
      </trkpt>
      <trkpt lat="48.14465" lon="7.16243">
        <ele>528</ele>
        <time>2015-07-08T15:11:33.1Z</time>
      </trkpt>
      <trkpt lat="48.14465" lon="7.16236">
        <ele>527</ele>
        <time>2015-07-08T15:11:35.1Z</time>
      </trkpt>
      <trkpt lat="48.14465" lon="7.16226">
        <ele>526</ele>
        <time>2015-07-08T15:11:38.1Z</time>
      </trkpt>
      <trkpt lat="48.14463" lon="7.1622">
        <ele>526</ele>
        <time>2015-07-08T15:11:40.1Z</time>
      </trkpt>
      <trkpt lat="48.14463" lon="7.16215">
        <ele>526</ele>
        <time>2015-07-08T15:11:42.1Z</time>
      </trkpt>
      <trkpt lat="48.14463" lon="7.16207">
        <ele>527</ele>
        <time>2015-07-08T15:11:45.1Z</time>
      </trkpt>
      <trkpt lat="48.14462" lon="7.16204">
        <ele>527</ele>
        <time>2015-07-08T15:11:47.1Z</time>
      </trkpt>
      <trkpt lat="48.14462" lon="7.16202">
        <ele>526</ele>
        <time>2015-07-08T15:11:50.1Z</time>
      </trkpt>
      <trkpt lat="48.14462" lon="7.16201">
        <ele>525</ele>
        <time>2015-07-08T15:11:53.1Z</time>
      </trkpt>
      <trkpt lat="48.14462" lon="7.162">
        <ele>525</ele>
        <time>2015-07-08T15:11:55.1Z</time>
      </trkpt>
      <trkpt lat="48.14462" lon="7.162">
        <ele>525</ele>
        <time>2015-07-08T15:11:59.1Z</time>
      </trkpt>
      <trkpt lat="48.14463" lon="7.16198">
        <ele>525</ele>
        <time>2015-07-08T15:12:01.1Z</time>
      </trkpt>
      <trkpt lat="48.14464" lon="7.16193">
        <ele>525</ele>
        <time>2015-07-08T15:12:04.1Z</time>
      </trkpt>
      <trkpt lat="48.14464" lon="7.16185">
        <ele>524</ele>
        <time>2015-07-08T15:12:06.1Z</time>
      </trkpt>
      <trkpt lat="48.14461" lon="7.16173">
        <ele>524</ele>
        <time>2015-07-08T15:12:09.1Z</time>
      </trkpt>
      <trkpt lat="48.1446" lon="7.16162">
        <ele>522</ele>
        <time>2015-07-08T15:12:12.1Z</time>
      </trkpt>
      <trkpt lat="48.14457" lon="7.16152">
        <ele>522</ele>
        <time>2015-07-08T15:12:15.1Z</time>
      </trkpt>
      <trkpt lat="48.14456" lon="7.16142">
        <ele>522</ele>
        <time>2015-07-08T15:12:17.1Z</time>
      </trkpt>
      <trkpt lat="48.14451" lon="7.16131">
        <ele>521</ele>
        <time>2015-07-08T15:12:20.1Z</time>
      </trkpt>
      <trkpt lat="48.14449" lon="7.16126">
        <ele>521</ele>
        <time>2015-07-08T15:12:22.1Z</time>
      </trkpt>
      <trkpt lat="48.14447" lon="7.16122">
        <ele>521</ele>
        <time>2015-07-08T15:12:24.1Z</time>
      </trkpt>
      <trkpt lat="48.14444" lon="7.16119">
        <ele>521</ele>
        <time>2015-07-08T15:12:26.1Z</time>
      </trkpt>
      <trkpt lat="48.14441" lon="7.16113">
        <ele>521</ele>
        <time>2015-07-08T15:12:28.1Z</time>
      </trkpt>
      <trkpt lat="48.14435" lon="7.16106">
        <ele>521</ele>
        <time>2015-07-08T15:12:31.1Z</time>
      </trkpt>
      <trkpt lat="48.14431" lon="7.161">
        <ele>522</ele>
        <time>2015-07-08T15:12:34.1Z</time>
      </trkpt>
      <trkpt lat="48.14428" lon="7.16094">
        <ele>522</ele>
        <time>2015-07-08T15:12:36.1Z</time>
      </trkpt>
      <trkpt lat="48.14426" lon="7.16089">
        <ele>522</ele>
        <time>2015-07-08T15:12:38.1Z</time>
      </trkpt>
      <trkpt lat="48.14422" lon="7.16083">
        <ele>521</ele>
        <time>2015-07-08T15:12:41.1Z</time>
      </trkpt>
      <trkpt lat="48.14419" lon="7.16081">
        <ele>522</ele>
        <time>2015-07-08T15:12:43.1Z</time>
      </trkpt>
      <trkpt lat="48.14416" lon="7.16079">
        <ele>522</ele>
        <time>2015-07-08T15:12:45.1Z</time>
      </trkpt>
      <trkpt lat="48.14414" lon="7.16077">
        <ele>522</ele>
        <time>2015-07-08T15:12:47.1Z</time>
      </trkpt>
      <trkpt lat="48.14412" lon="7.16075">
        <ele>522</ele>
        <time>2015-07-08T15:12:49.1Z</time>
      </trkpt>
      <trkpt lat="48.14412" lon="7.16074">
        <ele>522</ele>
        <time>2015-07-08T15:12:52.1Z</time>
      </trkpt>
      <trkpt lat="48.14411" lon="7.16073">
        <ele>521</ele>
        <time>2015-07-08T15:12:54.1Z</time>
      </trkpt>
      <trkpt lat="48.14409" lon="7.16071">
        <ele>521</ele>
        <time>2015-07-08T15:12:56.1Z</time>
      </trkpt>
      <trkpt lat="48.14405" lon="7.16066">
        <ele>521</ele>
        <time>2015-07-08T15:12:58.1Z</time>
      </trkpt>
      <trkpt lat="48.144" lon="7.16058">
        <ele>522</ele>
        <time>2015-07-08T15:13:01.1Z</time>
      </trkpt>
      <trkpt lat="48.14397" lon="7.16053">
        <ele>523</ele>
        <time>2015-07-08T15:13:03.1Z</time>
      </trkpt>
      <trkpt lat="48.14392" lon="7.16046">
        <ele>524</ele>
        <time>2015-07-08T15:13:06.1Z</time>
      </trkpt>
      <trkpt lat="48.14389" lon="7.1604">
        <ele>524</ele>
        <time>2015-07-08T15:13:08.1Z</time>
      </trkpt>
      <trkpt lat="48.14388" lon="7.16033">
        <ele>523</ele>
        <time>2015-07-08T15:13:10.1Z</time>
      </trkpt>
      <trkpt lat="48.14386" lon="7.16027">
        <ele>522</ele>
        <time>2015-07-08T15:13:12.1Z</time>
      </trkpt>
      <trkpt lat="48.14385" lon="7.16023">
        <ele>522</ele>
        <time>2015-07-08T15:13:14.1Z</time>
      </trkpt>
      <trkpt lat="48.14387" lon="7.16013">
        <ele>521</ele>
        <time>2015-07-08T15:13:17.1Z</time>
      </trkpt>
      <trkpt lat="48.14388" lon="7.16003">
        <ele>521</ele>
        <time>2015-07-08T15:13:19.1Z</time>
      </trkpt>
      <trkpt lat="48.14388" lon="7.15995">
        <ele>521</ele>
        <time>2015-07-08T15:13:21.1Z</time>
      </trkpt>
      <trkpt lat="48.14388" lon="7.15988">
        <ele>520</ele>
        <time>2015-07-08T15:13:23.1Z</time>
      </trkpt>
      <trkpt lat="48.14388" lon="7.15983">
        <ele>519</ele>
        <time>2015-07-08T15:13:26.1Z</time>
      </trkpt>
      <trkpt lat="48.14388" lon="7.15983">
        <ele>518</ele>
        <time>2015-07-08T15:13:29.1Z</time>
      </trkpt>
      <trkpt lat="48.14388" lon="7.15982">
        <ele>518</ele>
        <time>2015-07-08T15:13:32.1Z</time>
      </trkpt>
      <trkpt lat="48.14388" lon="7.15982">
        <ele>518</ele>
        <time>2015-07-08T15:13:36.1Z</time>
      </trkpt>
      <trkpt lat="48.14388" lon="7.15982">
        <ele>518</ele>
        <time>2015-07-08T15:13:38.1Z</time>
      </trkpt>
      <trkpt lat="48.14388" lon="7.1598">
        <ele>518</ele>
        <time>2015-07-08T15:13:41.1Z</time>
      </trkpt>
      <trkpt lat="48.14388" lon="7.15979">
        <ele>519</ele>
        <time>2015-07-08T15:13:44.1Z</time>
      </trkpt>
      <trkpt lat="48.14388" lon="7.15977">
        <ele>519</ele>
        <time>2015-07-08T15:13:46.1Z</time>
      </trkpt>
      <trkpt lat="48.14388" lon="7.15976">
        <ele>519</ele>
        <time>2015-07-08T15:13:50.1Z</time>
      </trkpt>
      <trkpt lat="48.14388" lon="7.15974">
        <ele>518</ele>
        <time>2015-07-08T15:13:52.1Z</time>
      </trkpt>
      <trkpt lat="48.14389" lon="7.15966">
        <ele>519</ele>
        <time>2015-07-08T15:13:55.1Z</time>
      </trkpt>
      <trkpt lat="48.1439" lon="7.15958">
        <ele>519</ele>
        <time>2015-07-08T15:13:57.1Z</time>
      </trkpt>
      <trkpt lat="48.14391" lon="7.15952">
        <ele>518</ele>
        <time>2015-07-08T15:14:00.1Z</time>
      </trkpt>
      <trkpt lat="48.14391" lon="7.15949">
        <ele>517</ele>
        <time>2015-07-08T15:14:02.1Z</time>
      </trkpt>
      <trkpt lat="48.14391" lon="7.15947">
        <ele>516</ele>
        <time>2015-07-08T15:14:04.1Z</time>
      </trkpt>
      <trkpt lat="48.14392" lon="7.15946">
        <ele>516</ele>
        <time>2015-07-08T15:14:07.1Z</time>
      </trkpt>
      <trkpt lat="48.14396" lon="7.15946">
        <ele>515</ele>
        <time>2015-07-08T15:14:10.1Z</time>
      </trkpt>
      <trkpt lat="48.14398" lon="7.15948">
        <ele>515</ele>
        <time>2015-07-08T15:14:12.1Z</time>
      </trkpt>
      <trkpt lat="48.14401" lon="7.15951">
        <ele>515</ele>
        <time>2015-07-08T15:14:14.1Z</time>
      </trkpt>
      <trkpt lat="48.14404" lon="7.15953">
        <ele>514</ele>
        <time>2015-07-08T15:14:16.1Z</time>
      </trkpt>
      <trkpt lat="48.14408" lon="7.15955">
        <ele>514</ele>
        <time>2015-07-08T15:14:18.1Z</time>
      </trkpt>
      <trkpt lat="48.14417" lon="7.15955">
        <ele>513</ele>
        <time>2015-07-08T15:14:21.1Z</time>
      </trkpt>
      <trkpt lat="48.14424" lon="7.15953">
        <ele>512</ele>
        <time>2015-07-08T15:14:23.1Z</time>
      </trkpt>
      <trkpt lat="48.14434" lon="7.1595">
        <ele>510</ele>
        <time>2015-07-08T15:14:26.1Z</time>
      </trkpt>
      <trkpt lat="48.14441" lon="7.1595">
        <ele>508</ele>
        <time>2015-07-08T15:14:28.1Z</time>
      </trkpt>
      <trkpt lat="48.14446" lon="7.15952">
        <ele>507</ele>
        <time>2015-07-08T15:14:30.1Z</time>
      </trkpt>
      <trkpt lat="48.14449" lon="7.15952">
        <ele>506</ele>
        <time>2015-07-08T15:14:32.1Z</time>
      </trkpt>
      <trkpt lat="48.14452" lon="7.15947">
        <ele>504</ele>
        <time>2015-07-08T15:14:35.1Z</time>
      </trkpt>
      <trkpt lat="48.14455" lon="7.15942">
        <ele>504</ele>
        <time>2015-07-08T15:14:37.1Z</time>
      </trkpt>
      <trkpt lat="48.14458" lon="7.15937">
        <ele>504</ele>
        <time>2015-07-08T15:14:39.1Z</time>
      </trkpt>
      <trkpt lat="48.14462" lon="7.15933">
        <ele>503</ele>
        <time>2015-07-08T15:14:42.1Z</time>
      </trkpt>
      <trkpt lat="48.14463" lon="7.1593">
        <ele>502</ele>
        <time>2015-07-08T15:14:44.1Z</time>
      </trkpt>
      <trkpt lat="48.14465" lon="7.15926">
        <ele>502</ele>
        <time>2015-07-08T15:14:46.1Z</time>
      </trkpt>
      <trkpt lat="48.14468" lon="7.15922">
        <ele>501</ele>
        <time>2015-07-08T15:14:49.1Z</time>
      </trkpt>
      <trkpt lat="48.14473" lon="7.1592">
        <ele>501</ele>
        <time>2015-07-08T15:14:51.1Z</time>
      </trkpt>
      <trkpt lat="48.14477" lon="7.15917">
        <ele>500</ele>
        <time>2015-07-08T15:14:53.1Z</time>
      </trkpt>
      <trkpt lat="48.1448" lon="7.15916">
        <ele>500</ele>
        <time>2015-07-08T15:14:55.1Z</time>
      </trkpt>
      <trkpt lat="48.14482" lon="7.15914">
        <ele>499</ele>
        <time>2015-07-08T15:14:57.1Z</time>
      </trkpt>
      <trkpt lat="48.14484" lon="7.15914">
        <ele>498</ele>
        <time>2015-07-08T15:14:59.1Z</time>
      </trkpt>
      <trkpt lat="48.14486" lon="7.15911">
        <ele>497</ele>
        <time>2015-07-08T15:15:02.1Z</time>
      </trkpt>
      <trkpt lat="48.14488" lon="7.15908">
        <ele>497</ele>
        <time>2015-07-08T15:15:04.1Z</time>
      </trkpt>
      <trkpt lat="48.1449" lon="7.15906">
        <ele>496</ele>
        <time>2015-07-08T15:15:06.1Z</time>
      </trkpt>
      <trkpt lat="48.1449" lon="7.15906">
        <ele>496</ele>
        <time>2015-07-08T15:15:09.1Z</time>
      </trkpt>
      <trkpt lat="48.14491" lon="7.15905">
        <ele>495</ele>
        <time>2015-07-08T15:15:11.1Z</time>
      </trkpt>
      <trkpt lat="48.14492" lon="7.15904">
        <ele>496</ele>
        <time>2015-07-08T15:15:13.1Z</time>
      </trkpt>
      <trkpt lat="48.14493" lon="7.15903">
        <ele>495</ele>
        <time>2015-07-08T15:15:16.1Z</time>
      </trkpt>
      <trkpt lat="48.14493" lon="7.15903">
        <ele>495</ele>
        <time>2015-07-08T15:15:18.1Z</time>
      </trkpt>
      <trkpt lat="48.14494" lon="7.15902">
        <ele>495</ele>
        <time>2015-07-08T15:15:21.1Z</time>
      </trkpt>
      <trkpt lat="48.14494" lon="7.15901">
        <ele>495</ele>
        <time>2015-07-08T15:15:23.1Z</time>
      </trkpt>
      <trkpt lat="48.14494" lon="7.15901">
        <ele>495</ele>
        <time>2015-07-08T15:15:26.1Z</time>
      </trkpt>
      <trkpt lat="48.14494" lon="7.15901">
        <ele>495</ele>
        <time>2015-07-08T15:15:28.1Z</time>
      </trkpt>
      <trkpt lat="48.14495" lon="7.15899">
        <ele>494</ele>
        <time>2015-07-08T15:15:30.1Z</time>
      </trkpt>
      <trkpt lat="48.14496" lon="7.15899">
        <ele>494</ele>
        <time>2015-07-08T15:15:34.1Z</time>
      </trkpt>
      <trkpt lat="48.14496" lon="7.15899">
        <ele>494</ele>
        <time>2015-07-08T15:15:36.1Z</time>
      </trkpt>
      <trkpt lat="48.14496" lon="7.15899">
        <ele>494</ele>
        <time>2015-07-08T15:15:38.1Z</time>
      </trkpt>
      <trkpt lat="48.14497" lon="7.15899">
        <ele>494</ele>
        <time>2015-07-08T15:15:41.1Z</time>
      </trkpt>
      <trkpt lat="48.14497" lon="7.15898">
        <ele>494</ele>
        <time>2015-07-08T15:15:43.1Z</time>
      </trkpt>
      <trkpt lat="48.14499" lon="7.15895">
        <ele>494</ele>
        <time>2015-07-08T15:15:45.1Z</time>
      </trkpt>
      <trkpt lat="48.14504" lon="7.15889">
        <ele>494</ele>
        <time>2015-07-08T15:15:48.1Z</time>
      </trkpt>
      <trkpt lat="48.14506" lon="7.15883">
        <ele>494</ele>
        <time>2015-07-08T15:15:50.1Z</time>
      </trkpt>
      <trkpt lat="48.14508" lon="7.15877">
        <ele>493</ele>
        <time>2015-07-08T15:15:52.1Z</time>
      </trkpt>
      <trkpt lat="48.1451" lon="7.15871">
        <ele>493</ele>
        <time>2015-07-08T15:15:54.1Z</time>
      </trkpt>
      <trkpt lat="48.14511" lon="7.15867">
        <ele>492</ele>
        <time>2015-07-08T15:15:56.1Z</time>
      </trkpt>
      <trkpt lat="48.14513" lon="7.15862">
        <ele>491</ele>
        <time>2015-07-08T15:15:58.1Z</time>
      </trkpt>
      <trkpt lat="48.14517" lon="7.15853">
        <ele>490</ele>
        <time>2015-07-08T15:16:01.1Z</time>
      </trkpt>
      <trkpt lat="48.14523" lon="7.15844">
        <ele>488</ele>
        <time>2015-07-08T15:16:04.1Z</time>
      </trkpt>
      <trkpt lat="48.14529" lon="7.15839">
        <ele>487</ele>
        <time>2015-07-08T15:16:06.1Z</time>
      </trkpt>
      <trkpt lat="48.14533" lon="7.15835">
        <ele>485</ele>
        <time>2015-07-08T15:16:08.1Z</time>
      </trkpt>
      <trkpt lat="48.14537" lon="7.15834">
        <ele>483</ele>
        <time>2015-07-08T15:16:10.1Z</time>
      </trkpt>
      <trkpt lat="48.14542" lon="7.15834">
        <ele>481</ele>
        <time>2015-07-08T15:16:12.1Z</time>
      </trkpt>
      <trkpt lat="48.14547" lon="7.15835">
        <ele>480</ele>
        <time>2015-07-08T15:16:14.1Z</time>
      </trkpt>
      <trkpt lat="48.14553" lon="7.15837">
        <ele>479</ele>
        <time>2015-07-08T15:16:17.1Z</time>
      </trkpt>
      <trkpt lat="48.14553" lon="7.15835">
        <ele>478</ele>
        <time>2015-07-08T15:16:19.1Z</time>
      </trkpt>
      <trkpt lat="48.14553" lon="7.15834">
        <ele>477</ele>
        <time>2015-07-08T15:16:21.1Z</time>
      </trkpt>
      <trkpt lat="48.14554" lon="7.15832">
        <ele>476</ele>
        <time>2015-07-08T15:16:24.1Z</time>
      </trkpt>
      <trkpt lat="48.14555" lon="7.15831">
        <ele>475</ele>
        <time>2015-07-08T15:16:26.1Z</time>
      </trkpt>
      <trkpt lat="48.14557" lon="7.15831">
        <ele>476</ele>
        <time>2015-07-08T15:16:28.1Z</time>
      </trkpt>
      <trkpt lat="48.1456" lon="7.15833">
        <ele>475</ele>
        <time>2015-07-08T15:16:30.1Z</time>
      </trkpt>
      <trkpt lat="48.14562" lon="7.15835">
        <ele>475</ele>
        <time>2015-07-08T15:16:32.1Z</time>
      </trkpt>
      <trkpt lat="48.14563" lon="7.15835">
        <ele>475</ele>
        <time>2015-07-08T15:16:34.1Z</time>
      </trkpt>
      <trkpt lat="48.14564" lon="7.15834">
        <ele>474</ele>
        <time>2015-07-08T15:16:37.1Z</time>
      </trkpt>
      <trkpt lat="48.14564" lon="7.15832">
        <ele>474</ele>
        <time>2015-07-08T15:16:39.1Z</time>
      </trkpt>
      <trkpt lat="48.14565" lon="7.15829">
        <ele>474</ele>
        <time>2015-07-08T15:16:42.1Z</time>
      </trkpt>
      <trkpt lat="48.14568" lon="7.1583">
        <ele>473</ele>
        <time>2015-07-08T15:16:45.1Z</time>
      </trkpt>
      <trkpt lat="48.14571" lon="7.15835">
        <ele>473</ele>
        <time>2015-07-08T15:16:47.1Z</time>
      </trkpt>
      <trkpt lat="48.14576" lon="7.15842">
        <ele>473</ele>
        <time>2015-07-08T15:16:49.1Z</time>
      </trkpt>
      <trkpt lat="48.14582" lon="7.15852">
        <ele>472</ele>
        <time>2015-07-08T15:16:51.1Z</time>
      </trkpt>
      <trkpt lat="48.14589" lon="7.15864">
        <ele>472</ele>
        <time>2015-07-08T15:16:53.1Z</time>
      </trkpt>
      <trkpt lat="48.14598" lon="7.15878">
        <ele>472</ele>
        <time>2015-07-08T15:16:55.1Z</time>
      </trkpt>
      <trkpt lat="48.14613" lon="7.15905">
        <ele>472</ele>
        <time>2015-07-08T15:16:58.1Z</time>
      </trkpt>
      <trkpt lat="48.14625" lon="7.15924">
        <ele>472</ele>
        <time>2015-07-08T15:17:00.1Z</time>
      </trkpt>
      <trkpt lat="48.1464" lon="7.15944">
        <ele>471</ele>
        <time>2015-07-08T15:17:02.1Z</time>
      </trkpt>
      <trkpt lat="48.14664" lon="7.15976">
        <ele>470</ele>
        <time>2015-07-08T15:17:05.1Z</time>
      </trkpt>
      <trkpt lat="48.14687" lon="7.16018">
        <ele>469</ele>
        <time>2015-07-08T15:17:08.1Z</time>
      </trkpt>
      <trkpt lat="48.14711" lon="7.16062">
        <ele>465</ele>
        <time>2015-07-08T15:17:11.1Z</time>
      </trkpt>
      <trkpt lat="48.14728" lon="7.16108">
        <ele>462</ele>
        <time>2015-07-08T15:17:14.1Z</time>
      </trkpt>
      <trkpt lat="48.14732" lon="7.16144">
        <ele>460</ele>
        <time>2015-07-08T15:17:16.1Z</time>
      </trkpt>
      <trkpt lat="48.14741" lon="7.16199">
        <ele>459</ele>
        <time>2015-07-08T15:17:19.1Z</time>
      </trkpt>
      <trkpt lat="48.14755" lon="7.16233">
        <ele>457</ele>
        <time>2015-07-08T15:17:21.1Z</time>
      </trkpt>
      <trkpt lat="48.14773" lon="7.16264">
        <ele>455</ele>
        <time>2015-07-08T15:17:23.1Z</time>
      </trkpt>
      <trkpt lat="48.14792" lon="7.16294">
        <ele>453</ele>
        <time>2015-07-08T15:17:25.1Z</time>
      </trkpt>
      <trkpt lat="48.14818" lon="7.16342">
        <ele>447</ele>
        <time>2015-07-08T15:17:28.1Z</time>
      </trkpt>
      <trkpt lat="48.14835" lon="7.16369">
        <ele>444</ele>
        <time>2015-07-08T15:17:30.1Z</time>
      </trkpt>
      <trkpt lat="48.14864" lon="7.16409">
        <ele>438</ele>
        <time>2015-07-08T15:17:33.1Z</time>
      </trkpt>
      <trkpt lat="48.14883" lon="7.16436">
        <ele>435</ele>
        <time>2015-07-08T15:17:35.1Z</time>
      </trkpt>
      <trkpt lat="48.14912" lon="7.16479">
        <ele>433</ele>
        <time>2015-07-08T15:17:38.1Z</time>
      </trkpt>
      <trkpt lat="48.14928" lon="7.16506">
        <ele>430</ele>
        <time>2015-07-08T15:17:40.1Z</time>
      </trkpt>
      <trkpt lat="48.14947" lon="7.16549">
        <ele>425</ele>
        <time>2015-07-08T15:17:43.1Z</time>
      </trkpt>
      <trkpt lat="48.14958" lon="7.16569">
        <ele>420</ele>
        <time>2015-07-08T15:17:45.1Z</time>
      </trkpt>
      <trkpt lat="48.1497" lon="7.16584">
        <ele>412</ele>
        <time>2015-07-08T15:17:48.1Z</time>
      </trkpt>
      <trkpt lat="48.14978" lon="7.16578">
        <ele>408</ele>
        <time>2015-07-08T15:17:50.1Z</time>
      </trkpt>
      <trkpt lat="48.14979" lon="7.16564">
        <ele>406</ele>
        <time>2015-07-08T15:17:52.1Z</time>
      </trkpt>
      <trkpt lat="48.14978" lon="7.1655">
        <ele>404</ele>
        <time>2015-07-08T15:17:54.1Z</time>
      </trkpt>
      <trkpt lat="48.14976" lon="7.16529">
        <ele>403</ele>
        <time>2015-07-08T15:17:57.1Z</time>
      </trkpt>
      <trkpt lat="48.14973" lon="7.16517">
        <ele>402</ele>
        <time>2015-07-08T15:17:59.1Z</time>
      </trkpt>
      <trkpt lat="48.14971" lon="7.16505">
        <ele>402</ele>
        <time>2015-07-08T15:18:01.1Z</time>
      </trkpt>
      <trkpt lat="48.14967" lon="7.16494">
        <ele>401</ele>
        <time>2015-07-08T15:18:03.1Z</time>
      </trkpt>
      <trkpt lat="48.14964" lon="7.16483">
        <ele>401</ele>
        <time>2015-07-08T15:18:05.1Z</time>
      </trkpt>
      <trkpt lat="48.14961" lon="7.16473">
        <ele>402</ele>
        <time>2015-07-08T15:18:07.1Z</time>
      </trkpt>
      <trkpt lat="48.14957" lon="7.16463">
        <ele>402</ele>
        <time>2015-07-08T15:18:09.1Z</time>
      </trkpt>
      <trkpt lat="48.14949" lon="7.16446">
        <ele>403</ele>
        <time>2015-07-08T15:18:12.1Z</time>
      </trkpt>
      <trkpt lat="48.14944" lon="7.16434">
        <ele>404</ele>
        <time>2015-07-08T15:18:14.1Z</time>
      </trkpt>
      <trkpt lat="48.1494" lon="7.16423">
        <ele>404</ele>
        <time>2015-07-08T15:18:16.1Z</time>
      </trkpt>
      <trkpt lat="48.14936" lon="7.16411">
        <ele>404</ele>
        <time>2015-07-08T15:18:18.1Z</time>
      </trkpt>
      <trkpt lat="48.14932" lon="7.16399">
        <ele>405</ele>
        <time>2015-07-08T15:18:20.1Z</time>
      </trkpt>
      <trkpt lat="48.14927" lon="7.16387">
        <ele>405</ele>
        <time>2015-07-08T15:18:22.1Z</time>
      </trkpt>
      <trkpt lat="48.14921" lon="7.16367">
        <ele>405</ele>
        <time>2015-07-08T15:18:25.1Z</time>
      </trkpt>
      <trkpt lat="48.14923" lon="7.16353">
        <ele>405</ele>
        <time>2015-07-08T15:18:27.1Z</time>
      </trkpt>
      <trkpt lat="48.14932" lon="7.16347">
        <ele>405</ele>
        <time>2015-07-08T15:18:29.1Z</time>
      </trkpt>
      <trkpt lat="48.14942" lon="7.16347">
        <ele>405</ele>
        <time>2015-07-08T15:18:31.1Z</time>
      </trkpt>
      <trkpt lat="48.14953" lon="7.16348">
        <ele>405</ele>
        <time>2015-07-08T15:18:33.1Z</time>
      </trkpt>
      <trkpt lat="48.14964" lon="7.16348">
        <ele>405</ele>
        <time>2015-07-08T15:18:35.1Z</time>
      </trkpt>
      <trkpt lat="48.14974" lon="7.16348">
        <ele>405</ele>
        <time>2015-07-08T15:18:37.1Z</time>
      </trkpt>
      <trkpt lat="48.14988" lon="7.16349">
        <ele>405</ele>
        <time>2015-07-08T15:18:40.1Z</time>
      </trkpt>
      <trkpt lat="48.14997" lon="7.1635">
        <ele>405</ele>
        <time>2015-07-08T15:18:42.1Z</time>
      </trkpt>
      <trkpt lat="48.15005" lon="7.16355">
        <ele>405</ele>
        <time>2015-07-08T15:18:44.1Z</time>
      </trkpt>
      <trkpt lat="48.15016" lon="7.16362">
        <ele>405</ele>
        <time>2015-07-08T15:18:47.1Z</time>
      </trkpt>
      <trkpt lat="48.15023" lon="7.16367">
        <ele>405</ele>
        <time>2015-07-08T15:18:49.1Z</time>
      </trkpt>
      <trkpt lat="48.15032" lon="7.16373">
        <ele>404</ele>
        <time>2015-07-08T15:18:52.1Z</time>
      </trkpt>
      <trkpt lat="48.15041" lon="7.16378">
        <ele>404</ele>
        <time>2015-07-08T15:18:55.1Z</time>
      </trkpt>
      <trkpt lat="48.15043" lon="7.16381">
        <ele>404</ele>
        <time>2015-07-08T15:18:57.1Z</time>
      </trkpt>
      <trkpt lat="48.15047" lon="7.16389">
        <ele>404</ele>
        <time>2015-07-08T15:18:59.1Z</time>
      </trkpt>
      <trkpt lat="48.15054" lon="7.164">
        <ele>404</ele>
        <time>2015-07-08T15:19:01.1Z</time>
      </trkpt>
      <trkpt lat="48.15065" lon="7.16417">
        <ele>403</ele>
        <time>2015-07-08T15:19:04.1Z</time>
      </trkpt>
      <trkpt lat="48.15074" lon="7.16429">
        <ele>403</ele>
        <time>2015-07-08T15:19:06.1Z</time>
      </trkpt>
      <trkpt lat="48.1509" lon="7.16446">
        <ele>404</ele>
        <time>2015-07-08T15:19:09.1Z</time>
      </trkpt>
      <trkpt lat="48.15101" lon="7.1646">
        <ele>404</ele>
        <time>2015-07-08T15:19:11.1Z</time>
      </trkpt>
      <trkpt lat="48.15116" lon="7.1648">
        <ele>404</ele>
        <time>2015-07-08T15:19:14.1Z</time>
      </trkpt>
      <trkpt lat="48.15124" lon="7.16494">
        <ele>405</ele>
        <time>2015-07-08T15:19:16.1Z</time>
      </trkpt>
      <trkpt lat="48.1513" lon="7.16507">
        <ele>405</ele>
        <time>2015-07-08T15:19:18.1Z</time>
      </trkpt>
      <trkpt lat="48.15134" lon="7.16519">
        <ele>405</ele>
        <time>2015-07-08T15:19:20.1Z</time>
      </trkpt>
      <trkpt lat="48.15142" lon="7.16532">
        <ele>406</ele>
        <time>2015-07-08T15:19:23.1Z</time>
      </trkpt>
      <trkpt lat="48.15148" lon="7.16539">
        <ele>406</ele>
        <time>2015-07-08T15:19:25.1Z</time>
      </trkpt>
      <trkpt lat="48.15158" lon="7.16536">
        <ele>407</ele>
        <time>2015-07-08T15:19:28.1Z</time>
      </trkpt>
      <trkpt lat="48.15162" lon="7.16529">
        <ele>407</ele>
        <time>2015-07-08T15:19:30.1Z</time>
      </trkpt>
      <trkpt lat="48.15164" lon="7.16518">
        <ele>408</ele>
        <time>2015-07-08T15:19:33.1Z</time>
      </trkpt>
      <trkpt lat="48.15165" lon="7.16509">
        <ele>408</ele>
        <time>2015-07-08T15:19:35.1Z</time>
      </trkpt>
      <trkpt lat="48.15165" lon="7.16496">
        <ele>409</ele>
        <time>2015-07-08T15:19:38.1Z</time>
      </trkpt>
      <trkpt lat="48.15165" lon="7.16487">
        <ele>409</ele>
        <time>2015-07-08T15:19:40.1Z</time>
      </trkpt>
      <trkpt lat="48.15163" lon="7.16475">
        <ele>410</ele>
        <time>2015-07-08T15:19:43.1Z</time>
      </trkpt>
      <trkpt lat="48.15162" lon="7.16468">
        <ele>411</ele>
        <time>2015-07-08T15:19:45.1Z</time>
      </trkpt>
      <trkpt lat="48.15158" lon="7.16461">
        <ele>412</ele>
        <time>2015-07-08T15:19:48.1Z</time>
      </trkpt>
      <trkpt lat="48.15157" lon="7.16451">
        <ele>413</ele>
        <time>2015-07-08T15:19:51.1Z</time>
      </trkpt>
      <trkpt lat="48.15155" lon="7.16442">
        <ele>413</ele>
        <time>2015-07-08T15:19:54.1Z</time>
      </trkpt>
      <trkpt lat="48.15152" lon="7.16432">
        <ele>414</ele>
        <time>2015-07-08T15:19:57.1Z</time>
      </trkpt>
      <trkpt lat="48.15147" lon="7.16419">
        <ele>416</ele>
        <time>2015-07-08T15:20:00.1Z</time>
      </trkpt>
      <trkpt lat="48.15141" lon="7.16408">
        <ele>417</ele>
        <time>2015-07-08T15:20:03.1Z</time>
      </trkpt>
      <trkpt lat="48.15134" lon="7.16397">
        <ele>419</ele>
        <time>2015-07-08T15:20:06.1Z</time>
      </trkpt>
      <trkpt lat="48.15129" lon="7.16391">
        <ele>420</ele>
        <time>2015-07-08T15:20:08.1Z</time>
      </trkpt>
      <trkpt lat="48.15125" lon="7.16385">
        <ele>420</ele>
        <time>2015-07-08T15:20:10.1Z</time>
      </trkpt>
      <trkpt lat="48.15121" lon="7.16378">
        <ele>421</ele>
        <time>2015-07-08T15:20:12.1Z</time>
      </trkpt>
      <trkpt lat="48.15117" lon="7.16371">
        <ele>422</ele>
        <time>2015-07-08T15:20:14.1Z</time>
      </trkpt>
      <trkpt lat="48.15114" lon="7.16362">
        <ele>422</ele>
        <time>2015-07-08T15:20:16.1Z</time>
      </trkpt>
      <trkpt lat="48.15112" lon="7.16354">
        <ele>423</ele>
        <time>2015-07-08T15:20:18.1Z</time>
      </trkpt>
      <trkpt lat="48.1511" lon="7.16346">
        <ele>423</ele>
        <time>2015-07-08T15:20:20.1Z</time>
      </trkpt>
      <trkpt lat="48.15109" lon="7.1634">
        <ele>424</ele>
        <time>2015-07-08T15:20:22.1Z</time>
      </trkpt>
      <trkpt lat="48.15107" lon="7.16329">
        <ele>425</ele>
        <time>2015-07-08T15:20:25.1Z</time>
      </trkpt>
      <trkpt lat="48.15106" lon="7.1632">
        <ele>426</ele>
        <time>2015-07-08T15:20:28.1Z</time>
      </trkpt>
      <trkpt lat="48.15105" lon="7.16313">
        <ele>426</ele>
        <time>2015-07-08T15:20:30.1Z</time>
      </trkpt>
      <trkpt lat="48.15104" lon="7.16302">
        <ele>427</ele>
        <time>2015-07-08T15:20:33.1Z</time>
      </trkpt>
      <trkpt lat="48.15104" lon="7.16295">
        <ele>428</ele>
        <time>2015-07-08T15:20:35.1Z</time>
      </trkpt>
      <trkpt lat="48.15102" lon="7.16284">
        <ele>429</ele>
        <time>2015-07-08T15:20:38.1Z</time>
      </trkpt>
      <trkpt lat="48.15102" lon="7.16276">
        <ele>430</ele>
        <time>2015-07-08T15:20:40.1Z</time>
      </trkpt>
      <trkpt lat="48.15101" lon="7.16264">
        <ele>431</ele>
        <time>2015-07-08T15:20:43.1Z</time>
      </trkpt>
      <trkpt lat="48.151" lon="7.16253">
        <ele>433</ele>
        <time>2015-07-08T15:20:46.1Z</time>
      </trkpt>
      <trkpt lat="48.151" lon="7.16244">
        <ele>433</ele>
        <time>2015-07-08T15:20:48.1Z</time>
      </trkpt>
      <trkpt lat="48.15101" lon="7.16232">
        <ele>435</ele>
        <time>2015-07-08T15:20:51.1Z</time>
      </trkpt>
      <trkpt lat="48.15101" lon="7.16219">
        <ele>435</ele>
        <time>2015-07-08T15:20:54.1Z</time>
      </trkpt>
      <trkpt lat="48.15102" lon="7.16211">
        <ele>436</ele>
        <time>2015-07-08T15:20:56.1Z</time>
      </trkpt>
      <trkpt lat="48.15102" lon="7.16205">
        <ele>436</ele>
        <time>2015-07-08T15:20:58.1Z</time>
      </trkpt>
      <trkpt lat="48.15102" lon="7.16201">
        <ele>436</ele>
        <time>2015-07-08T15:21:00.1Z</time>
      </trkpt>
      <trkpt lat="48.15102" lon="7.16193">
        <ele>437</ele>
        <time>2015-07-08T15:21:03.1Z</time>
      </trkpt>
      <trkpt lat="48.15103" lon="7.16187">
        <ele>437</ele>
        <time>2015-07-08T15:21:05.1Z</time>
      </trkpt>
      <trkpt lat="48.15103" lon="7.16181">
        <ele>438</ele>
        <time>2015-07-08T15:21:07.1Z</time>
      </trkpt>
      <trkpt lat="48.15104" lon="7.16174">
        <ele>438</ele>
        <time>2015-07-08T15:21:09.1Z</time>
      </trkpt>
      <trkpt lat="48.15104" lon="7.16167">
        <ele>439</ele>
        <time>2015-07-08T15:21:11.1Z</time>
      </trkpt>
      <trkpt lat="48.15104" lon="7.16156">
        <ele>440</ele>
        <time>2015-07-08T15:21:14.1Z</time>
      </trkpt>
      <trkpt lat="48.15104" lon="7.16144">
        <ele>441</ele>
        <time>2015-07-08T15:21:17.1Z</time>
      </trkpt>
      <trkpt lat="48.15104" lon="7.16136">
        <ele>442</ele>
        <time>2015-07-08T15:21:19.1Z</time>
      </trkpt>
      <trkpt lat="48.15104" lon="7.16128">
        <ele>443</ele>
        <time>2015-07-08T15:21:21.1Z</time>
      </trkpt>
      <trkpt lat="48.15104" lon="7.16116">
        <ele>444</ele>
        <time>2015-07-08T15:21:24.1Z</time>
      </trkpt>
      <trkpt lat="48.15105" lon="7.16108">
        <ele>445</ele>
        <time>2015-07-08T15:21:26.1Z</time>
      </trkpt>
      <trkpt lat="48.15105" lon="7.161">
        <ele>446</ele>
        <time>2015-07-08T15:21:28.1Z</time>
      </trkpt>
      <trkpt lat="48.15105" lon="7.16091">
        <ele>446</ele>
        <time>2015-07-08T15:21:30.1Z</time>
      </trkpt>
      <trkpt lat="48.15105" lon="7.16083">
        <ele>447</ele>
        <time>2015-07-08T15:21:32.1Z</time>
      </trkpt>
      <trkpt lat="48.1511" lon="7.16079">
        <ele>448</ele>
        <time>2015-07-08T15:21:35.1Z</time>
      </trkpt>
      <trkpt lat="48.15113" lon="7.16083">
        <ele>449</ele>
        <time>2015-07-08T15:21:37.1Z</time>
      </trkpt>
      <trkpt lat="48.15118" lon="7.16093">
        <ele>450</ele>
        <time>2015-07-08T15:21:40.1Z</time>
      </trkpt>
      <trkpt lat="48.1512" lon="7.161">
        <ele>450</ele>
        <time>2015-07-08T15:21:42.1Z</time>
      </trkpt>
      <trkpt lat="48.15125" lon="7.1611">
        <ele>451</ele>
        <time>2015-07-08T15:21:45.1Z</time>
      </trkpt>
      <trkpt lat="48.15129" lon="7.1612">
        <ele>452</ele>
        <time>2015-07-08T15:21:48.1Z</time>
      </trkpt>
      <trkpt lat="48.15131" lon="7.16128">
        <ele>452</ele>
        <time>2015-07-08T15:21:50.1Z</time>
      </trkpt>
      <trkpt lat="48.15134" lon="7.16141">
        <ele>452</ele>
        <time>2015-07-08T15:21:53.1Z</time>
      </trkpt>
      <trkpt lat="48.15137" lon="7.16149">
        <ele>453</ele>
        <time>2015-07-08T15:21:55.1Z</time>
      </trkpt>
      <trkpt lat="48.15142" lon="7.16157">
        <ele>453</ele>
        <time>2015-07-08T15:21:57.1Z</time>
      </trkpt>
      <trkpt lat="48.15147" lon="7.16165">
        <ele>454</ele>
        <time>2015-07-08T15:21:59.1Z</time>
      </trkpt>
      <trkpt lat="48.15155" lon="7.16171">
        <ele>454</ele>
        <time>2015-07-08T15:22:02.1Z</time>
      </trkpt>
      <trkpt lat="48.15163" lon="7.16171">
        <ele>455</ele>
        <time>2015-07-08T15:22:05.1Z</time>
      </trkpt>
      <trkpt lat="48.1517" lon="7.16169">
        <ele>456</ele>
        <time>2015-07-08T15:22:08.1Z</time>
      </trkpt>
      <trkpt lat="48.15176" lon="7.16164">
        <ele>457</ele>
        <time>2015-07-08T15:22:11.1Z</time>
      </trkpt>
      <trkpt lat="48.1518" lon="7.1616">
        <ele>457</ele>
        <time>2015-07-08T15:22:13.1Z</time>
      </trkpt>
      <trkpt lat="48.15184" lon="7.16156">
        <ele>458</ele>
        <time>2015-07-08T15:22:15.1Z</time>
      </trkpt>
      <trkpt lat="48.15191" lon="7.16152">
        <ele>459</ele>
        <time>2015-07-08T15:22:18.1Z</time>
      </trkpt>
      <trkpt lat="48.152" lon="7.1615">
        <ele>460</ele>
        <time>2015-07-08T15:22:21.1Z</time>
      </trkpt>
      <trkpt lat="48.15207" lon="7.16149">
        <ele>460</ele>
        <time>2015-07-08T15:22:23.1Z</time>
      </trkpt>
      <trkpt lat="48.15215" lon="7.16147">
        <ele>460</ele>
        <time>2015-07-08T15:22:25.1Z</time>
      </trkpt>
      <trkpt lat="48.15227" lon="7.16141">
        <ele>461</ele>
        <time>2015-07-08T15:22:28.1Z</time>
      </trkpt>
      <trkpt lat="48.15235" lon="7.16136">
        <ele>461</ele>
        <time>2015-07-08T15:22:30.1Z</time>
      </trkpt>
      <trkpt lat="48.15247" lon="7.16126">
        <ele>461</ele>
        <time>2015-07-08T15:22:33.1Z</time>
      </trkpt>
      <trkpt lat="48.15254" lon="7.16119">
        <ele>461</ele>
        <time>2015-07-08T15:22:35.1Z</time>
      </trkpt>
      <trkpt lat="48.15263" lon="7.16109">
        <ele>462</ele>
        <time>2015-07-08T15:22:38.1Z</time>
      </trkpt>
      <trkpt lat="48.15275" lon="7.161">
        <ele>462</ele>
        <time>2015-07-08T15:22:41.1Z</time>
      </trkpt>
      <trkpt lat="48.15283" lon="7.16093">
        <ele>462</ele>
        <time>2015-07-08T15:22:43.1Z</time>
      </trkpt>
      <trkpt lat="48.15297" lon="7.16082">
        <ele>462</ele>
        <time>2015-07-08T15:22:46.1Z</time>
      </trkpt>
      <trkpt lat="48.15306" lon="7.16072">
        <ele>462</ele>
        <time>2015-07-08T15:22:48.1Z</time>
      </trkpt>
      <trkpt lat="48.15316" lon="7.16059">
        <ele>462</ele>
        <time>2015-07-08T15:22:50.1Z</time>
      </trkpt>
      <trkpt lat="48.15326" lon="7.16044">
        <ele>462</ele>
        <time>2015-07-08T15:22:52.1Z</time>
      </trkpt>
      <trkpt lat="48.15344" lon="7.16022">
        <ele>462</ele>
        <time>2015-07-08T15:22:55.1Z</time>
      </trkpt>
      <trkpt lat="48.15364" lon="7.16007">
        <ele>462</ele>
        <time>2015-07-08T15:22:58.1Z</time>
      </trkpt>
      <trkpt lat="48.15383" lon="7.15994">
        <ele>462</ele>
        <time>2015-07-08T15:23:01.1Z</time>
      </trkpt>
      <trkpt lat="48.15403" lon="7.15986">
        <ele>462</ele>
        <time>2015-07-08T15:23:04.1Z</time>
      </trkpt>
      <trkpt lat="48.15417" lon="7.15985">
        <ele>462</ele>
        <time>2015-07-08T15:23:06.1Z</time>
      </trkpt>
      <trkpt lat="48.15428" lon="7.15986">
        <ele>461</ele>
        <time>2015-07-08T15:23:08.1Z</time>
      </trkpt>
      <trkpt lat="48.15442" lon="7.15987">
        <ele>460</ele>
        <time>2015-07-08T15:23:11.1Z</time>
      </trkpt>
      <trkpt lat="48.15456" lon="7.15987">
        <ele>459</ele>
        <time>2015-07-08T15:23:14.1Z</time>
      </trkpt>
      <trkpt lat="48.15469" lon="7.15985">
        <ele>460</ele>
        <time>2015-07-08T15:23:17.1Z</time>
      </trkpt>
      <trkpt lat="48.1548" lon="7.15979">
        <ele>461</ele>
        <time>2015-07-08T15:23:20.1Z</time>
      </trkpt>
      <trkpt lat="48.15487" lon="7.15975">
        <ele>462</ele>
        <time>2015-07-08T15:23:22.1Z</time>
      </trkpt>
      <trkpt lat="48.15495" lon="7.15969">
        <ele>464</ele>
        <time>2015-07-08T15:23:25.1Z</time>
      </trkpt>
      <trkpt lat="48.155" lon="7.15967">
        <ele>465</ele>
        <time>2015-07-08T15:23:27.1Z</time>
      </trkpt>
      <trkpt lat="48.15505" lon="7.15965">
        <ele>466</ele>
        <time>2015-07-08T15:23:29.1Z</time>
      </trkpt>
      <trkpt lat="48.15512" lon="7.15964">
        <ele>467</ele>
        <time>2015-07-08T15:23:32.1Z</time>
      </trkpt>
      <trkpt lat="48.15519" lon="7.15965">
        <ele>468</ele>
        <time>2015-07-08T15:23:35.1Z</time>
      </trkpt>
      <trkpt lat="48.15527" lon="7.15965">
        <ele>469</ele>
        <time>2015-07-08T15:23:38.1Z</time>
      </trkpt>
      <trkpt lat="48.15533" lon="7.15961">
        <ele>469</ele>
        <time>2015-07-08T15:23:40.1Z</time>
      </trkpt>
      <trkpt lat="48.1554" lon="7.15953">
        <ele>470</ele>
        <time>2015-07-08T15:23:43.1Z</time>
      </trkpt>
      <trkpt lat="48.15545" lon="7.15945">
        <ele>470</ele>
        <time>2015-07-08T15:23:46.1Z</time>
      </trkpt>
      <trkpt lat="48.15549" lon="7.15938">
        <ele>471</ele>
        <time>2015-07-08T15:23:49.1Z</time>
      </trkpt>
      <trkpt lat="48.15553" lon="7.1593">
        <ele>471</ele>
        <time>2015-07-08T15:23:52.1Z</time>
      </trkpt>
      <trkpt lat="48.15554" lon="7.15922">
        <ele>472</ele>
        <time>2015-07-08T15:23:55.1Z</time>
      </trkpt>
      <trkpt lat="48.15552" lon="7.15918">
        <ele>473</ele>
        <time>2015-07-08T15:23:57.1Z</time>
      </trkpt>
      <trkpt lat="48.15547" lon="7.15914">
        <ele>474</ele>
        <time>2015-07-08T15:24:00.1Z</time>
      </trkpt>
      <trkpt lat="48.15544" lon="7.15912">
        <ele>474</ele>
        <time>2015-07-08T15:24:02.1Z</time>
      </trkpt>
      <trkpt lat="48.15539" lon="7.15911">
        <ele>475</ele>
        <time>2015-07-08T15:24:05.1Z</time>
      </trkpt>
      <trkpt lat="48.15538" lon="7.15908">
        <ele>476</ele>
        <time>2015-07-08T15:24:07.1Z</time>
      </trkpt>
      <trkpt lat="48.15543" lon="7.15911">
        <ele>476</ele>
        <time>2015-07-08T15:24:10.1Z</time>
      </trkpt>
      <trkpt lat="48.15548" lon="7.15913">
        <ele>476</ele>
        <time>2015-07-08T15:24:12.1Z</time>
      </trkpt>
      <trkpt lat="48.15554" lon="7.15923">
        <ele>476</ele>
        <time>2015-07-08T15:24:15.1Z</time>
      </trkpt>
      <trkpt lat="48.15552" lon="7.15934">
        <ele>475</ele>
        <time>2015-07-08T15:24:17.1Z</time>
      </trkpt>
      <trkpt lat="48.15542" lon="7.15951">
        <ele>474</ele>
        <time>2015-07-08T15:24:20.1Z</time>
      </trkpt>
      <trkpt lat="48.15534" lon="7.1596">
        <ele>473</ele>
        <time>2015-07-08T15:24:22.1Z</time>
      </trkpt>
      <trkpt lat="48.15525" lon="7.15961">
        <ele>473</ele>
        <time>2015-07-08T15:24:24.1Z</time>
      </trkpt>
      <trkpt lat="48.15514" lon="7.15962">
        <ele>471</ele>
        <time>2015-07-08T15:24:27.1Z</time>
      </trkpt>
      <trkpt lat="48.15504" lon="7.15966">
        <ele>470</ele>
        <time>2015-07-08T15:24:29.1Z</time>
      </trkpt>
      <trkpt lat="48.15493" lon="7.15971">
        <ele>469</ele>
        <time>2015-07-08T15:24:31.1Z</time>
      </trkpt>
      <trkpt lat="48.15479" lon="7.15979">
        <ele>468</ele>
        <time>2015-07-08T15:24:34.1Z</time>
      </trkpt>
      <trkpt lat="48.15466" lon="7.15983">
        <ele>466</ele>
        <time>2015-07-08T15:24:37.1Z</time>
      </trkpt>
      <trkpt lat="48.1545" lon="7.15985">
        <ele>463</ele>
        <time>2015-07-08T15:24:40.1Z</time>
      </trkpt>
      <trkpt lat="48.15439" lon="7.15984">
        <ele>462</ele>
        <time>2015-07-08T15:24:42.1Z</time>
      </trkpt>
      <trkpt lat="48.15422" lon="7.15983">
        <ele>461</ele>
        <time>2015-07-08T15:24:45.1Z</time>
      </trkpt>
      <trkpt lat="48.15406" lon="7.15984">
        <ele>459</ele>
        <time>2015-07-08T15:24:48.1Z</time>
      </trkpt>
      <trkpt lat="48.15395" lon="7.15988">
        <ele>458</ele>
        <time>2015-07-08T15:24:50.1Z</time>
      </trkpt>
      <trkpt lat="48.15386" lon="7.15991">
        <ele>458</ele>
        <time>2015-07-08T15:24:52.1Z</time>
      </trkpt>
      <trkpt lat="48.15376" lon="7.15997">
        <ele>457</ele>
        <time>2015-07-08T15:24:55.1Z</time>
      </trkpt>
      <trkpt lat="48.15367" lon="7.16003">
        <ele>457</ele>
        <time>2015-07-08T15:24:58.1Z</time>
      </trkpt>
      <trkpt lat="48.15361" lon="7.16008">
        <ele>457</ele>
        <time>2015-07-08T15:25:00.1Z</time>
      </trkpt>
      <trkpt lat="48.15354" lon="7.16012">
        <ele>457</ele>
        <time>2015-07-08T15:25:02.1Z</time>
      </trkpt>
      <trkpt lat="48.15343" lon="7.16022">
        <ele>458</ele>
        <time>2015-07-08T15:25:05.1Z</time>
      </trkpt>
      <trkpt lat="48.15335" lon="7.16028">
        <ele>458</ele>
        <time>2015-07-08T15:25:07.1Z</time>
      </trkpt>
      <trkpt lat="48.15329" lon="7.16036">
        <ele>458</ele>
        <time>2015-07-08T15:25:09.1Z</time>
      </trkpt>
      <trkpt lat="48.1532" lon="7.16051">
        <ele>458</ele>
        <time>2015-07-08T15:25:12.1Z</time>
      </trkpt>
      <trkpt lat="48.15313" lon="7.16064">
        <ele>459</ele>
        <time>2015-07-08T15:25:15.1Z</time>
      </trkpt>
      <trkpt lat="48.15308" lon="7.1607">
        <ele>459</ele>
        <time>2015-07-08T15:25:17.1Z</time>
      </trkpt>
      <trkpt lat="48.15302" lon="7.16078">
        <ele>460</ele>
        <time>2015-07-08T15:25:20.1Z</time>
      </trkpt>
      <trkpt lat="48.15297" lon="7.16083">
        <ele>460</ele>
        <time>2015-07-08T15:25:22.1Z</time>
      </trkpt>
      <trkpt lat="48.15289" lon="7.16086">
        <ele>461</ele>
        <time>2015-07-08T15:25:25.1Z</time>
      </trkpt>
      <trkpt lat="48.1528" lon="7.16094">
        <ele>461</ele>
        <time>2015-07-08T15:25:28.1Z</time>
      </trkpt>
      <trkpt lat="48.15269" lon="7.16102">
        <ele>462</ele>
        <time>2015-07-08T15:25:31.1Z</time>
      </trkpt>
      <trkpt lat="48.15263" lon="7.16108">
        <ele>463</ele>
        <time>2015-07-08T15:25:33.1Z</time>
      </trkpt>
      <trkpt lat="48.15256" lon="7.16115">
        <ele>463</ele>
        <time>2015-07-08T15:25:35.1Z</time>
      </trkpt>
      <trkpt lat="48.15249" lon="7.16121">
        <ele>463</ele>
        <time>2015-07-08T15:25:37.1Z</time>
      </trkpt>
      <trkpt lat="48.15238" lon="7.16131">
        <ele>462</ele>
        <time>2015-07-08T15:25:40.1Z</time>
      </trkpt>
      <trkpt lat="48.15226" lon="7.16139">
        <ele>462</ele>
        <time>2015-07-08T15:25:43.1Z</time>
      </trkpt>
      <trkpt lat="48.15218" lon="7.16143">
        <ele>462</ele>
        <time>2015-07-08T15:25:45.1Z</time>
      </trkpt>
      <trkpt lat="48.15207" lon="7.16147">
        <ele>462</ele>
        <time>2015-07-08T15:25:48.1Z</time>
      </trkpt>
      <trkpt lat="48.15197" lon="7.1615">
        <ele>462</ele>
        <time>2015-07-08T15:25:51.1Z</time>
      </trkpt>
      <trkpt lat="48.15193" lon="7.16148">
        <ele>461</ele>
        <time>2015-07-08T15:25:54.1Z</time>
      </trkpt>
      <trkpt lat="48.15192" lon="7.16145">
        <ele>460</ele>
        <time>2015-07-08T15:25:57.1Z</time>
      </trkpt>
      <trkpt lat="48.15228" lon="7.1614">
        <ele>462</ele>
        <time>2015-07-08T15:25:59.1Z</time>
      </trkpt>
      <trkpt lat="48.15243" lon="7.1613">
        <ele>462</ele>
        <time>2015-07-08T15:26:02.1Z</time>
      </trkpt>
      <trkpt lat="48.15255" lon="7.16117">
        <ele>462</ele>
        <time>2015-07-08T15:26:05.1Z</time>
      </trkpt>
      <trkpt lat="48.15266" lon="7.16107">
        <ele>463</ele>
        <time>2015-07-08T15:26:08.1Z</time>
      </trkpt>
      <trkpt lat="48.15279" lon="7.16098">
        <ele>462</ele>
        <time>2015-07-08T15:26:11.1Z</time>
      </trkpt>
      <trkpt lat="48.15293" lon="7.16087">
        <ele>462</ele>
        <time>2015-07-08T15:26:14.1Z</time>
      </trkpt>
      <trkpt lat="48.15306" lon="7.16073">
        <ele>463</ele>
        <time>2015-07-08T15:26:17.1Z</time>
      </trkpt>
      <trkpt lat="48.15316" lon="7.1606">
        <ele>463</ele>
        <time>2015-07-08T15:26:19.1Z</time>
      </trkpt>
      <trkpt lat="48.15326" lon="7.16045">
        <ele>463</ele>
        <time>2015-07-08T15:26:21.1Z</time>
      </trkpt>
      <trkpt lat="48.15343" lon="7.16024">
        <ele>463</ele>
        <time>2015-07-08T15:26:24.1Z</time>
      </trkpt>
      <trkpt lat="48.15362" lon="7.16009">
        <ele>462</ele>
        <time>2015-07-08T15:26:27.1Z</time>
      </trkpt>
      <trkpt lat="48.15374" lon="7.16001">
        <ele>461</ele>
        <time>2015-07-08T15:26:29.1Z</time>
      </trkpt>
      <trkpt lat="48.15392" lon="7.15991">
        <ele>459</ele>
        <time>2015-07-08T15:26:32.1Z</time>
      </trkpt>
      <trkpt lat="48.1541" lon="7.15986">
        <ele>458</ele>
        <time>2015-07-08T15:26:35.1Z</time>
      </trkpt>
      <trkpt lat="48.15424" lon="7.15985">
        <ele>458</ele>
        <time>2015-07-08T15:26:38.1Z</time>
      </trkpt>
      <trkpt lat="48.15434" lon="7.15986">
        <ele>458</ele>
        <time>2015-07-08T15:26:41.1Z</time>
      </trkpt>
      <trkpt lat="48.15442" lon="7.15987">
        <ele>458</ele>
        <time>2015-07-08T15:26:44.1Z</time>
      </trkpt>
      <trkpt lat="48.1545" lon="7.15988">
        <ele>458</ele>
        <time>2015-07-08T15:26:47.1Z</time>
      </trkpt>
      <trkpt lat="48.15456" lon="7.15987">
        <ele>459</ele>
        <time>2015-07-08T15:26:50.1Z</time>
      </trkpt>
      <trkpt lat="48.15463" lon="7.15986">
        <ele>459</ele>
        <time>2015-07-08T15:26:53.1Z</time>
      </trkpt>
      <trkpt lat="48.15467" lon="7.15985">
        <ele>459</ele>
        <time>2015-07-08T15:26:55.1Z</time>
      </trkpt>
      <trkpt lat="48.1547" lon="7.15984">
        <ele>460</ele>
        <time>2015-07-08T15:26:58.1Z</time>
      </trkpt>
      <trkpt lat="48.15476" lon="7.15982">
        <ele>460</ele>
        <time>2015-07-08T15:27:01.1Z</time>
      </trkpt>
      <trkpt lat="48.15482" lon="7.15976">
        <ele>461</ele>
        <time>2015-07-08T15:27:04.1Z</time>
      </trkpt>
      <trkpt lat="48.15486" lon="7.15973">
        <ele>462</ele>
        <time>2015-07-08T15:27:06.1Z</time>
      </trkpt>
      <trkpt lat="48.15493" lon="7.15969">
        <ele>463</ele>
        <time>2015-07-08T15:27:09.1Z</time>
      </trkpt>
      <trkpt lat="48.15499" lon="7.15966">
        <ele>464</ele>
        <time>2015-07-08T15:27:12.1Z</time>
      </trkpt>
      <trkpt lat="48.15506" lon="7.15964">
        <ele>465</ele>
        <time>2015-07-08T15:27:15.1Z</time>
      </trkpt>
      <trkpt lat="48.15512" lon="7.15963">
        <ele>466</ele>
        <time>2015-07-08T15:27:18.1Z</time>
      </trkpt>
      <trkpt lat="48.15516" lon="7.15963">
        <ele>467</ele>
        <time>2015-07-08T15:27:21.1Z</time>
      </trkpt>
      <trkpt lat="48.15518" lon="7.15963">
        <ele>467</ele>
        <time>2015-07-08T15:27:22.1Z</time>
      </trkpt>
    </trkseg>
  </trk>
</gpx>